GEFSSGP_500_meanwind_000.txt.gz
Wind_Speed
8 11 12 14 16 16 17 17 17 16 16 15 15 15 15 15 17 18 18 19 19 18 18 15 14 13 14 13 13 12 13 14 15 15 17 17 18 18 18 19 20 20 18 17 16 18 17 18 18
8 10 11 13 15 16 16 16 16 17 17 17 18 18 16 16 17 19 20 21 20 17 15 14 14 14 14 15 15 16 16 17 18 19 20 20 20 20 21 22 22 22 21 20 19 18 18 18 17
7 8 11 13 15 16 16 15 14 18 18 18 19 19 17 17 19 20 19 19 18 17 16 16 16 16 17 17 18 19 20 21 22 22 23 22 22 23 24 25 25 25 24 22 20 18 17 18 17
6 7 10 12 15 16 16 15 16 18 17 18 21 19 18 17 18 18 16 16 18 19 19 20 20 20 20 20 21 22 23 24 25 25 25 25 26 27 27 28 27 25 24 23 22 20 18 18 18
12 12 13 15 17 17 16 17 19 21 19 20 23 19 15 15 17 19 19 18 19 21 22 22 23 23 23 24 25 26 27 27 27 27 27 28 28 29 28 27 27 25 24 23 21 20 19 19 19
12 13 16 18 19 19 19 19 22 24 21 19 20 18 17 19 21 23 23 24 23 22 24 25 24 25 26 27 27 28 28 28 28 28 29 28 28 27 27 26 25 26 25 24 22 20 20 20 20
14 15 17 18 19 18 17 17 20 22 22 19 20 21 22 23 24 25 25 26 26 25 25 26 28 28 28 29 28 28 28 28 28 29 29 28 28 28 27 27 26 27 27 27 26 23 22 20 21
16 17 18 19 20 20 19 19 21 23 24 22 22 24 25 25 26 27 27 28 29 29 27 26 27 30 30 29 28 28 27 27 27 27 27 27 27 27 27 27 27 28 29 29 29 27 25 23 22
16 18 19 20 21 21 21 22 22 23 26 24 25 26 28 28 29 30 31 31 31 30 29 27 27 28 29 28 27 27 26 26 26 26 26 27 28 29 29 29 30 30 30 31 32 31 28 26 25
16 18 20 21 23 24 24 24 23 23 25 26 27 28 29 31 32 33 32 32 32 30 28 27 27 27 28 29 28 28 28 29 29 30 30 31 31 32 33 34 33 33 33 33 34 34 32 30 28
15 19 20 20 21 25 26 25 25 24 25 29 30 31 31 31 31 30 29 28 28 28 27 26 26 27 30 32 32 32 33 34 35 36 36 37 38 38 38 39 38 38 38 37 37 36 36 35 32
14 17 18 18 19 22 24 25 24 23 25 28 30 29 28 27 26 25 23 23 25 27 29 30 30 31 33 36 37 38 39 40 41 41 42 42 43 43 44 43 41 41 41 41 40 40 40 39 37
14 16 17 16 17 19 20 21 20 21 23 24 25 24 24 25 26 26 27 28 30 32 33 35 37 39 39 40 41 43 44 44 45 46 47 47 47 47 47 45 42 41 41 41 41 42 42 41 41
10 11 13 14 14 14 16 17 18 20 21 23 24 25 26 27 30 32 34 36 37 39 41 42 43 44 45 45 45 46 46 46 47 47 48 49 49 49 49 46 42 40 41 42 44 44 45 46 47
11 12 14 16 18 19 19 17 21 24 25 27 28 30 32 33 36 38 41 43 44 45 46 47 48 48 49 49 49 48 48 47 47 47 48 49 50 50 49 47 45 43 44 45 47 48 49 50 51
14 15 16 18 20 21 21 16 22 26 28 28 30 31 32 34 36 39 41 44 46 48 48 49 49 50 50 50 49 49 48 47 47 47 48 48 48 48 48 48 48 49 49 48 49 50 51 51 52
15 16 16 18 21 21 21 15 19 23 25 26 28 30 31 34 36 38 42 45 48 49 50 50 50 51 51 51 50 49 48 47 47 47 48 47 47 47 47 48 49 50 51 50 49 49 51 53 54
16 17 18 20 23 23 24 23 25 27 28 30 33 34 36 38 40 42 44 47 51 52 52 52 52 52 51 49 47 46 46 45 45 46 46 46 46 45 45 44 45 45 46 47 47 48 50 52 54
16 18 18 20 23 27 30 30 31 32 32 34 38 40 41 42 44 46 48 51 55 55 53 52 52 51 49 46 44 42 43 43 44 44 43 42 41 41 40 41 42 43 45 48 51 52 53 54 56
19 20 22 24 28 30 32 32 35 37 37 38 41 44 45 47 49 51 51 53 56 54 51 51 49 47 45 43 41 41 40 40 40 39 37 37 37 38 40 42 44 46 48 50 54 56 58 58 59
21 23 26 28 30 34 37 36 40 41 43 44 47 49 50 52 52 52 50 51 54 51 50 50 50 45 41 40 38 37 36 36 34 33 34 35 37 39 42 45 48 50 52 55 58 60 62 63 62
23 27 29 31 34 37 41 44 44 45 46 48 49 51 53 55 55 54 49 50 49 49 52 54 53 50 46 41 36 35 34 34 34 33 34 36 38 41 44 48 52 55 58 60 62 64 66 66 65
28 30 32 34 38 42 45 49 50 52 53 54 55 57 58 59 59 53 49 51 51 52 53 52 48 47 46 41 35 34 34 34 34 34 35 38 42 46 50 53 55 57 59 61 62 63 65 67 68
34 37 38 41 45 48 51 55 54 54 57 58 59 59 59 57 53 48 50 53 51 50 50 46 44 46 42 34 32 33 33 32 32 34 37 41 45 48 51 54 56 58 59 59 59 60 62 63 65
40 43 46 49 52 54 57 61 60 60 60 59 58 56 54 51 45 41 46 48 48 47 46 45 48 49 42 33 33 33 31 31 32 37 40 42 43 47 51 52 48 45 45 47 50 54 58 61 63
47 49 51 55 58 59 61 64 63 62 58 54 51 48 46 45 40 36 41 45 47 49 48 50 55 51 35 32 33 31 31 32 34 40 40 41 43 46 45 38 37 41 43 46 48 52 58 60 61
53 55 57 59 62 64 66 66 66 64 55 48 43 41 42 41 39 39 41 44 47 51 51 56 58 39 33 33 33 32 32 32 37 39 39 42 42 38 36 37 38 38 40 44 48 51 54 56 55
56 58 59 59 63 68 68 67 64 61 53 46 42 42 41 41 41 42 44 47 49 53 53 57 48 36 34 33 31 32 32 34 37 37 40 43 39 36 36 35 35 37 40 44 47 47 45 45 47
57 58 59 61 63 64 67 67 64 58 52 48 43 41 41 42 42 43 46 50 52 53 50 54 47 37 36 32 32 32 32 35 36 37 40 39 36 35 36 34 36 38 41 43 44 45 44 40 40
61 62 61 60 63 65 63 68 61 55 52 49 47 46 46 45 42 41 44 48 49 46 44 46 41 38 34 32 33 34 34 35 34 36 38 36 35 36 34 33 35 36 36 38 40 41 41 37 35

GEFSSGP_500_meanwind_006.txt.gz
Wind_Speed
8 10 11 11 12 13 12 12 13 14 15 16 17 17 16 16 16 17 17 17 18 19 19 19 19 18 17 16 16 16 17 17 18 18 18 18 18 19 19 19 19 19 19 19 20 19 17 15 16
8 9 9 10 11 10 10 11 12 13 15 17 17 16 16 17 18 18 18 18 20 20 19 18 17 17 18 18 18 18 19 20 20 20 20 21 21 22 22 22 21 21 22 23 22 21 19 16 15
7 8 8 9 10 9 9 10 11 12 15 17 17 16 16 18 19 19 20 20 20 18 17 17 17 18 19 20 20 20 21 22 22 22 22 23 24 25 25 25 24 24 25 25 24 21 19 17 15
5 6 8 8 8 8 9 10 11 12 14 16 16 16 17 19 20 20 20 19 19 18 18 19 19 21 22 24 24 23 24 24 24 24 24 25 26 27 27 26 26 27 27 25 23 20 18 16 15
9 10 10 10 10 9 11 13 13 15 16 17 18 19 20 20 20 20 20 20 21 21 22 23 23 23 24 26 26 26 26 26 26 26 26 27 27 28 28 27 27 26 26 24 23 21 19 17 17
11 12 13 13 13 14 15 16 17 19 20 20 21 21 21 20 19 20 21 22 23 24 25 26 26 26 26 27 28 28 28 28 27 27 28 28 28 28 28 27 27 26 24 22 22 21 20 19 19
13 13 14 15 15 16 16 17 18 19 19 20 21 21 21 22 23 23 23 24 24 25 26 27 28 28 28 27 27 28 29 29 29 28 28 28 28 27 26 26 25 24 23 23 22 22 22 21 21
16 16 17 18 18 18 19 19 21 22 23 24 25 24 24 25 26 26 27 27 28 28 29 29 29 29 29 28 27 28 28 28 27 27 27 27 26 26 25 25 25 25 25 25 25 25 25 24 23
17 18 19 19 19 20 20 21 22 23 24 25 27 27 27 27 27 28 29 30 30 29 29 28 27 28 28 27 27 26 26 26 26 26 25 25 25 25 26 27 28 28 29 29 29 29 29 29 27
17 18 20 18 19 20 21 22 23 24 25 27 28 29 28 28 28 30 30 30 28 26 24 23 24 24 25 26 26 25 25 25 26 27 27 28 29 30 31 32 33 33 33 34 34 33 33 33 33
16 18 20 18 18 19 20 21 21 20 21 25 27 27 27 27 28 28 27 27 26 25 23 22 22 23 25 28 29 29 29 31 32 33 33 34 35 36 36 37 38 38 38 38 38 38 38 38 38
15 18 18 17 16 15 16 16 16 16 18 19 20 21 21 22 22 23 24 25 26 27 27 28 28 28 30 32 34 36 37 38 39 40 41 41 42 43 43 43 43 43 43 43 43 43 43 42 42
13 16 15 14 14 11 11 11 12 15 17 16 17 19 20 21 23 25 27 28 29 30 31 33 34 35 36 37 39 41 43 44 46 47 48 48 49 49 49 48 47 46 46 46 46 46 46 46 45
11 12 13 13 12 12 13 13 17 19 18 18 20 21 22 23 25 26 28 30 30 32 33 34 35 36 37 38 40 42 44 46 48 49 51 52 53 53 52 52 51 49 48 48 48 48 48 48 47
12 13 15 16 16 16 15 13 20 21 19 19 21 22 23 25 26 28 30 31 32 34 36 37 38 39 41 41 42 43 45 46 47 48 49 51 52 53 54 53 52 51 50 49 49 49 49 49 48
16 16 17 20 19 18 16 12 20 21 20 20 21 24 27 28 30 32 34 35 36 39 41 43 44 45 46 47 47 48 50 51 52 51 51 50 50 51 52 53 53 53 52 51 50 49 49 49 48
19 19 19 22 22 19 16 10 17 23 22 21 24 27 30 33 35 37 39 40 42 45 47 48 50 51 52 53 54 54 54 54 53 53 52 51 50 49 49 50 52 53 53 52 51 49 48 48 48
23 23 22 23 23 20 18 16 18 24 25 25 27 31 35 37 40 42 44 46 48 50 51 53 54 55 56 56 57 58 57 56 53 51 51 50 49 48 48 48 49 49 50 49 48 47 46 46 45
26 25 23 22 22 22 22 23 23 25 29 31 33 36 39 42 45 47 48 50 52 53 55 58 60 60 60 59 58 58 56 53 51 50 50 49 49 48 47 47 47 47 47 46 45 44 43 43 43
26 25 24 23 26 27 27 27 28 31 34 38 42 44 46 49 51 52 53 54 56 58 59 60 62 63 62 60 59 57 54 51 50 50 51 50 49 47 45 44 43 43 43 43 42 42 42 44 46
27 26 26 26 28 30 34 35 35 41 45 48 51 53 54 55 56 57 58 59 60 60 60 61 63 62 61 58 57 56 54 52 52 52 52 51 49 45 43 43 41 41 41 40 40 41 44 46 48
24 26 28 31 34 36 39 44 47 51 54 56 58 59 61 60 60 61 62 63 62 62 62 62 63 62 61 58 55 55 54 53 53 52 50 49 48 46 44 42 41 41 41 40 41 42 44 47 49
26 30 34 37 41 45 48 52 55 57 60 62 64 64 64 63 64 64 64 62 61 61 60 61 62 62 60 58 56 54 51 50 49 47 46 46 46 45 44 42 42 40 39 41 42 44 45 48 51
32 37 41 45 49 52 55 57 60 63 65 66 67 67 67 67 67 66 64 62 60 58 58 59 60 60 60 58 56 52 49 48 46 44 44 45 45 43 42 42 41 40 39 40 41 43 46 50 53
40 45 51 54 56 58 61 65 67 68 69 69 70 69 69 68 66 65 64 61 57 55 55 56 57 57 57 56 55 52 50 49 48 45 46 47 46 43 41 41 41 40 40 40 42 44 48 50 49
48 52 56 59 62 64 67 70 69 70 69 69 68 68 69 69 68 65 61 57 54 53 53 54 54 54 54 54 54 53 53 52 51 49 48 48 45 42 40 40 40 40 40 41 43 45 47 46 45
53 57 60 63 67 69 69 71 71 71 70 68 70 72 72 71 69 64 57 53 52 51 51 52 53 53 52 53 54 56 55 54 53 49 45 41 39 38 38 40 40 41 41 42 43 44 44 44 43
57 60 61 63 67 71 72 70 72 72 72 74 75 75 73 70 66 62 56 51 49 49 50 52 53 53 52 53 54 56 56 54 52 47 42 38 36 36 37 40 41 41 42 42 42 43 43 43 42
58 59 62 66 67 69 71 69 72 73 75 77 77 76 73 69 64 59 54 50 48 48 49 52 54 54 53 54 54 53 53 53 51 46 41 38 37 37 38 40 40 40 40 40 40 41 42 42 42
59 62 63 64 66 69 74 77 73 75 76 77 77 75 71 65 58 53 49 47 45 46 48 50 52 52 52 53 51 49 51 54 52 48 42 39 38 38 39 40 40 39 38 39 39 40 41 41 42

GEFSSGP_500_meanwind_012.txt.gz
Wind_Speed
10 10 10 11 12 13 14 16 17 18 19 20 21 21 21 21 22 23 23 22 20 20 19 20 20 19 18 16 14 13 13 14 14 15 16 17 18 19 19 20 20 19 19 18 18 18 18 17 16
9 9 9 10 10 11 13 15 16 17 18 20 21 21 22 23 23 23 23 22 21 21 21 21 20 18 17 16 15 15 16 16 17 18 19 19 20 21 21 22 22 22 21 20 20 20 19 17 16
9 9 9 10 10 12 13 15 16 18 19 19 19 20 21 21 22 23 23 22 22 23 22 22 19 18 17 17 18 19 19 19 19 21 22 22 22 23 23 23 23 23 22 21 21 21 20 17 15
6 7 8 10 12 13 15 16 17 18 18 18 17 17 19 20 21 23 23 23 24 23 22 21 20 19 20 21 22 23 23 23 23 23 24 24 25 25 25 24 24 24 24 23 22 21 19 17 14
7 7 7 9 11 12 13 14 15 16 16 16 16 17 19 20 22 23 24 24 23 22 21 21 21 22 23 24 25 25 26 26 26 26 26 26 26 26 25 25 25 25 24 23 22 21 19 17 15
10 11 10 11 12 12 13 14 16 17 17 17 17 18 19 20 21 21 22 22 22 22 23 23 24 25 25 26 27 27 27 27 28 28 28 28 28 27 27 27 26 26 24 23 22 21 20 18 17
12 12 13 14 14 14 14 15 16 17 17 17 17 17 19 20 20 22 23 24 24 24 25 26 27 28 28 28 28 29 29 29 29 28 28 28 28 27 27 27 27 25 24 23 23 22 21 20 19
15 15 17 17 17 16 16 17 18 19 19 20 20 20 21 22 23 24 25 25 26 26 27 28 28 29 29 29 29 28 28 28 28 28 28 27 27 27 26 26 25 25 24 24 24 24 23 23 23
16 17 19 19 18 18 18 19 20 21 21 22 23 24 24 24 24 25 25 26 27 27 28 28 28 28 28 27 27 27 26 26 26 27 27 27 27 27 27 27 27 27 26 26 27 27 27 28 28
16 18 19 18 18 18 19 20 20 19 20 23 24 24 23 23 23 23 24 25 26 26 26 26 25 25 26 26 25 25 25 25 26 27 28 28 29 29 30 30 30 31 31 31 31 32 32 33 33
15 17 17 17 17 18 19 19 19 18 19 23 21 21 21 21 21 21 22 23 24 25 25 25 25 26 27 27 28 28 28 29 30 31 32 32 33 34 34 35 35 36 36 37 37 38 38 39 39
15 17 18 19 18 17 18 18 18 18 20 20 19 20 21 22 22 22 23 25 25 26 26 27 27 28 29 30 31 32 33 34 35 36 37 37 38 39 40 40 41 41 42 42 43 44 44 44 45
13 15 16 17 17 16 15 16 17 19 21 21 22 23 23 24 24 24 25 26 26 26 27 27 28 29 30 32 33 34 34 36 37 38 38 39 40 41 42 42 43 44 45 46 47 48 49 49 50
13 14 16 17 16 15 15 16 19 21 24 26 26 26 26 26 26 26 26 26 26 27 28 30 32 33 35 36 37 38 39 40 40 41 42 42 42 42 43 43 44 44 44 45 47 49 51 52 53
16 17 19 20 20 19 19 20 24 25 27 28 29 28 27 27 27 28 29 29 29 30 32 34 36 38 40 41 43 44 45 45 46 46 47 47 47 47 47 47 47 47 47 47 48 49 51 53 54
21 21 22 24 24 23 21 20 28 30 28 29 30 29 29 29 29 30 31 32 34 35 38 40 42 44 45 47 48 49 49 50 50 51 51 52 52 52 52 51 51 51 50 50 50 50 51 53 54
23 23 24 27 26 25 24 20 26 30 28 26 27 28 30 31 32 34 35 38 40 42 44 46 48 50 51 52 53 53 53 53 53 53 54 54 55 55 54 54 53 53 53 52 51 51 52 54 55
23 23 23 25 25 24 22 18 23 26 26 26 27 29 32 35 37 40 42 44 46 48 50 52 53 55 56 56 57 57 56 56 55 55 55 55 55 54 54 54 54 53 53 52 51 52 53 54 55
22 22 21 22 22 19 17 18 23 25 28 30 32 35 38 41 43 45 47 49 51 53 53 53 54 55 56 57 58 58 58 57 57 56 55 54 54 54 54 53 53 52 52 51 51 52 53 54 55
21 20 19 19 20 18 17 22 27 29 32 36 40 43 45 46 48 50 51 53 53 54 54 54 54 55 56 57 58 59 59 58 57 56 55 55 55 54 53 53 52 52 51 51 51 51 52 53 53
19 18 18 18 20 22 25 30 35 38 41 44 47 49 50 50 51 52 52 53 53 53 54 54 54 55 56 57 58 59 59 59 58 57 56 55 55 55 54 53 53 53 52 52 52 52 52 51 51
18 20 21 23 27 29 33 40 44 47 49 52 53 53 54 55 56 56 56 56 57 58 58 59 59 59 59 60 61 61 61 61 60 58 57 57 56 55 55 55 54 54 53 52 52 53 52 52 51
24 26 29 31 34 37 41 45 49 53 56 56 57 57 58 58 58 59 61 63 65 66 67 67 68 67 67 65 64 64 64 63 62 60 59 58 57 56 55 54 53 53 51 51 51 52 53 53 52
29 31 34 36 39 42 45 49 54 57 58 58 58 59 60 62 65 67 70 72 74 75 75 75 75 74 72 69 67 66 65 64 63 61 59 57 56 55 53 52 51 50 49 49 50 51 53 53 53
33 36 39 42 45 48 50 54 57 58 58 59 61 64 67 71 74 77 79 80 80 80 80 79 78 75 72 69 67 65 64 64 63 60 57 54 52 51 50 50 49 48 48 48 50 51 52 52 52
37 40 43 47 50 53 55 57 59 59 62 64 68 72 76 79 82 83 83 83 83 82 80 78 74 71 68 65 63 61 61 60 58 55 52 49 47 47 47 48 47 47 47 48 49 50 51 51 51
43 46 48 51 54 54 54 56 60 63 66 71 76 79 81 83 84 85 84 82 80 77 73 70 66 63 60 59 57 55 54 55 53 51 50 48 48 48 47 47 46 46 46 47 48 49 49 49 48
46 48 50 52 54 55 55 61 66 68 73 76 80 82 83 84 84 82 80 76 71 67 63 60 57 55 52 52 52 51 52 54 53 51 49 47 46 47 48 48 47 45 44 44 45 46 47 46 46
49 50 51 52 55 59 62 63 70 73 77 81 82 82 81 79 75 72 69 65 61 57 54 52 51 50 49 49 51 51 53 52 50 49 47 45 44 45 46 47 47 46 44 44 44 45 45 44 43
50 51 52 54 58 62 66 71 74 76 79 79 77 75 71 66 63 62 62 61 57 53 50 48 48 47 47 48 51 53 53 52 51 50 48 45 44 44 45 46 47 45 44 44 43 43 43 42 40

GEFSSGP_500_meanwind_018.txt.gz
Wind_Speed
11 11 12 11 11 12 14 18 19 18 20 19 19 21 23 26 25 25 24 24 24 25 26 26 26 25 25 25 25 24 22 20 19 18 18 18 18 18 18 19 19 19 19 19 19 18 17 17 16
9 8 9 10 10 11 11 15 16 18 17 18 20 22 25 28 25 26 26 26 27 27 27 27 27 26 26 26 26 24 22 21 20 20 21 21 21 22 22 22 22 22 22 22 21 19 18 17 17
8 8 8 9 12 12 16 18 16 14 16 19 20 22 24 27 26 26 27 28 28 28 28 27 27 27 27 26 25 23 22 22 22 22 23 23 23 24 24 25 24 24 24 23 22 21 19 18 17
5 6 8 10 12 14 15 13 13 15 16 17 18 21 24 25 25 25 26 27 28 28 27 28 28 28 27 26 24 23 23 23 24 24 24 24 25 25 26 26 26 25 24 24 23 22 21 20 19
5 4 6 8 11 11 13 13 13 15 16 17 18 21 25 22 25 26 26 27 28 29 28 28 29 27 26 25 25 24 25 25 26 26 26 26 26 26 26 26 26 25 25 24 24 23 22 22 20
8 7 8 8 9 11 12 13 14 16 16 19 19 21 27 24 26 27 27 28 29 30 29 27 28 27 26 27 27 27 27 28 28 28 28 27 27 27 27 27 26 25 25 25 24 24 23 22 21
9 9 9 10 11 13 14 14 16 17 19 21 19 22 30 26 25 27 29 30 30 30 30 29 28 28 28 28 28 29 29 29 29 29 29 28 28 28 27 27 26 26 26 25 24 24 23 22 22
12 12 13 13 14 16 16 17 19 18 21 21 22 25 31 28 26 28 29 30 31 31 31 32 31 29 28 29 30 30 29 28 28 27 27 27 28 27 27 27 26 27 27 26 25 24 23 23 22
13 14 16 16 17 18 18 19 20 20 22 23 25 27 31 30 28 29 30 31 32 32 32 32 32 30 29 28 27 27 27 26 25 25 25 25 26 26 26 26 26 27 27 27 26 26 25 25 25
13 15 17 16 17 18 19 20 21 22 23 26 28 30 30 27 28 29 30 31 31 29 29 30 29 28 27 27 25 24 25 25 25 25 25 25 26 26 27 26 27 28 28 29 29 29 29 29 29
11 14 15 16 17 18 19 20 22 24 25 29 29 29 30 27 26 26 26 27 28 27 26 27 27 26 26 25 25 24 24 24 25 26 26 27 28 29 30 29 30 31 32 33 33 33 34 34 34
10 12 13 14 15 16 17 20 22 25 27 28 28 27 27 26 25 25 26 28 29 28 28 28 27 27 27 26 26 26 26 26 27 27 29 29 30 32 32 33 33 34 35 36 37 37 39 40 40
13 14 15 15 15 15 16 19 21 24 24 25 26 26 26 26 27 29 29 30 31 30 30 29 29 28 28 29 29 29 29 30 31 32 33 34 34 35 36 36 36 37 37 38 38 39 40 42 43
17 18 20 19 19 18 19 23 25 25 23 25 27 28 28 28 29 30 30 29 30 30 30 30 31 31 31 32 33 33 34 35 36 37 38 39 40 41 41 41 41 41 42 42 41 41 42 43 43
20 21 23 22 21 20 22 26 30 27 25 27 28 29 29 28 28 28 28 28 29 31 31 32 33 35 36 37 38 40 41 42 42 44 45 46 47 48 48 48 48 48 47 46 46 46 46 46 46
23 23 25 25 20 20 22 27 33 30 27 28 28 27 27 25 25 26 28 30 31 33 35 37 39 41 43 44 45 47 48 48 49 50 51 52 53 53 53 53 53 54 53 52 51 51 51 50 50
24 23 23 27 25 21 23 26 31 30 29 28 27 26 26 26 28 30 32 34 36 39 41 43 45 46 48 50 51 52 53 54 55 55 55 55 56 56 57 56 57 58 57 57 56 56 55 55 54
21 22 23 24 25 22 22 25 28 26 27 28 28 30 31 33 35 37 38 40 42 44 45 47 48 50 51 53 55 56 56 57 57 57 57 57 56 57 57 57 58 59 59 59 59 59 58 58 57
19 19 20 21 21 20 20 24 29 27 28 31 34 36 38 40 41 43 43 44 45 45 47 48 50 51 53 55 56 57 57 58 58 58 58 57 57 56 56 56 57 58 59 60 60 60 60 59 59
18 19 20 21 23 23 23 27 32 32 33 35 37 39 41 43 44 44 44 45 45 46 48 51 53 55 57 58 60 61 61 62 62 62 62 61 61 60 58 57 57 58 59 59 60 60 60 60 59
22 23 25 26 28 29 31 33 35 35 36 38 40 42 43 44 45 45 46 47 49 51 54 58 61 63 65 67 68 69 69 69 68 68 68 67 66 65 64 62 61 61 60 60 60 61 61 60 60
27 28 30 32 35 36 38 40 41 42 42 43 44 45 46 47 48 50 52 54 57 60 63 67 70 72 74 76 77 77 77 77 75 74 73 72 70 69 68 67 65 64 63 62 62 63 62 61 60
31 33 35 38 40 41 42 43 45 48 49 48 48 49 51 53 56 59 62 64 66 69 72 74 77 80 82 83 84 83 82 81 79 78 76 75 73 71 70 68 67 66 65 64 63 63 63 62 62
35 37 39 42 44 46 46 46 51 53 52 54 56 58 60 63 66 68 70 72 74 76 78 80 82 83 84 85 84 83 81 78 76 74 72 72 71 70 69 68 67 66 65 63 63 62 62 62 62
38 41 42 44 45 44 46 49 53 51 56 60 64 67 70 72 73 73 75 78 79 80 81 81 80 79 78 77 75 74 72 70 68 66 65 66 68 69 68 67 66 65 63 61 59 59 60 61 62
40 42 43 45 46 47 50 51 55 57 60 65 69 73 74 74 74 75 78 79 79 79 78 76 73 70 67 66 66 65 65 63 61 59 58 59 61 63 63 62 60 59 57 55 54 55 56 58 60
40 42 44 46 49 52 53 54 57 59 66 71 74 75 75 75 75 75 76 76 75 73 69 65 64 64 63 65 66 66 64 61 57 54 53 54 56 57 55 55 55 53 51 50 51 53 54 55 57
42 44 46 49 52 55 58 57 58 65 72 75 75 76 77 76 76 76 74 72 67 62 58 58 62 65 66 67 66 63 58 55 53 52 50 50 51 52 52 52 52 52 51 49 49 49 49 49 49
45 48 50 53 55 58 62 61 64 68 71 74 76 75 75 75 74 72 68 62 55 52 53 57 60 61 61 57 52 46 44 44 46 47 46 46 47 49 51 50 50 51 50 48 46 44 43 43 44
49 51 53 56 58 59 63 67 61 66 71 72 71 69 69 69 66 61 54 48 46 48 51 54 55 53 49 43 37 34 33 34 37 40 41 42 44 46 47 48 48 49 49 45 43 42 42 42 44

GEFSSGP_500_meanwind_024.txt.gz
Wind_Speed
9 9 10 12 14 16 17 17 18 17 16 17 18 20 21 23 23 22 21 21 21 21 21 21 22 22 22 22 22 22 22 23 23 22 22 21 21 21 21 21 20 20 20 19 19 19 19 19 19
7 8 10 12 13 16 17 18 18 15 15 16 18 20 20 21 22 23 22 20 21 21 22 23 24 23 23 23 23 23 24 24 24 23 23 23 23 22 22 22 22 22 22 22 21 21 21 21 21
5 7 9 10 12 13 15 15 14 13 14 15 16 18 19 19 20 22 23 22 22 23 24 25 25 24 24 24 24 24 24 25 25 24 24 24 24 24 24 23 23 23 24 23 23 23 23 23 22
1 4 7 9 10 11 12 11 10 11 12 13 14 16 18 18 18 20 23 23 22 24 25 26 25 25 25 25 25 25 26 26 26 26 26 26 25 25 25 25 25 25 25 25 24 24 24 23 23
0 1 4 5 7 9 10 8 9 10 10 11 13 16 18 19 18 18 20 22 22 23 24 26 26 26 26 27 27 27 27 27 27 28 28 28 28 28 28 27 27 27 27 27 26 25 25 24 24
1 2 4 6 7 8 7 6 9 11 12 12 14 17 19 20 19 20 21 22 24 24 25 26 28 28 28 29 29 29 29 30 30 30 30 31 31 30 30 29 29 29 29 28 28 27 27 26 26
4 5 7 9 10 8 6 7 9 13 15 16 18 20 22 22 20 21 23 25 27 27 27 27 29 30 31 31 31 31 32 32 32 32 32 32 32 32 31 31 30 29 30 30 29 29 28 28 27
7 7 8 9 10 10 10 11 13 16 19 20 21 23 25 25 23 23 26 29 30 30 31 32 32 33 33 34 34 34 34 34 34 34 33 32 32 31 31 30 29 29 29 30 29 29 28 27 27
7 8 8 9 11 12 13 15 16 18 21 23 24 25 27 28 27 27 28 30 31 31 31 33 33 32 33 33 34 35 35 35 35 34 33 31 30 29 29 28 27 28 28 28 28 27 27 26 26
6 6 6 8 10 12 14 15 17 19 21 23 25 26 27 28 28 28 29 30 31 30 30 30 31 31 31 31 32 33 33 34 35 34 33 32 31 30 29 28 27 27 27 27 27 27 26 26 26
6 6 7 7 9 12 15 17 17 18 19 21 23 26 27 28 28 28 28 28 29 30 29 29 30 32 33 32 32 32 33 34 35 35 35 34 33 32 31 30 30 30 30 30 30 29 29 29 29
8 8 9 10 12 14 17 19 19 19 19 19 21 23 25 26 28 29 30 30 30 30 31 31 32 34 35 36 36 35 35 36 36 37 37 37 36 35 34 33 33 32 33 33 33 33 32 32 32
11 12 13 15 17 19 21 21 21 21 21 22 23 24 25 27 29 31 33 34 35 35 34 34 34 36 37 38 38 38 37 37 38 38 38 38 38 38 37 36 36 36 36 36 36 36 36 36 36
14 15 16 17 18 19 21 23 23 22 22 22 22 23 25 27 28 31 33 35 36 36 36 35 35 37 38 40 40 40 40 40 40 40 40 41 41 41 41 41 40 40 40 40 40 40 40 40 40
13 14 14 14 15 17 19 20 21 20 20 20 20 21 23 25 27 29 31 34 36 38 38 38 38 39 40 41 42 43 44 44 44 44 45 45 45 45 45 45 45 45 45 45 45 45 45 45 45
12 13 13 12 13 15 17 18 19 20 20 21 22 23 25 27 29 31 33 36 39 41 43 44 44 45 46 47 47 48 49 50 50 50 50 51 51 51 51 51 51 51 51 51 51 51 50 50 50
13 13 14 15 17 18 20 21 21 21 22 24 26 28 30 32 34 36 38 40 42 44 46 48 49 50 51 51 52 53 54 55 55 56 56 57 57 57 57 57 57 57 57 57 57 57 56 56 56
13 15 16 18 19 22 23 24 26 26 27 28 30 32 34 35 38 40 42 44 45 47 49 50 51 52 53 53 54 56 57 58 58 59 60 61 61 61 62 62 62 62 61 60 61 61 60 60 60
14 16 18 19 21 23 26 27 28 30 31 32 33 35 37 39 41 43 45 47 48 49 50 51 52 53 54 55 57 58 59 60 61 62 64 64 65 65 65 64 64 64 64 63 63 63 62 62 62
16 18 20 22 24 26 29 30 31 33 34 36 38 41 44 46 47 48 49 50 51 52 54 55 57 59 61 62 63 64 65 66 66 67 68 69 70 70 70 70 69 68 68 67 67 66 65 64 64
19 21 22 24 26 29 32 33 35 37 39 42 45 49 52 54 56 56 57 58 59 59 60 61 62 64 65 66 67 69 70 71 72 72 72 73 74 74 75 75 75 74 74 73 72 71 70 68 67
22 24 26 28 30 33 36 39 40 43 46 49 52 55 58 60 62 65 67 68 68 68 67 66 66 67 69 71 72 74 74 75 75 75 75 75 76 77 78 78 79 79 78 77 77 76 75 74 72
24 26 29 31 34 37 40 44 46 48 52 55 58 60 62 65 68 71 73 74 74 74 73 72 72 74 75 77 77 77 77 76 76 76 76 76 77 78 79 80 81 81 81 81 80 80 79 79 77
27 30 33 36 39 42 45 49 53 55 58 60 63 65 67 70 73 74 75 76 77 78 78 78 78 79 79 79 78 76 73 71 69 69 70 71 72 73 76 78 79 80 80 81 81 81 81 81 80
29 33 36 41 44 46 50 53 57 61 64 66 68 70 71 73 74 74 75 77 78 80 80 81 81 80 78 74 68 62 58 56 56 57 59 61 64 67 69 71 73 73 73 74 74 75 76 77 78
34 37 41 44 47 50 53 58 63 66 68 69 71 72 72 73 73 75 77 78 80 81 81 80 77 73 67 58 51 46 45 46 48 50 53 56 59 62 65 68 69 69 67 65 62 63 66 67 68
38 42 45 48 53 56 58 62 67 69 71 71 70 70 70 72 73 75 77 79 80 79 76 71 64 55 47 41 38 38 39 40 43 45 47 48 49 50 53 56 60 61 60 57 56 56 56 56 55
42 46 49 53 56 59 62 66 69 71 70 68 67 67 68 70 72 74 74 74 71 66 59 52 44 38 35 33 34 34 36 37 40 40 40 40 39 39 38 39 44 49 51 50 50 52 51 51 51
45 48 53 56 58 61 65 68 71 69 65 63 63 64 66 68 67 66 63 59 54 49 44 39 35 32 31 31 31 32 34 36 37 37 36 35 35 34 33 33 35 39 45 49 49 50 50 49 49
48 52 55 58 61 64 67 70 70 65 62 62 62 63 62 61 58 55 51 48 45 41 37 33 31 29 29 29 30 31 33 34 35 35 34 33 32 31 30 29 31 36 40 46 49 50 51 50 49

GEFSSGP_500_meanwind_030.txt.gz
Wind_Speed
11 11 12 12 13 13 13 13 14 14 15 15 16 17 18 19 20 21 21 21 22 23 23 24 25 25 25 26 26 26 25 25 24 24 23 23 23 22 22 22 22 23 23 23 22 22 21 20 20
8 8 10 11 11 12 12 12 12 13 13 14 15 17 19 21 21 22 22 21 22 23 24 25 26 26 27 27 27 27 27 27 27 26 26 26 25 25 24 24 24 25 26 26 26 25 25 24 24
6 7 7 8 8 8 8 8 9 11 12 13 14 15 16 18 19 20 21 21 21 22 23 24 26 27 28 28 29 29 29 29 28 28 28 27 27 27 27 27 27 27 27 28 28 28 28 28 27
5 4 4 4 5 4 5 7 10 11 11 11 11 12 13 14 16 18 20 21 22 22 23 25 26 28 28 29 30 30 30 30 30 30 29 29 29 29 29 29 29 29 29 29 29 29 30 30 30
5 5 4 4 4 4 6 8 9 10 10 10 11 12 12 13 14 16 18 20 21 22 23 25 26 28 28 29 30 30 31 31 31 31 32 32 31 31 31 31 31 31 31 31 31 31 31 31 31
5 5 5 5 5 6 7 9 11 11 11 11 12 14 14 15 15 16 18 20 22 24 25 26 27 28 29 30 31 32 33 33 34 34 34 34 34 34 34 33 33 33 33 33 33 33 32 32 32
5 5 5 5 5 7 9 11 13 15 16 16 16 17 18 19 20 20 21 23 25 26 27 28 29 30 31 32 33 34 35 36 36 37 37 37 37 37 37 37 36 35 35 36 36 35 35 34 33
6 5 5 6 8 9 11 12 13 15 17 18 19 20 21 22 23 24 24 25 27 28 29 30 31 33 34 35 35 35 35 36 36 37 38 39 40 40 40 40 39 38 38 38 38 38 37 36 35
7 7 7 8 9 11 12 12 12 14 15 17 19 20 22 23 25 26 27 28 29 30 31 31 32 33 34 35 35 35 35 35 35 36 37 38 39 40 41 42 41 41 40 40 40 40 39 38 37
8 8 9 10 11 11 12 13 13 14 14 16 18 20 22 24 26 28 29 30 31 31 32 32 32 33 34 35 36 37 37 38 38 38 38 39 39 40 40 41 41 41 41 41 41 41 41 40 39
8 9 10 11 11 12 13 13 14 15 16 17 19 21 23 25 27 29 31 32 33 34 34 35 35 36 37 38 39 40 41 42 42 42 42 43 43 42 42 41 41 41 41 42 42 41 41 40 40
8 9 10 11 12 12 13 13 13 14 16 18 19 22 24 26 28 30 31 32 34 35 35 36 36 37 38 39 41 42 43 44 45 45 45 45 46 46 45 44 43 42 42 42 43 43 42 41 41
9 10 10 11 12 12 12 12 12 14 15 17 19 22 24 26 29 31 33 35 36 37 38 39 40 41 42 43 43 44 45 45 45 46 46 47 47 48 48 47 47 45 44 44 44 45 45 44 43
9 9 10 11 11 12 12 12 13 14 16 19 21 24 26 29 32 34 37 39 40 42 43 44 45 46 47 48 49 50 50 50 50 50 50 49 49 49 49 49 49 49 48 47 47 47 47 47 47
10 10 11 11 12 12 12 13 15 18 20 23 26 29 31 34 36 38 40 42 44 46 48 49 51 52 53 54 55 55 56 56 57 56 56 55 54 53 53 52 52 52 51 51 51 50 50 50 50
10 10 11 11 12 13 15 16 19 22 25 28 31 33 35 37 40 42 44 46 48 50 51 53 55 56 58 59 60 60 60 60 61 61 61 60 60 59 58 57 56 56 55 55 54 54 53 53 52
9 10 11 13 15 17 19 22 24 27 30 33 35 38 40 43 45 47 49 51 53 55 56 58 59 61 62 63 63 64 64 63 63 63 63 63 63 64 64 63 62 61 60 59 58 58 58 57 57
10 12 14 16 19 22 25 27 30 33 36 39 41 44 47 50 52 54 56 58 60 62 63 64 65 65 66 66 67 67 67 66 65 65 65 65 65 65 66 67 66 66 65 64 63 63 62 61 61
13 15 18 20 22 25 29 32 35 38 41 44 46 50 53 56 58 61 63 65 66 68 69 70 70 70 70 70 70 70 70 69 69 69 69 69 69 69 69 69 69 70 70 69 68 68 67 66 66
15 18 21 23 26 29 33 37 39 42 45 47 51 54 58 61 64 67 69 72 73 75 75 75 75 75 75 75 75 75 75 75 75 75 74 74 74 74 74 74 74 74 74 73 73 72 72 71 70
19 21 24 27 30 33 38 42 44 46 48 52 56 60 64 67 71 74 77 79 80 81 80 80 80 80 80 80 80 80 80 79 80 80 80 80 80 80 80 80 80 80 79 79 78 77 77 76 74
21 24 27 31 35 38 42 46 47 50 53 57 61 66 70 73 77 80 81 82 83 83 83 83 83 83 82 81 81 80 81 81 81 81 82 82 83 84 84 84 85 84 84 84 83 82 81 81 79
23 27 31 34 38 41 45 49 53 55 58 62 67 71 74 78 80 81 82 82 82 82 81 80 78 76 75 73 72 71 70 70 70 71 72 73 75 78 80 81 84 85 85 86 86 85 85 84 84
27 31 35 38 42 45 49 53 57 59 64 68 72 75 77 79 79 79 78 78 76 74 71 68 65 62 60 58 56 54 52 50 48 48 49 51 54 58 61 65 69 72 76 79 81 83 84 85 85
31 35 38 42 45 49 52 56 60 64 69 72 75 77 78 78 77 75 72 70 66 62 58 56 54 51 49 47 45 42 39 36 34 32 32 34 36 39 42 45 49 54 59 64 69 74 78 81 83
34 37 41 45 48 51 54 58 63 68 71 74 76 77 76 74 71 68 65 61 57 53 51 49 47 46 44 41 39 36 33 30 29 28 27 27 28 30 33 35 38 42 46 51 56 61 67 72 76
37 40 44 47 51 54 57 61 67 70 72 74 75 74 72 68 64 60 57 54 51 48 47 46 45 44 42 39 36 34 32 30 28 27 26 26 26 27 29 31 33 35 38 41 44 49 55 62 67
39 43 47 50 54 57 60 66 68 71 73 74 74 71 67 61 57 54 51 48 47 46 46 46 45 43 41 39 37 34 32 30 29 28 28 28 28 29 30 31 32 34 36 37 39 41 45 50 56
41 44 48 52 55 60 65 68 70 72 73 74 72 67 61 55 52 50 48 47 47 47 47 46 44 43 42 40 38 36 34 33 32 31 31 30 30 31 32 33 34 35 36 37 37 38 38 41 44
42 46 50 53 58 61 66 69 72 73 73 73 69 62 56 52 50 49 48 48 48 48 47 47 46 44 43 42 40 39 37 36 35 35 34 34 34 34 35 35 36 37 37 37 37 36 36 36 36

GEFSSGP_500_meanwind_036.txt.gz
Wind_Speed
3 3 3 3 4 5 6 8 9 10 11 11 12 13 14 16 17 18 17 17 17 18 19 21 23 25 26 28 29 30 30 30 30 30 29 28 28 27 26 25 24 24 24 25 25 25 25 24 23
2 2 1 1 1 2 3 4 5 6 7 8 10 11 12 13 14 14 14 14 14 15 16 18 20 23 25 27 28 30 30 31 32 32 32 31 31 31 30 29 28 27 27 27 28 29 29 28 27
6 5 5 5 3 2 1 1 1 4 6 8 9 10 10 10 11 11 12 13 13 15 16 18 20 22 24 26 28 29 31 32 33 33 34 33 33 33 33 32 32 31 30 30 30 31 31 32 31
9 8 7 5 5 4 3 2 3 4 5 7 8 9 10 11 11 12 13 15 16 18 19 21 22 23 25 27 28 30 31 33 34 35 35 35 35 36 35 35 34 34 33 32 32 32 33 34 34
10 10 8 6 6 5 5 5 5 6 6 7 8 9 11 12 14 15 16 17 19 21 22 24 25 27 28 29 31 32 33 34 35 36 37 37 37 37 37 37 37 37 36 35 35 35 35 35 36
10 8 7 6 6 6 6 6 6 6 7 8 9 10 12 14 15 17 18 20 22 23 25 27 29 31 32 33 34 35 36 37 38 39 39 40 40 40 40 40 40 40 39 38 38 38 37 38 38
9 8 8 8 7 7 6 6 7 8 9 10 11 12 14 15 16 18 19 21 23 24 26 28 30 31 33 34 36 37 38 39 40 41 42 43 43 44 44 43 43 42 42 41 41 40 40 40 40
10 9 9 9 8 7 7 8 9 10 11 12 13 15 16 17 18 19 21 22 24 25 27 29 31 32 34 35 37 38 39 40 41 42 43 44 45 46 47 47 46 45 44 44 43 43 43 43 42
10 10 9 7 7 7 7 8 9 10 12 13 14 15 17 18 19 21 22 24 26 27 29 31 32 34 36 37 39 40 41 42 43 43 44 44 44 45 46 46 47 47 47 46 46 46 45 45 44
9 8 7 7 7 6 6 7 8 9 11 12 14 16 18 20 22 24 26 28 30 32 34 36 37 39 40 41 43 43 44 45 46 47 47 47 47 47 47 47 47 46 47 48 48 48 47 47 47
8 8 8 7 8 8 8 8 9 10 11 13 16 19 21 24 26 29 31 34 36 38 40 42 44 45 46 47 49 49 50 50 51 51 51 51 51 50 50 50 49 49 48 48 48 49 49 49 49
8 9 9 9 9 10 10 11 11 13 15 18 20 22 25 27 30 33 35 38 40 43 45 47 49 50 52 53 54 54 55 56 56 56 56 56 55 54 54 54 53 52 52 51 51 50 50 51 51
10 10 10 10 10 11 11 13 14 16 18 21 23 26 28 31 34 36 39 42 44 47 49 52 54 56 57 59 60 61 61 61 62 62 62 61 61 60 59 58 57 56 55 55 54 54 53 52 52
10 9 9 9 10 11 13 15 17 19 21 24 27 30 32 35 38 41 44 47 50 53 55 58 60 62 64 65 67 68 68 69 69 68 68 67 66 65 64 63 63 61 60 59 58 58 57 56 55
8 7 8 9 11 13 15 17 19 22 25 28 32 34 37 40 43 46 49 52 55 58 61 64 66 68 70 72 73 74 75 75 76 75 75 74 72 71 69 68 66 66 64 63 62 61 60 59 58
7 7 9 11 13 15 18 19 23 27 30 33 36 39 42 45 48 52 55 58 61 65 68 70 72 74 76 77 78 79 80 80 80 81 80 80 79 77 75 73 71 69 68 67 66 65 64 63 62
7 9 12 14 16 19 22 25 28 31 34 37 39 43 47 50 53 57 60 64 67 70 73 76 78 80 81 81 81 80 80 80 80 81 82 83 82 82 80 78 76 74 72 71 70 69 67 66 65
9 12 15 17 20 23 27 29 32 35 37 40 44 48 51 55 59 63 66 70 73 76 78 80 82 82 81 80 78 77 75 74 74 75 77 80 82 84 84 82 80 78 76 74 73 72 71 70 68
13 16 18 20 24 27 30 33 35 38 41 45 48 52 57 62 65 68 71 74 76 78 80 80 79 77 74 71 68 64 62 60 59 60 64 68 73 78 82 84 84 82 79 78 76 75 74 73 72
16 18 21 24 27 30 34 36 37 41 45 48 53 58 62 67 70 72 74 76 78 78 78 76 72 68 64 61 57 54 52 49 48 48 49 53 58 65 73 80 83 85 84 81 80 78 77 76 75
19 22 25 28 30 32 38 39 40 44 48 53 58 62 67 70 73 75 76 78 78 76 73 69 63 59 56 53 51 49 47 46 45 45 44 44 46 50 56 65 74 81 85 85 84 82 81 79 78
22 25 28 30 33 36 39 44 44 48 52 57 62 67 70 73 75 76 77 76 74 71 66 60 56 53 52 51 49 47 46 44 43 42 41 41 41 42 44 49 57 67 76 82 85 86 85 83 81
24 27 30 33 36 39 42 46 49 52 57 62 66 70 72 74 75 76 76 74 70 65 59 55 52 52 51 50 49 48 47 45 43 41 40 39 38 38 38 40 44 51 60 70 77 83 86 86 85
26 29 33 36 40 42 45 49 53 56 61 65 69 72 74 75 75 75 74 70 66 60 55 53 52 53 53 52 51 51 49 47 45 43 41 38 37 35 35 35 36 39 45 54 63 71 78 84 86
27 31 36 41 44 45 47 50 56 60 64 68 71 73 74 75 75 74 70 66 61 57 54 54 55 55 55 55 54 53 51 49 47 44 42 39 36 35 34 33 33 34 36 41 48 57 64 72 79
28 31 35 40 43 46 49 53 59 63 67 70 72 74 75 75 74 71 67 63 59 57 56 57 58 58 58 57 56 54 52 51 49 47 44 41 38 36 34 33 32 33 33 35 38 43 50 57 65
29 33 36 39 44 49 53 57 61 66 69 71 73 74 74 73 71 68 65 61 59 59 59 60 60 59 58 57 55 53 52 50 49 48 46 44 42 38 36 34 33 33 33 34 35 37 40 44 50
30 34 38 41 46 52 56 61 64 67 70 72 73 74 74 72 68 66 63 62 62 62 62 61 60 59 57 55 53 51 49 48 46 45 45 44 43 41 39 37 35 34 34 34 35 36 37 39 42
31 34 38 42 46 52 58 63 65 68 71 73 73 73 72 69 66 64 64 64 63 63 62 60 59 56 53 51 49 48 46 45 44 43 42 42 42 42 41 40 38 37 37 36 36 36 37 38 39
31 34 39 44 50 54 59 64 67 69 71 72 73 72 70 67 65 65 65 64 63 62 61 58 55 52 50 49 48 47 47 46 45 44 43 42 41 41 41 41 41 40 40 39 39 38 38 39 39

GEFSSGP_500_meanwind_042.txt.gz
Wind_Speed
3 2 2 2 3 2 1 2 2 4 5 5 7 9 12 15 16 17 17 17 18 20 22 23 25 27 29 31 33 34 35 36 37 38 38 37 37 36 35 35 34 33 33 32 32 31 31 31 30
6 4 3 2 2 4 4 3 2 3 3 4 6 8 10 12 13 14 15 15 16 17 19 20 22 23 25 27 28 30 32 33 35 36 37 38 38 39 39 38 38 37 36 36 35 35 34 34 34
7 6 4 4 5 5 5 4 2 2 3 3 5 6 8 9 11 13 15 16 17 18 20 21 22 24 25 26 28 29 30 32 33 34 36 37 38 39 40 40 40 40 40 39 39 38 37 37 37
9 8 8 9 8 7 6 5 4 4 4 4 5 6 8 10 12 14 15 17 19 20 21 23 24 25 27 28 29 31 32 33 34 35 37 38 39 40 40 41 42 42 42 42 41 41 40 40 40
9 10 10 9 8 7 7 6 6 5 6 6 7 9 10 11 13 14 16 17 19 20 22 24 25 27 28 30 31 32 33 35 36 37 38 40 41 42 42 43 43 44 44 44 44 43 43 43 42
7 11 9 9 8 8 7 7 7 8 8 8 9 10 11 12 13 15 16 18 19 21 23 25 27 28 30 32 33 35 36 37 38 39 40 41 42 43 45 45 46 46 46 46 46 46 46 45 45
9 11 10 10 9 9 9 9 8 8 9 9 9 10 11 13 14 16 18 21 23 25 27 29 31 33 35 36 38 39 40 42 43 43 44 45 45 46 47 47 48 49 49 50 49 49 48 48 47
11 11 11 11 10 10 9 9 9 9 9 10 10 12 13 16 18 21 23 26 29 31 34 36 38 40 42 44 45 46 47 48 49 49 49 50 50 50 51 51 51 51 51 51 52 52 52 51 50
12 12 12 11 10 10 10 9 10 10 10 12 14 16 18 21 24 26 29 32 35 38 40 43 45 47 50 52 53 54 56 56 57 57 57 56 56 56 55 55 55 54 54 54 53 53 54 55 54
13 13 12 12 11 10 10 10 11 12 14 16 19 21 24 26 29 32 35 38 40 44 47 50 52 55 57 59 60 62 63 64 64 65 64 64 63 62 61 61 60 59 58 57 56 56 56 56 56
13 13 12 11 10 10 10 11 13 15 17 20 23 25 28 32 35 38 41 43 46 49 52 55 58 60 63 65 66 68 69 70 70 71 71 70 69 69 68 67 66 65 64 62 61 60 59 58 58
12 11 9 8 8 9 11 13 15 18 21 24 27 30 33 36 39 42 44 47 50 53 56 60 62 65 67 70 72 74 75 76 76 76 76 75 75 74 73 72 71 70 69 68 66 65 63 62 61
9 7 6 7 8 10 13 16 19 21 24 27 31 34 37 40 42 45 48 51 54 57 61 65 68 71 72 74 76 77 78 79 79 79 79 78 78 77 76 76 76 75 74 72 71 70 68 66 65
5 5 6 8 10 12 15 19 22 25 28 31 34 37 40 42 45 47 51 55 59 63 66 70 72 74 76 78 80 80 81 81 80 80 80 80 79 79 78 78 78 78 77 77 76 75 73 72 70
4 6 9 11 13 16 18 20 26 29 31 34 36 39 41 44 47 51 55 60 63 67 71 74 76 78 80 82 83 84 84 83 82 80 78 76 75 74 74 74 75 76 77 78 79 79 78 76 75
7 10 12 15 17 20 22 22 26 30 33 36 39 42 44 47 51 56 60 64 68 71 74 77 79 82 84 85 85 85 82 79 75 72 69 67 65 64 64 65 67 69 72 75 78 81 81 80 79
12 14 16 18 21 23 25 27 29 33 36 39 42 44 48 52 56 60 64 67 71 75 78 81 82 84 85 84 82 78 73 69 64 61 59 57 55 54 54 54 56 59 63 67 73 78 81 82 82
16 19 21 21 25 26 28 29 31 34 38 42 44 48 52 56 60 64 67 71 75 78 81 83 84 84 82 78 73 68 64 60 57 55 53 52 51 50 50 49 49 50 53 58 64 71 77 81 83
19 21 23 24 27 29 30 32 32 35 40 43 47 51 56 60 64 68 71 75 78 80 82 83 83 81 77 72 67 62 59 57 55 54 54 53 52 51 50 49 48 48 48 51 55 61 69 76 82
21 23 25 24 25 29 32 33 33 37 42 46 51 55 59 63 67 71 75 78 80 81 82 81 80 76 73 69 65 61 59 58 57 56 56 55 55 54 53 51 50 49 48 48 49 52 58 66 75
22 24 27 30 30 30 34 35 35 40 45 50 55 59 63 67 72 75 78 80 81 81 81 79 77 73 69 66 63 61 59 58 56 55 55 55 54 54 54 53 51 51 50 48 47 48 50 54 63
24 25 27 30 32 33 34 39 39 45 50 55 59 62 67 71 75 78 79 80 81 80 79 77 73 70 68 66 63 61 58 55 54 52 51 50 50 51 51 51 52 51 51 49 48 47 47 48 53
26 28 29 31 32 35 36 42 45 50 55 58 62 66 70 74 76 78 79 80 80 79 77 74 71 68 66 63 60 57 55 53 51 49 48 47 46 47 47 47 48 50 50 49 48 47 46 46 47
28 29 30 31 35 39 43 47 49 52 57 61 65 69 72 74 77 78 80 80 79 78 75 72 68 65 63 60 57 55 53 51 49 47 46 45 44 43 43 44 44 46 47 48 47 46 45 45 45
28 30 33 36 38 41 43 45 49 54 59 63 67 70 73 76 78 79 80 79 78 76 72 68 65 63 60 57 56 55 53 51 49 47 45 43 42 41 41 40 41 41 43 45 46 45 44 44 43
29 30 32 35 38 39 43 48 52 56 60 63 67 72 75 77 78 78 78 78 76 73 69 66 63 61 58 57 56 55 53 51 49 48 46 44 42 40 39 38 38 39 40 41 43 44 44 43 43
30 30 32 35 39 43 46 50 53 57 61 65 69 73 75 76 77 77 78 77 74 70 67 64 62 59 58 57 57 55 53 51 49 48 46 43 41 40 38 37 36 36 37 39 40 42 43 43 42
29 32 34 36 41 45 47 52 55 58 62 67 71 73 75 76 76 77 77 75 71 67 64 62 60 59 58 58 57 55 53 51 49 46 44 42 40 39 37 36 35 35 35 36 38 40 42 42 42
29 31 33 37 40 45 51 54 55 59 64 68 71 73 75 76 76 76 75 72 68 64 62 61 59 59 58 58 57 55 52 49 47 45 43 42 40 39 38 36 34 33 33 33 35 37 40 41 42
29 33 35 37 41 44 49 54 57 61 65 69 72 74 75 75 75 75 74 69 65 62 61 60 59 59 58 58 57 54 51 49 46 45 43 43 42 41 39 37 36 34 32 32 33 35 37 39 41

GEFSSGP_500_meanwind_048.txt.gz
Wind_Speed
3 4 5 5 6 5 7 8 7 4 2 4 6 8 9 8 8 8 8 8 10 11 13 14 16 17 19 20 22 24 25 27 29 31 33 35 38 40 41 43 44 45 44 44 42 41 40 39 38
9 8 8 8 9 7 8 9 10 6 3 1 3 6 7 8 8 9 10 10 11 13 14 16 17 19 21 22 24 25 26 28 30 31 33 35 36 38 40 42 43 45 46 47 47 46 45 43 42
12 12 11 12 12 12 11 10 9 6 3 1 3 5 6 8 9 10 11 12 13 15 16 18 20 22 23 25 26 28 29 30 32 33 34 36 37 38 40 41 43 44 45 47 48 49 49 48 47
14 14 12 13 13 12 12 11 8 6 4 2 3 5 6 8 9 11 12 14 16 18 20 23 25 27 29 30 32 33 35 36 37 38 39 39 40 41 42 43 44 45 46 47 48 49 50 50 50
14 14 12 13 13 12 11 11 8 6 5 4 4 6 7 9 12 14 16 18 21 23 26 28 30 32 34 36 37 39 40 41 42 43 44 45 45 46 46 47 47 47 48 48 49 50 51 51 52
14 13 13 13 13 13 12 11 9 7 6 6 7 8 10 13 16 19 21 24 26 28 31 33 35 37 39 40 42 44 46 47 48 49 50 51 52 52 52 52 52 52 52 52 52 52 52 53 53
14 13 14 14 14 13 12 11 9 8 8 9 11 12 15 17 20 23 25 28 30 32 34 37 39 41 44 46 48 50 52 54 55 57 58 58 59 59 59 59 59 58 57 57 56 56 55 55 55
15 15 15 14 13 12 11 10 9 8 9 11 13 16 18 20 23 26 28 31 34 36 38 41 43 46 49 52 55 57 59 61 63 65 66 66 67 67 67 67 66 65 64 63 62 61 60 59 59
15 15 14 13 11 10 9 9 10 11 12 14 17 19 22 24 27 29 32 35 38 40 43 46 49 52 55 57 60 63 65 68 70 71 73 73 74 74 74 74 73 72 71 69 68 66 65 64 63
14 13 11 10 9 8 8 10 12 14 15 18 20 23 26 28 31 34 36 39 41 44 47 50 53 56 59 62 64 67 69 72 74 76 77 78 79 79 79 79 79 78 77 76 74 72 70 69 68
11 9 8 7 7 8 10 12 14 17 19 21 24 27 29 31 34 36 39 42 45 48 51 54 57 61 63 66 69 71 74 76 78 80 81 82 83 84 84 84 84 83 82 81 79 77 75 74 72
7 6 6 7 8 10 13 15 17 19 21 24 26 28 31 34 37 40 43 46 49 52 56 59 61 64 67 70 73 76 78 81 83 84 85 87 87 88 88 88 89 88 87 85 84 82 80 78 77
4 5 7 9 11 13 16 19 21 22 24 26 28 30 33 36 39 43 46 49 52 55 58 61 64 68 71 74 77 79 82 84 86 87 88 90 91 91 91 91 90 90 90 89 87 86 84 82 81
6 8 11 13 14 17 19 23 25 26 27 29 30 32 34 37 40 44 47 51 54 57 61 64 68 72 75 78 81 83 85 87 88 89 89 89 88 87 86 84 83 82 83 84 84 84 84 84 84
10 12 15 17 18 19 21 23 26 27 29 29 31 32 35 38 42 46 50 53 57 61 65 69 73 76 80 82 85 87 88 89 88 86 84 81 79 77 76 74 73 72 72 73 75 78 80 81 83
14 16 19 21 22 22 23 24 26 28 29 31 33 35 38 42 46 49 53 57 61 66 70 74 77 80 83 85 87 88 88 86 82 79 75 72 70 68 67 65 64 64 64 65 66 68 72 75 78
17 18 21 23 24 23 24 25 28 30 32 34 36 39 42 46 49 53 57 61 66 71 75 78 81 83 85 87 87 86 83 80 76 72 69 66 64 63 61 61 60 60 60 61 62 63 65 69 73
19 19 21 23 24 25 26 27 29 32 34 36 38 42 45 49 52 56 61 66 71 75 78 81 83 85 86 85 83 79 75 72 69 67 64 61 59 58 57 56 56 57 58 59 61 61 62 64 66
23 23 24 25 27 27 27 28 29 33 36 38 40 44 47 51 56 61 66 70 74 78 81 83 84 85 85 82 78 73 69 67 64 63 61 59 57 56 55 53 53 53 54 56 58 60 61 62 63
25 25 25 26 27 27 27 27 29 33 36 39 42 46 50 55 60 65 69 74 77 80 82 83 85 85 82 78 74 70 67 65 63 61 59 58 56 54 52 50 49 49 51 53 55 58 60 61 62
25 25 26 26 27 28 29 27 30 34 37 41 45 49 54 58 63 68 72 76 79 80 82 83 84 82 78 74 70 66 64 62 60 58 56 54 52 50 48 46 45 45 46 48 51 54 57 59 61
24 25 26 26 27 29 31 32 32 36 40 44 48 52 56 61 66 71 74 76 78 80 82 83 81 78 75 71 68 66 64 61 59 56 53 51 48 46 44 43 42 42 42 43 45 49 53 56 59
25 26 26 26 27 28 31 33 36 39 43 47 51 54 59 64 68 71 74 76 78 80 81 81 78 75 72 69 67 65 64 61 58 55 51 48 45 44 42 40 39 39 38 39 41 43 47 52 56
25 26 26 26 27 29 32 35 38 42 45 49 52 56 61 66 69 71 74 76 78 79 80 78 75 72 69 67 66 64 63 60 56 53 49 45 43 41 40 39 37 37 36 36 37 39 42 46 52
24 26 27 29 30 32 35 37 40 43 47 50 54 58 63 66 68 71 74 76 77 78 78 75 73 70 68 66 65 63 61 58 56 52 49 45 43 41 40 39 38 37 36 35 35 36 37 41 46
24 26 28 31 33 33 34 38 41 45 48 52 56 59 63 67 70 73 74 76 77 78 76 73 70 68 66 65 63 62 60 58 56 53 50 47 44 42 41 40 40 39 37 36 35 35 35 37 40
25 26 28 31 34 35 37 40 43 47 50 53 56 60 65 68 71 73 74 76 77 76 74 71 68 66 65 63 62 61 59 58 55 53 51 48 47 45 45 44 43 42 40 38 37 36 35 35 37
25 28 30 32 36 39 40 41 45 47 50 54 58 62 66 69 71 73 74 76 76 74 71 69 67 65 64 62 61 60 59 57 56 54 52 50 50 49 49 48 47 46 44 42 39 38 37 36 35
25 27 29 31 34 39 43 43 45 48 51 55 59 64 67 69 71 73 74 75 74 72 69 67 65 63 62 61 60 60 59 58 57 56 54 54 53 52 52 51 50 48 46 45 43 41 39 37 36
25 27 29 32 35 38 42 44 46 49 52 56 60 64 67 70 71 72 73 73 72 69 67 65 63 62 61 60 60 59 59 58 58 57 56 56 56 55 55 54 51 48 46 45 45 44 41 39 37

GEFSSGP_500_meanwind_054.txt.gz
Wind_Speed
4 3 3 2 3 3 3 5 6 5 4 2 2 3 4 5 7 9 10 11 13 14 15 17 18 19 21 22 23 24 25 26 28 29 29 30 31 31 32 33 34 35 37 38 40 42 44 45 46
5 4 4 3 2 2 1 0 1 1 3 4 5 6 8 9 11 12 13 14 15 17 18 20 21 23 24 26 28 29 30 32 33 34 35 35 36 36 36 37 37 37 38 39 40 41 43 45 47
6 6 5 5 5 6 5 5 6 6 7 8 9 10 10 11 12 13 15 17 18 20 22 24 26 28 29 31 33 34 36 37 38 39 40 41 42 43 43 43 43 43 43 42 42 42 43 44 46
8 8 8 8 8 9 8 9 9 10 10 10 10 10 11 12 14 16 17 19 21 23 25 28 30 32 34 35 37 39 40 42 43 45 46 47 48 49 49 49 50 50 49 49 48 47 47 46 47
11 10 10 10 10 10 10 10 10 10 10 9 10 11 13 15 17 18 21 23 25 27 29 32 34 36 38 40 42 44 45 47 48 50 51 52 53 54 55 55 56 56 55 55 55 54 53 52 51
11 11 11 10 10 10 10 10 9 9 9 10 11 13 15 18 20 22 24 27 29 31 33 36 38 41 43 45 47 48 50 52 54 55 57 58 59 60 61 61 61 61 61 61 60 60 59 58 57
12 12 11 11 11 10 9 9 9 9 10 12 14 16 18 21 23 25 28 30 32 35 37 40 43 45 47 49 51 53 55 57 59 60 62 63 65 66 67 68 68 68 68 67 66 65 65 64 63
12 12 11 10 9 8 8 9 10 12 13 16 17 19 22 24 27 29 31 33 36 39 41 44 46 49 51 54 56 58 60 62 64 66 68 69 70 72 73 74 74 75 75 74 74 73 71 69 68
11 10 9 8 7 7 9 11 13 16 18 20 22 24 26 28 30 32 34 37 39 42 45 48 50 53 56 58 61 63 66 68 70 72 73 75 76 77 78 79 80 81 81 81 80 79 78 76 74
8 7 6 6 7 9 12 14 17 19 21 23 25 27 29 31 33 35 37 40 42 45 48 51 54 57 59 62 64 67 69 72 74 76 78 79 81 82 83 83 84 85 86 86 86 86 85 83 81
6 5 7 9 11 14 16 19 21 23 25 26 28 30 32 33 35 37 40 42 45 48 51 54 57 60 62 65 68 70 73 76 78 80 82 84 85 86 87 88 89 89 90 90 91 91 90 89 87
5 7 10 13 15 18 20 23 25 26 27 29 31 32 33 35 38 40 42 45 48 51 54 57 60 63 66 68 71 74 77 79 82 84 86 87 88 89 90 91 92 92 92 93 94 94 94 94 94
8 11 14 17 19 22 24 26 27 29 30 31 32 33 35 37 40 42 44 47 50 53 56 59 63 66 69 72 75 78 81 83 85 87 88 89 90 91 91 91 90 89 89 89 90 91 92 94 95
13 15 18 20 22 24 25 27 28 29 30 31 32 34 36 39 41 44 46 49 52 55 59 62 66 69 73 77 80 82 85 87 88 89 90 90 89 88 86 83 81 79 79 79 80 81 83 85 88
17 19 21 23 24 25 26 26 27 28 29 30 31 34 37 40 43 45 48 51 54 58 62 66 70 74 78 81 84 86 88 89 90 89 87 85 83 80 77 75 73 72 72 71 72 72 74 76 79
20 22 23 24 25 26 26 26 26 27 28 29 31 34 38 41 44 47 50 53 57 61 66 70 74 78 81 84 87 88 89 88 87 84 82 79 76 74 72 70 68 67 66 66 66 66 67 68 71
21 22 24 25 25 25 26 25 26 27 28 30 32 35 39 42 45 49 52 56 60 65 70 74 77 81 84 86 87 88 87 85 82 79 76 74 71 69 68 66 64 62 61 60 60 60 61 63 65
21 22 23 24 24 24 24 25 26 28 29 31 34 37 40 44 47 51 55 59 64 69 73 77 80 83 85 86 86 85 83 80 77 75 73 70 68 65 63 61 58 56 54 53 52 53 54 56 59
21 22 22 23 23 23 24 24 26 28 30 33 36 39 43 46 50 54 58 63 68 72 75 79 81 83 85 85 84 82 79 76 74 72 69 67 64 62 59 57 54 52 50 49 48 47 47 49 52
21 21 22 22 22 23 23 24 27 29 32 35 38 42 45 49 53 57 61 66 70 73 77 80 82 84 85 84 83 80 76 74 71 69 67 64 62 59 56 54 52 50 47 46 45 45 43 44 46
20 20 21 22 22 23 24 24 28 31 34 37 40 44 48 51 55 59 64 68 71 74 77 80 82 84 84 82 80 76 73 70 68 65 63 61 59 57 55 53 51 49 47 45 43 42 41 40 42
20 20 21 22 23 24 27 27 29 33 36 39 43 46 50 54 57 61 65 69 72 75 78 81 82 83 82 80 77 74 71 69 66 64 61 59 58 57 55 53 51 49 47 46 44 42 41 40 39
20 20 21 22 23 24 27 30 32 36 38 42 45 48 52 55 59 63 66 70 73 75 78 81 82 82 80 77 74 72 70 67 65 62 60 58 57 56 55 54 53 51 49 48 46 45 43 41 39
20 20 21 22 23 25 28 32 35 38 40 44 47 50 53 57 60 64 67 70 73 76 78 80 81 80 77 74 72 70 68 66 63 60 58 57 56 56 56 55 54 52 51 50 49 48 46 43 41
21 22 23 24 25 28 31 33 37 39 42 45 48 51 54 57 61 64 67 70 73 76 78 79 79 77 75 72 71 69 67 65 62 60 58 58 58 57 57 56 55 54 53 52 50 49 48 46 43
22 23 25 27 28 28 31 34 37 40 43 46 49 52 55 58 62 65 67 70 73 75 77 78 78 75 73 70 68 67 65 63 61 60 60 61 60 60 59 57 55 54 52 51 49 48 48 47 45
22 24 26 28 30 31 33 36 38 42 44 47 49 52 55 59 62 65 68 70 72 75 76 77 76 73 71 69 67 65 64 62 61 60 61 62 62 61 61 59 57 55 52 48 44 42 43 44 44
23 25 27 30 33 36 36 37 40 42 45 47 50 53 56 59 62 65 68 70 72 74 75 75 74 71 69 67 65 64 62 62 61 61 62 62 63 63 62 61 58 54 49 44 39 36 37 38 41
24 26 28 29 32 36 39 37 41 43 45 47 50 53 56 59 62 65 67 69 71 73 74 74 72 69 67 65 63 62 61 61 61 61 63 63 64 64 63 60 56 52 47 41 35 30 28 30 34
26 27 29 31 32 34 38 38 42 43 45 47 50 53 56 59 62 65 67 69 71 72 73 72 70 67 65 63 62 61 61 61 61 61 63 64 65 65 63 60 55 50 46 42 35 27 21 20 25

GEFSSGP_500_meanwind_060.txt.gz
Wind_Speed
5 5 5 5 4 4 4 4 4 4 4 4 4 4 5 5 6 6 7 9 10 12 14 16 18 20 22 24 26 28 29 31 32 34 35 36 37 38 38 39 40 40 40 40 41 41 41 42 44
9 9 9 8 8 7 7 7 7 6 6 5 4 4 4 5 7 8 10 12 14 16 18 20 22 24 26 28 30 32 33 35 36 37 39 40 41 42 43 44 44 45 45 45 45 45 45 45 45
13 13 12 11 10 9 9 8 8 7 6 5 5 5 7 8 10 12 14 16 18 20 23 25 26 28 30 32 34 36 37 39 40 42 43 44 45 47 47 48 49 49 50 50 50 50 50 50 50
14 14 13 12 11 10 9 9 8 7 6 6 7 9 10 12 14 16 18 20 23 25 27 29 30 32 34 36 38 39 41 43 45 46 48 49 50 51 52 53 54 54 54 55 55 55 55 55 55
15 14 13 12 11 10 9 8 6 6 7 9 11 12 14 16 18 21 23 25 27 29 30 32 34 36 37 39 41 43 45 47 49 51 53 55 56 57 58 59 60 60 61 60 60 60 60 60 59
14 13 12 11 10 9 8 7 7 9 11 13 15 17 18 20 22 24 26 28 29 31 33 35 36 38 40 43 45 47 50 52 54 56 58 60 62 63 65 66 67 67 67 67 67 66 66 65 64
13 12 11 9 8 8 8 9 10 12 14 16 19 20 22 23 25 26 28 30 31 33 35 37 39 42 44 47 49 52 54 57 59 62 64 67 69 71 72 73 74 75 75 75 75 74 73 72 70
11 9 8 7 7 8 10 11 13 15 17 19 21 22 24 25 26 28 29 31 33 34 37 39 42 45 48 50 53 56 59 62 65 68 71 73 75 77 79 80 81 81 82 82 81 81 80 79 77
7 6 6 6 8 10 12 14 16 18 20 22 23 24 25 26 27 28 30 32 34 36 39 42 45 48 51 54 57 60 63 67 70 73 75 78 80 82 84 85 87 87 87 87 87 86 85 84 83
4 4 6 8 11 13 15 17 19 21 22 23 24 25 25 26 27 29 31 33 36 38 41 45 48 51 54 57 60 64 67 70 73 76 79 82 85 87 89 90 91 92 92 92 92 92 91 90 89
4 6 9 12 14 17 18 20 22 23 23 24 24 25 26 27 29 30 32 35 38 41 44 47 51 54 57 60 64 67 71 74 77 80 84 87 90 92 93 94 94 94 94 94 94 94 95 94 94
8 11 13 16 18 20 21 23 23 24 24 24 25 25 26 28 30 32 34 37 40 43 47 50 53 57 60 64 67 71 74 78 81 85 89 92 93 95 95 94 94 92 91 91 90 90 91 93 94
12 15 17 19 20 22 23 23 24 24 24 25 25 26 28 29 31 34 36 39 43 46 49 53 56 59 63 67 71 74 79 83 87 91 93 95 95 94 92 89 86 84 83 82 82 82 82 84 86
16 18 19 20 21 22 22 23 23 24 25 25 26 27 29 31 33 36 38 42 45 48 52 55 58 62 66 70 74 78 83 87 91 93 94 93 91 87 83 80 77 75 74 74 73 73 74 75 76
18 19 20 20 21 21 21 22 23 23 24 25 26 28 30 32 35 38 41 44 47 50 54 57 61 65 69 73 77 81 86 89 92 92 90 87 82 78 74 72 71 69 68 67 67 66 67 67 68
19 19 19 20 20 20 21 21 22 23 24 25 27 29 31 34 36 39 42 45 48 52 55 59 64 68 72 76 80 84 88 90 90 88 84 79 75 72 70 68 66 65 64 63 62 61 61 61 62
18 18 19 19 19 20 20 21 22 23 24 26 28 30 33 35 38 40 43 46 50 53 57 61 66 70 74 78 82 86 88 89 87 82 77 73 71 69 67 65 64 62 61 60 59 59 59 58 58
17 17 18 18 18 19 19 21 22 23 25 27 29 31 34 36 39 42 44 48 52 56 60 64 67 71 75 79 83 86 87 86 82 77 73 70 68 66 64 63 61 60 59 59 58 58 57 57 56
16 16 16 17 18 18 18 20 22 23 25 28 30 32 34 37 40 43 46 50 54 58 62 65 69 73 76 80 83 85 85 82 78 74 70 68 66 64 62 61 60 60 59 59 59 58 56 55 55
14 15 15 16 17 17 18 20 23 24 26 28 30 32 35 38 41 45 48 52 56 59 63 67 70 74 77 81 83 84 82 78 74 70 68 66 64 62 61 61 61 61 60 60 59 57 55 54 54
14 14 15 16 16 17 18 20 23 25 27 28 31 34 36 39 43 46 50 54 57 61 64 68 71 74 78 81 82 82 79 76 71 68 65 64 63 61 61 62 62 61 61 60 58 57 56 54 53
13 14 15 16 17 18 20 20 24 26 27 30 32 35 38 41 44 48 52 55 59 62 65 68 72 75 78 80 81 79 76 72 69 65 64 63 62 61 62 63 62 62 61 60 58 57 56 54 52
13 14 15 16 17 19 21 22 25 27 29 31 34 36 39 42 46 49 53 56 59 63 66 69 72 75 78 79 80 77 74 70 67 64 63 62 61 62 63 63 62 61 60 59 57 55 52 50 48
13 14 15 16 17 19 23 25 27 28 30 33 35 38 40 44 47 50 54 57 60 63 66 69 72 75 77 78 78 75 72 68 65 63 62 61 61 62 63 63 62 60 59 57 55 52 48 45 42
13 15 16 18 19 21 24 26 27 29 31 33 36 39 42 45 48 51 54 57 61 64 67 69 72 74 76 77 76 73 70 66 64 62 61 61 61 62 63 62 61 60 58 56 53 49 44 39 36
14 16 18 20 21 20 23 26 28 30 32 35 37 40 43 46 49 52 55 58 61 64 66 69 71 73 75 75 74 71 68 65 63 62 61 61 61 62 63 62 61 59 57 54 51 48 43 37 32
14 16 18 20 21 22 24 27 30 32 34 36 38 41 44 47 50 53 56 58 61 64 66 69 71 72 73 73 72 70 67 64 62 61 61 61 61 62 62 62 60 58 56 53 49 46 42 37 30
15 17 19 22 25 27 27 30 33 35 37 38 40 42 45 48 51 54 56 59 61 64 66 68 70 72 72 72 70 68 65 63 61 60 60 60 61 61 62 62 60 57 55 51 47 44 41 36 28
15 17 20 23 25 29 31 33 35 37 38 40 42 44 46 49 52 54 57 59 61 64 66 68 69 71 71 71 69 67 64 62 61 60 60 60 60 60 61 61 59 57 54 49 46 42 39 33 26
15 17 20 23 25 27 30 33 36 38 40 42 44 46 48 50 52 55 57 59 62 64 66 67 69 70 70 70 68 66 63 61 60 59 59 59 59 60 60 60 59 57 54 50 45 41 36 31 23

GEFSSGP_500_meanwind_066.txt.gz
Wind_Speed
9 9 9 9 8 8 7 5 5 5 5 6 6 6 7 8 9 9 11 11 13 14 16 18 20 21 23 25 26 28 30 31 33 35 36 38 39 41 42 43 44 44 45 46 46 47 47 47 47
12 12 12 11 10 10 8 7 6 6 6 6 6 7 8 9 11 12 14 15 17 19 20 22 23 25 26 28 29 31 32 34 36 38 39 41 42 44 45 46 47 48 49 50 50 51 51 51 52
14 13 12 11 11 11 8 7 7 6 6 7 7 9 10 12 14 15 17 19 20 22 23 25 26 27 28 30 31 33 35 36 38 40 42 44 45 47 49 50 51 52 53 54 54 55 55 55 56
14 13 12 11 11 9 8 7 7 7 7 8 9 11 13 15 17 18 20 22 23 24 25 26 27 28 30 31 33 35 37 39 41 43 45 47 49 51 53 54 56 57 58 59 60 61 61 61 60
13 12 12 11 9 8 7 6 6 7 9 10 12 14 17 18 19 21 22 23 24 24 25 26 28 29 31 33 35 37 39 41 44 46 48 51 53 56 58 60 62 64 65 66 67 68 68 68 67
11 9 11 9 7 6 6 7 8 10 12 14 15 17 19 20 21 22 22 23 24 25 26 27 29 31 33 35 38 40 42 45 47 50 53 56 59 62 64 67 69 71 73 74 76 76 76 76 75
9 7 8 7 6 6 8 10 12 13 15 17 18 19 21 20 21 22 22 23 24 26 27 29 31 33 35 38 40 43 46 49 52 55 58 61 64 68 71 74 76 79 81 82 84 85 85 85 84
6 5 5 6 7 9 11 13 15 17 18 20 20 19 20 21 21 21 22 23 25 27 29 31 33 36 38 40 43 46 49 52 56 59 62 66 69 73 76 80 84 87 89 91 93 94 95 95 94
4 5 7 9 11 13 15 17 18 20 20 21 20 19 19 20 21 21 23 25 27 29 31 33 35 38 40 43 46 49 52 56 59 63 66 70 74 77 81 85 89 93 96 99 101 103 104 104 103
6 8 11 13 15 16 18 19 20 20 20 19 19 19 19 20 21 23 25 26 28 30 33 35 37 40 43 46 49 52 56 59 62 66 70 73 77 81 86 90 95 99 102 104 106 106 106 105 105
9 12 15 17 18 19 19 20 20 19 18 18 18 18 19 21 23 25 27 28 30 32 35 37 40 42 46 49 52 55 58 62 65 69 73 77 81 86 90 95 99 102 103 103 101 98 96 95 95
13 15 17 19 19 19 19 19 18 18 17 16 16 18 20 22 24 26 28 30 32 34 37 39 42 45 48 51 54 57 61 64 68 72 76 80 85 89 94 97 99 99 97 92 87 84 81 80 79
16 18 18 19 19 18 18 17 16 16 16 16 17 19 21 24 26 28 30 32 34 36 39 42 44 47 50 53 56 59 63 67 70 74 79 83 88 92 95 96 95 91 84 78 73 70 68 67 67
17 18 18 17 17 16 16 15 15 15 15 17 18 21 23 26 28 30 32 34 36 38 41 44 47 49 53 55 58 61 65 69 72 77 82 86 90 92 93 92 86 79 73 69 67 65 63 62 62
17 17 16 16 15 14 14 14 15 15 16 18 20 22 25 27 29 32 34 36 38 41 43 46 49 51 54 57 60 63 67 70 75 79 84 88 90 91 90 85 78 73 69 67 65 64 62 61 61
16 15 14 14 13 14 14 12 14 16 17 20 22 25 27 29 32 34 36 38 41 43 45 48 51 53 56 58 62 65 69 72 77 81 86 88 89 88 84 78 73 70 67 66 65 64 64 63 63
14 14 12 11 13 14 15 14 14 18 19 22 25 27 29 32 34 36 38 40 43 45 47 49 52 54 57 60 64 67 70 74 79 83 86 87 87 84 78 74 70 67 66 66 65 65 65 64 63
13 13 13 13 13 15 16 17 16 19 22 24 27 29 31 33 35 37 40 42 44 46 49 51 53 56 59 62 65 68 72 76 80 83 85 85 83 79 75 71 68 66 66 66 65 64 64 64 64
13 13 13 14 14 15 16 18 18 20 23 26 28 31 32 34 36 39 41 43 45 48 50 52 54 57 60 63 66 69 73 77 80 83 84 83 80 76 72 68 66 66 66 66 64 64 64 62 63
12 12 13 13 15 16 17 19 20 22 24 27 29 31 33 35 37 39 42 44 46 49 51 53 55 58 60 63 67 70 73 77 80 82 82 80 76 73 70 67 66 66 66 65 64 64 63 61 61
10 12 13 13 13 15 17 18 20 21 24 27 29 31 33 36 38 40 43 45 48 50 52 54 56 58 61 64 67 71 74 77 80 81 80 78 74 71 68 66 66 65 65 64 63 63 61 59 56
9 10 11 13 14 14 16 17 18 21 24 26 28 31 34 36 39 41 43 46 48 51 53 55 57 59 61 65 68 71 74 77 79 80 78 75 72 70 67 66 65 64 64 63 62 61 59 58 55
8 9 10 11 12 14 16 17 17 21 23 26 28 31 34 37 40 42 44 47 49 52 53 55 57 60 62 65 68 71 74 77 79 79 76 73 70 68 66 65 64 64 63 62 61 59 57 56 54
7 8 9 10 11 12 14 17 19 21 24 26 29 32 35 38 41 43 46 48 51 53 55 57 59 61 63 66 69 72 74 77 78 77 75 71 69 67 65 64 63 63 63 61 59 57 55 54 51
7 7 8 9 10 12 15 17 19 22 25 27 30 33 36 39 41 44 47 50 53 55 57 59 60 62 64 67 69 72 74 76 77 76 73 70 67 65 64 63 62 62 62 60 58 56 54 52 48
8 8 9 10 11 13 14 16 18 21 24 27 31 34 37 40 43 46 49 52 54 57 60 61 62 63 65 68 70 72 74 76 76 75 72 69 67 65 63 63 62 61 61 59 57 55 53 50 47
10 10 10 11 12 13 15 17 18 22 25 28 31 35 38 41 44 47 50 53 56 59 62 64 65 65 66 68 70 72 74 75 75 74 71 68 66 64 63 62 61 61 60 58 56 54 52 49 45
12 12 12 13 15 16 17 20 23 25 27 29 32 35 38 42 46 49 52 54 57 60 63 66 67 67 67 69 71 72 74 75 74 73 70 67 65 63 62 61 60 60 59 57 55 53 51 48 44
14 14 14 16 17 19 20 21 24 26 29 31 34 37 40 43 47 51 53 56 59 61 64 67 69 69 69 69 71 72 73 74 74 72 69 67 65 63 61 61 60 59 58 56 54 52 50 47 43
17 16 17 17 19 20 22 23 25 27 29 32 35 38 41 44 48 51 55 57 60 62 65 67 70 71 71 70 71 72 73 74 73 71 69 66 64 63 61 60 59 58 58 56 54 51 49 46 42

GEFSSGP_500_meanwind_072.txt.gz
Wind_Speed
6 7 7 7 8 9 9 9 9 9 8 7 7 7 7 7 7 8 9 11 12 13 14 16 17 18 19 19 20 21 23 24 25 26 28 29 31 32 34 35 36 37 39 40 41 42 43 44 45
8 9 10 10 10 10 10 9 9 8 6 6 7 7 8 9 10 11 12 13 14 15 16 17 18 18 19 20 21 23 24 25 27 28 30 31 33 34 36 37 39 41 42 44 45 46 48 49 50
11 11 12 11 11 9 9 8 7 6 6 7 8 9 10 11 12 13 14 14 15 16 16 17 18 19 20 21 22 24 25 27 28 30 32 33 35 37 39 41 42 44 46 48 49 51 52 54 55
12 11 11 10 9 8 8 7 6 6 7 9 10 11 13 13 14 14 14 15 15 16 17 18 19 20 21 23 24 26 27 29 30 32 34 36 38 40 42 44 46 48 50 52 54 56 58 60 61
11 10 9 8 7 7 7 7 7 8 10 11 13 13 14 14 14 14 15 15 16 16 18 19 20 21 23 25 26 28 29 31 33 35 37 39 41 43 45 48 50 53 55 58 60 63 65 67 68
9 8 7 6 6 7 7 8 9 10 12 14 15 15 14 14 14 14 14 15 16 18 19 20 22 24 25 26 28 29 31 33 36 38 40 42 44 46 49 52 55 58 60 63 66 69 72 74 76
7 6 5 5 7 8 9 10 12 13 13 14 15 15 14 14 14 14 15 16 18 20 21 22 24 25 27 28 30 32 34 36 38 40 43 45 47 50 53 56 59 63 66 69 72 76 79 82 85
4 4 5 7 9 10 10 11 13 13 13 14 14 14 13 13 14 15 16 18 20 21 23 24 25 27 28 30 32 34 37 39 41 43 45 48 50 53 56 60 63 66 70 73 78 82 85 89 92
4 5 8 10 12 13 12 12 13 13 12 12 13 12 13 13 14 16 18 20 21 23 24 25 27 29 31 33 35 37 40 42 44 46 48 51 53 56 59 62 66 69 73 77 82 86 90 94 97
7 8 10 11 13 13 13 12 12 12 11 10 11 12 13 14 15 17 20 21 23 24 25 27 29 31 33 35 37 40 42 44 46 48 51 53 56 59 61 65 68 72 76 80 85 89 94 97 100
10 11 12 12 12 13 12 11 11 11 10 10 10 11 13 15 17 18 20 22 24 25 27 29 31 33 35 37 40 42 44 46 48 50 53 55 57 60 63 66 70 74 78 83 87 92 95 97 98
13 13 13 13 12 12 11 10 10 10 11 11 12 13 14 16 18 19 21 23 25 27 29 31 33 35 37 39 42 44 46 48 50 52 54 56 59 62 65 68 72 76 81 85 89 92 93 93 92
13 14 13 13 12 11 10 10 9 10 11 12 14 15 16 17 18 20 21 23 26 28 30 32 34 36 38 41 43 45 47 49 51 53 55 57 59 62 65 69 74 78 82 86 88 89 89 87 83
13 13 13 12 11 9 9 9 9 10 11 12 14 15 16 18 19 20 22 24 26 29 31 33 35 37 39 41 43 45 47 49 51 53 55 57 60 63 66 71 75 79 83 85 86 86 84 81 76
13 13 12 11 9 8 9 10 9 9 10 11 13 14 16 17 19 21 23 25 27 29 31 33 34 36 39 41 43 45 47 49 51 53 55 58 60 64 67 71 76 80 82 84 84 82 79 75 71
12 12 11 10 9 8 8 10 10 9 10 11 13 14 16 17 19 21 23 25 27 29 31 33 34 36 39 41 43 45 47 49 51 53 56 58 61 64 68 72 76 80 81 82 80 78 74 71 69
11 10 10 10 9 8 8 9 11 10 10 11 13 14 16 17 19 21 23 25 27 29 31 33 35 37 39 41 44 46 48 50 52 54 56 59 62 65 69 73 77 79 80 80 78 74 71 69 68
11 10 9 9 9 9 8 8 10 10 10 11 12 14 16 17 19 21 23 25 27 29 32 34 36 38 40 43 45 47 49 51 53 55 57 60 63 67 70 74 77 78 78 77 75 71 69 68 67
11 10 9 9 8 8 8 9 9 9 10 11 12 14 15 17 19 22 24 26 28 30 33 35 37 39 42 44 47 49 51 53 55 57 59 61 64 68 71 74 77 77 76 74 72 69 68 67 66
12 11 10 9 9 8 9 9 10 10 10 11 13 14 15 17 19 22 24 27 29 31 33 36 38 41 43 46 48 51 53 55 57 58 60 63 66 69 72 75 76 76 74 72 70 68 67 65 65
13 12 11 10 10 10 10 10 11 11 12 13 14 15 16 18 20 22 25 27 30 32 35 37 40 42 45 47 50 52 55 57 59 61 62 64 67 70 72 75 75 74 72 70 68 67 67 64 62
14 14 13 12 11 11 12 12 12 13 13 14 15 16 18 19 21 23 25 28 31 33 36 39 42 44 47 49 52 54 57 59 61 62 64 66 68 71 73 75 74 73 71 69 67 66 66 64 60
16 15 15 14 14 13 14 14 14 15 15 16 17 19 20 21 22 24 26 29 32 35 37 40 43 46 49 51 54 56 59 61 63 64 65 67 69 71 73 74 73 71 69 67 66 65 64 63 60
17 17 17 17 17 16 16 17 16 17 18 19 20 21 22 23 24 26 28 31 33 36 39 42 45 48 51 53 55 58 60 62 64 66 66 68 70 71 73 73 72 70 68 66 64 64 63 61 59
19 19 19 19 19 19 19 19 18 19 20 21 22 23 24 26 27 28 31 33 35 38 41 43 46 49 52 55 57 59 62 64 66 67 68 68 70 71 72 72 71 68 66 65 63 62 61 60 57
20 21 22 23 22 21 22 22 21 22 22 23 24 26 27 28 29 31 33 35 37 40 42 45 47 50 53 56 58 61 63 65 67 68 69 69 70 71 71 71 69 67 65 63 62 61 60 59 56
22 22 24 25 25 25 25 24 23 24 25 26 27 28 29 30 31 33 35 37 39 42 44 46 49 51 54 57 59 62 64 66 68 70 70 70 70 71 71 70 68 66 64 63 61 60 59 57 55
24 24 25 27 28 29 28 27 26 26 28 29 30 30 31 33 34 35 37 39 42 44 46 48 50 52 54 57 60 62 65 67 69 71 71 70 70 71 70 69 68 65 63 62 60 59 58 57 55
25 26 27 29 31 32 32 28 29 29 30 31 32 33 34 35 37 38 40 42 44 46 48 50 52 53 55 58 60 63 66 68 70 71 72 71 70 70 70 68 67 65 62 60 59 58 57 56 54
27 28 29 31 33 34 36 31 30 32 33 34 34 35 37 38 39 41 42 44 46 48 50 51 53 54 56 58 61 63 66 68 70 71 72 71 70 70 69 68 66 64 62 60 58 57 56 55 53

GEFSSGP_500_meanwind_078.txt.gz
Wind_Speed
5 5 5 4 5 5 6 6 5 4 3 2 2 3 4 5 6 7 8 9 10 11 12 13 14 15 16 16 17 18 19 20 20 21 22 23 24 24 25 26 27 28 29 30 30 31 32 33 34
8 8 7 7 6 6 5 5 4 3 2 2 3 5 6 8 9 9 10 11 12 12 13 14 15 16 16 17 18 20 21 21 22 23 24 25 26 27 28 29 30 31 32 33 33 34 35 36 37
9 8 8 7 6 5 4 4 3 2 3 4 6 7 9 10 10 11 11 12 12 13 14 15 15 17 18 19 20 21 22 23 24 24 25 27 28 29 31 32 33 34 35 35 36 37 38 39 40
9 7 6 6 5 4 3 3 4 5 6 8 9 10 11 11 11 11 11 12 13 13 14 15 17 18 19 20 21 22 23 24 25 27 28 29 30 32 33 34 35 36 37 38 39 40 42 43 44
6 5 5 4 4 4 5 6 7 9 10 10 11 12 12 12 12 11 12 12 13 14 15 17 18 19 20 21 22 24 25 26 27 29 30 31 33 34 35 36 37 38 39 41 42 43 45 46 47
4 3 3 3 4 6 7 9 10 11 12 12 12 13 13 12 11 11 12 13 14 15 16 18 19 20 21 23 24 25 26 28 29 30 32 33 34 36 37 38 40 41 42 43 45 47 48 49 51
2 2 3 5 7 8 10 11 12 13 13 13 13 12 12 12 11 12 12 13 15 16 18 19 20 21 22 24 25 26 27 29 30 32 33 34 36 37 39 40 41 43 44 46 48 49 51 53 54
2 4 6 8 9 11 12 13 14 14 14 13 12 11 11 11 12 13 13 15 16 17 19 20 21 22 23 24 26 27 28 30 31 32 34 35 37 38 39 41 43 44 46 48 50 52 53 55 57
5 8 10 11 12 13 14 15 15 15 14 13 12 11 11 12 13 14 15 16 17 18 20 21 22 23 24 25 26 28 29 30 32 33 34 36 37 39 41 42 44 46 48 50 51 53 55 57 60
9 10 13 14 15 15 15 16 15 15 14 12 12 11 12 13 14 15 16 17 18 19 20 21 23 23 24 26 27 28 30 31 33 34 36 37 39 40 42 44 46 47 49 51 53 55 57 59 61
11 13 15 16 16 16 15 16 15 14 13 12 12 12 13 14 15 16 17 18 19 20 21 22 23 24 25 26 28 29 31 32 34 35 37 38 40 42 43 45 47 49 50 52 54 56 58 60 63
14 15 16 16 16 16 15 15 14 13 13 12 13 13 14 14 15 16 17 18 19 20 21 22 24 25 26 28 29 30 32 34 35 37 38 40 42 43 45 46 48 50 51 53 55 57 59 62 64
16 16 17 17 17 16 15 13 13 13 12 13 13 13 14 14 16 17 18 19 19 20 22 23 25 26 27 28 30 32 33 35 37 38 40 41 43 44 46 48 49 51 52 54 56 58 60 63 66
17 17 17 17 17 16 15 13 13 13 13 13 13 13 14 15 16 17 18 19 20 21 22 24 25 27 28 29 31 33 34 36 38 39 41 42 44 45 47 49 50 51 53 55 57 59 61 64 67
18 18 18 18 17 16 15 14 14 13 13 14 13 13 14 15 16 17 18 19 20 21 23 24 26 27 29 30 32 34 35 37 39 40 42 43 45 46 48 50 51 53 54 56 58 61 63 65 68
19 19 18 18 17 17 16 14 16 14 14 14 14 14 15 16 16 17 18 19 20 22 23 24 26 27 29 31 33 35 36 38 40 41 43 45 46 48 49 51 53 54 56 58 60 62 65 67 70
20 19 19 19 18 18 17 14 18 15 15 15 15 16 16 17 17 18 19 20 21 22 23 25 26 27 29 31 33 35 37 39 41 43 44 46 48 49 50 52 54 56 58 59 62 64 66 68 71
21 20 20 21 20 19 18 15 18 18 16 16 17 17 17 18 18 19 20 21 22 23 24 25 27 28 30 32 34 36 39 41 43 44 46 48 49 51 52 53 55 57 59 61 63 66 68 70 72
22 22 21 22 23 21 20 18 18 20 17 18 18 18 19 20 20 21 22 23 24 25 26 27 28 30 31 33 35 38 40 42 44 46 48 50 51 53 54 55 57 59 61 63 65 67 69 72 74
23 23 23 23 24 24 22 19 20 21 20 20 20 20 21 22 22 23 24 25 26 27 28 29 30 32 33 35 37 39 42 44 46 48 50 52 53 55 56 57 59 61 63 65 67 69 71 73 75
24 25 24 25 25 26 25 21 21 23 21 21 22 22 23 23 24 25 26 28 29 29 30 32 33 34 36 37 40 42 44 46 48 50 52 53 55 56 58 59 61 63 65 67 68 70 72 74 76
25 26 27 27 27 26 27 24 18 23 22 23 23 24 25 25 26 27 28 30 31 32 33 34 36 37 39 40 42 45 47 48 50 52 54 55 57 58 60 61 63 65 67 68 70 72 73 74 75
27 28 28 28 28 27 27 28 20 23 24 25 25 25 26 27 28 30 31 32 33 35 36 37 38 40 42 44 45 47 49 51 52 54 56 57 58 60 61 63 64 66 68 70 71 73 74 75 75
28 29 30 29 29 28 27 29 24 25 25 26 27 27 28 29 31 32 33 35 36 37 39 40 41 43 45 46 48 50 51 53 55 56 57 59 60 61 62 64 66 67 69 71 72 73 74 75 74
28 30 31 32 30 29 29 29 25 27 27 28 29 29 30 32 33 35 36 37 39 40 42 43 44 46 48 49 51 52 54 55 57 58 59 60 61 63 64 65 66 68 70 72 72 73 74 74 73
29 30 32 35 34 32 30 30 25 28 29 30 31 32 33 34 36 37 39 40 42 43 44 46 47 49 50 52 53 55 56 57 58 60 61 61 62 64 65 66 67 69 71 72 73 73 73 73 72
30 30 32 35 37 36 33 31 26 27 29 31 32 34 35 37 39 40 42 43 45 46 47 49 50 52 53 55 56 57 58 59 60 61 62 63 64 65 66 67 68 70 71 72 72 72 73 72 71
31 32 33 35 39 40 37 32 28 28 30 31 34 36 38 41 42 44 46 47 48 49 51 52 53 55 56 57 58 59 60 61 62 62 63 64 65 66 67 67 68 70 71 72 72 72 72 71 70
31 32 34 37 39 42 43 35 29 31 32 35 37 39 42 45 47 48 49 50 51 52 53 55 56 57 58 59 60 60 61 62 63 63 64 65 65 67 67 67 69 71 71 72 72 71 71 70 69
33 33 35 37 40 42 45 41 31 33 36 39 42 45 47 48 49 50 51 52 53 54 55 57 57 58 60 61 62 62 63 64 64 64 65 65 66 67 67 68 69 70 71 71 71 70 70 69 68

GEFSSGP_500_meanwind_084.txt.gz
Wind_Speed
8 8 8 7 7 6 5 4 4 3 3 2 1 1 2 3 4 5 6 7 7 8 8 8 9 9 9 10 10 11 12 13 14 15 16 16 17 18 18 19 20 21 22 23 24 24 25 25 26
10 9 8 8 7 6 4 3 3 2 1 1 3 4 5 6 7 7 8 8 8 8 9 9 9 10 10 11 11 12 13 14 15 16 17 18 18 19 20 21 22 23 23 24 25 26 26 27 28
10 9 8 7 6 4 3 1 1 1 3 4 6 7 8 8 8 9 9 9 9 9 9 10 10 11 12 12 13 14 15 16 16 17 18 19 19 20 21 22 23 24 25 26 26 27 28 29 30
8 8 6 5 4 2 1 1 2 4 5 6 8 9 9 9 9 9 9 9 10 10 10 11 11 12 13 13 14 15 16 16 17 18 19 19 20 21 22 23 24 25 26 27 27 28 29 30 31
6 5 4 2 1 1 2 4 5 7 8 9 10 10 10 10 10 9 9 10 10 10 11 11 12 13 13 14 15 15 16 17 18 18 19 20 21 22 23 24 25 26 27 27 28 29 30 31 32
3 2 1 2 3 5 6 7 8 9 10 11 11 11 11 10 9 9 10 10 10 11 11 12 12 13 14 14 15 16 16 17 18 19 20 20 21 22 23 24 25 26 27 28 29 30 31 32 33
0 2 3 4 6 7 9 10 10 11 12 12 12 11 11 10 9 10 10 10 11 11 12 12 13 13 14 14 15 16 17 18 19 19 20 21 22 23 24 25 26 27 28 29 30 31 32 32 34
3 4 6 7 9 10 11 12 12 13 13 12 12 11 11 10 10 10 10 11 11 11 12 12 13 14 14 15 16 16 17 18 19 20 21 22 23 24 25 26 27 28 29 30 31 32 33 34 35
6 7 9 10 11 12 13 13 13 13 13 12 12 11 11 10 10 10 10 11 11 12 12 13 13 14 15 16 17 17 18 19 20 21 23 24 25 26 27 28 29 30 31 32 33 34 35 36 37
8 10 11 13 13 14 14 14 14 14 14 13 11 12 11 11 10 10 11 11 12 12 12 13 13 14 15 16 17 18 19 21 22 23 24 26 27 28 29 30 32 33 34 35 36 37 38 39 40
11 12 14 15 16 15 15 15 15 15 14 13 12 12 12 12 11 11 11 11 12 12 13 13 14 15 16 17 18 19 20 22 23 24 26 27 28 30 31 32 34 35 36 37 38 39 40 41 42
13 14 16 16 17 17 16 16 15 16 15 13 13 13 13 12 12 12 12 12 13 13 14 14 15 16 17 18 19 20 21 22 24 25 27 28 30 31 33 34 35 37 38 39 40 41 42 43 44
15 16 18 18 18 18 17 17 16 17 15 14 14 14 14 14 13 13 13 13 13 14 15 16 16 17 18 19 20 21 22 23 25 26 27 29 31 32 34 36 37 39 40 41 42 43 44 45 46
18 18 19 20 20 19 18 17 18 18 16 16 16 16 15 15 15 15 15 15 15 16 16 17 18 19 19 20 21 22 23 24 25 27 28 30 32 34 36 37 39 41 42 43 44 45 46 47 48
19 20 20 21 21 20 18 16 20 19 18 17 17 17 17 17 17 17 17 17 18 18 19 19 20 21 21 22 23 24 25 27 28 29 31 32 34 36 38 40 41 43 45 46 47 48 49 49 50
21 21 21 22 22 21 19 15 21 21 20 19 19 19 19 19 19 20 20 20 20 20 21 22 22 23 24 25 26 27 28 30 31 32 34 35 37 39 40 42 44 46 47 49 49 50 51 52 53
21 22 22 24 24 22 21 16 20 24 22 21 21 21 21 21 21 22 23 22 23 23 23 24 25 25 26 27 28 30 31 32 34 35 37 38 40 42 43 45 46 48 50 51 52 53 53 54 54
22 22 22 25 25 23 21 18 20 26 24 22 23 23 23 23 24 25 24 25 25 25 26 27 27 28 29 30 31 33 34 36 37 38 40 41 43 44 46 47 49 50 52 53 54 55 56 56 56
24 24 24 25 26 24 22 20 21 25 26 24 24 25 24 24 26 26 26 27 27 28 29 29 30 31 32 33 34 35 36 38 40 41 43 44 46 47 49 50 52 53 54 55 56 57 58 58 58
25 25 25 25 26 26 23 20 22 25 25 25 25 25 26 26 27 27 28 28 29 30 31 32 32 33 34 36 37 38 39 41 43 44 46 48 49 50 51 53 54 55 56 57 58 59 59 60 60
24 26 26 26 26 25 25 18 21 24 25 25 26 26 27 27 28 29 29 30 31 32 33 34 35 36 37 39 40 41 43 44 46 48 49 51 52 53 54 55 56 57 58 59 60 60 60 61 61
25 26 27 27 26 25 25 22 20 22 25 26 26 27 28 28 29 30 31 32 33 35 36 37 38 39 40 42 43 44 46 47 49 50 52 53 54 55 56 57 59 59 60 60 60 61 61 61 61
26 26 26 26 26 24 24 24 22 22 24 26 27 28 28 29 30 32 33 34 36 37 38 40 41 42 44 45 47 48 49 50 52 53 54 56 57 58 58 59 61 61 61 61 62 62 61 62 62
26 27 27 26 25 24 23 23 24 24 25 26 28 29 29 30 32 33 35 36 38 39 41 42 43 44 46 48 49 51 52 53 54 55 57 58 59 60 60 61 63 62 62 63 63 63 62 62 62
26 27 29 28 26 24 24 23 24 27 28 29 29 30 31 32 33 35 36 38 39 41 43 44 46 47 49 51 52 53 54 56 56 58 59 60 60 61 62 63 64 63 64 64 64 64 63 62 63
26 27 29 31 30 27 24 22 24 28 30 32 32 33 33 33 35 36 38 39 41 43 44 46 47 49 51 53 54 55 56 57 58 59 60 61 61 62 63 64 65 65 65 65 64 64 63 64 64
27 28 30 32 33 31 27 23 24 29 31 33 34 35 35 36 38 39 41 42 44 44 46 47 49 50 52 54 55 55 57 58 59 60 61 61 62 64 65 65 65 65 65 65 64 64 64 64 65
28 29 31 33 36 37 34 28 29 30 32 34 37 38 38 39 41 42 43 44 45 46 47 48 50 51 52 54 55 56 57 58 59 60 61 62 64 65 66 66 66 66 66 65 65 64 64 64 65
28 30 32 34 36 39 41 35 32 35 38 40 41 41 42 42 42 43 44 45 46 47 48 49 50 51 52 54 55 56 57 58 59 61 62 64 65 65 66 66 67 66 66 65 64 64 64 64 64
30 31 33 36 38 40 44 41 35 40 43 45 45 45 45 45 46 46 46 47 47 48 49 50 51 53 54 55 56 57 58 59 61 62 64 66 66 67 67 68 67 66 65 65 64 64 64 63 63

GEFSSGP_500_meanwind_090.txt.gz
Wind_Speed
4 4 5 4 4 4 3 2 1 1 1 2 2 3 4 5 6 6 7 7 7 8 9 9 10 11 11 11 12 12 13 13 14 14 14 14 14 14 14 15 15 16 17 17 18 19 19 20 21
5 5 5 4 3 2 2 0 1 1 3 4 5 6 7 7 9 9 9 9 9 9 10 11 11 11 12 12 12 13 13 13 14 14 14 14 14 14 15 16 16 17 18 19 20 20 21 22 22
5 5 4 3 2 2 1 2 3 3 5 6 7 9 9 9 11 11 11 10 10 10 11 11 11 12 12 12 12 12 13 13 13 13 14 14 14 15 16 17 17 18 19 20 21 21 22 23 23
4 4 3 1 1 1 2 4 5 6 8 9 10 10 11 12 11 12 12 11 10 10 11 11 11 11 12 12 12 12 12 13 13 13 14 14 15 16 16 17 18 19 19 20 21 22 22 23 24
3 2 0 1 2 4 5 6 7 9 10 11 12 12 12 14 12 12 12 11 11 11 11 11 11 11 11 12 12 12 12 13 13 13 14 14 15 16 16 17 18 19 20 20 21 22 23 23 24
0 1 3 4 4 6 7 8 10 11 12 13 13 14 13 15 13 13 13 12 12 11 11 12 11 11 11 12 12 12 12 13 13 14 14 15 15 16 17 18 19 20 20 21 22 23 24 24 25
3 4 6 7 7 9 10 11 12 13 14 15 15 14 13 15 13 13 13 13 12 12 11 12 12 12 12 12 12 13 13 13 14 14 15 16 16 17 18 19 20 21 21 22 23 24 25 26 27
5 6 8 9 10 11 12 13 14 15 15 16 16 15 13 15 14 14 14 13 13 13 12 12 12 12 12 12 13 13 13 13 14 15 15 16 17 18 19 20 21 22 22 23 24 25 26 27 28
7 8 9 11 12 13 14 15 16 16 17 17 17 15 13 14 15 14 14 14 14 13 13 12 13 13 13 13 13 13 14 14 14 15 16 16 17 18 19 20 21 22 23 24 25 26 27 28 29
9 10 11 13 14 15 16 17 17 16 17 18 17 15 14 14 15 15 15 15 15 15 14 14 14 14 14 14 14 15 15 15 15 16 16 17 18 19 20 21 22 23 24 25 26 27 28 29 31
12 12 14 15 16 17 17 18 18 18 18 19 17 16 15 16 16 16 16 16 16 16 16 16 16 16 16 16 16 17 17 17 17 18 18 19 20 21 22 23 24 25 26 27 28 30 31 32 33
14 15 16 17 18 18 18 19 19 19 20 18 17 17 15 17 17 17 17 18 18 18 19 18 18 18 18 18 18 19 19 19 20 20 21 22 23 23 24 25 27 28 29 30 31 33 34 35 36
16 17 18 19 19 19 19 19 19 20 21 19 19 19 17 18 18 19 19 20 20 21 21 21 21 21 21 21 21 21 22 22 23 24 24 25 26 27 28 29 30 31 32 33 35 36 37 38 39
17 18 19 20 20 19 19 19 21 22 21 20 20 20 20 19 20 21 21 22 23 23 23 24 24 24 24 24 25 25 25 26 27 28 28 29 30 30 31 32 33 35 36 37 38 39 41 41 42
20 20 20 21 21 20 19 18 24 24 22 21 21 22 21 21 22 22 24 24 25 25 26 26 27 27 27 27 28 28 28 29 30 31 32 33 33 34 35 36 37 38 40 41 42 43 44 45 46
20 21 21 22 21 20 20 18 26 26 24 22 23 23 23 23 24 25 26 27 27 27 27 28 29 30 30 31 31 31 31 32 33 34 35 36 37 38 39 39 40 42 43 44 46 47 48 49 50
21 21 21 23 23 21 21 20 25 28 26 24 24 25 25 25 25 26 27 28 29 29 29 30 30 32 33 34 34 34 34 35 36 37 37 39 40 41 42 43 44 45 46 48 49 50 51 52 53
20 21 21 22 24 24 24 23 24 27 27 26 25 26 26 26 27 27 27 28 29 30 31 32 33 34 36 36 37 37 38 38 39 39 40 42 44 45 46 47 48 49 50 51 53 53 54 55 56
20 21 20 21 22 22 24 25 25 26 27 27 27 27 27 27 28 28 28 29 30 31 32 33 35 36 38 38 39 40 40 41 41 42 43 45 47 48 49 50 51 53 54 54 56 57 57 58 59
21 21 21 21 22 23 23 25 26 26 26 26 26 27 27 27 28 28 28 29 31 32 33 35 36 37 39 40 41 42 43 43 44 45 47 49 50 52 53 54 55 56 57 58 59 60 60 61 61
20 21 21 21 20 22 22 23 26 26 26 26 26 26 27 27 28 29 29 30 31 32 34 36 37 38 39 41 43 44 45 46 47 49 51 52 53 55 56 57 59 60 60 61 62 63 63 63 63
20 21 22 22 21 20 22 21 26 27 26 26 26 26 27 27 28 29 30 31 32 33 35 36 38 39 40 42 44 46 47 48 49 52 53 54 56 58 59 61 62 63 63 64 64 65 65 65 65
21 21 22 22 22 21 22 22 24 27 26 27 27 27 28 28 29 29 30 32 33 34 35 37 39 40 42 44 45 47 49 50 52 54 55 57 58 60 61 63 64 65 66 66 66 66 66 66 66
22 22 23 23 23 22 22 23 24 27 27 28 29 29 29 30 30 31 31 32 34 35 36 38 40 42 44 46 48 50 51 53 55 56 58 60 61 62 63 64 65 67 67 68 68 68 68 68 67
23 24 25 25 24 24 24 25 26 29 30 31 31 31 31 31 31 32 33 34 36 37 38 40 42 44 46 48 50 52 53 55 57 58 60 62 63 63 64 65 66 67 67 68 69 69 68 68 68
24 25 27 28 28 26 24 24 26 31 33 34 33 32 32 32 34 35 36 37 37 38 40 41 43 45 47 49 50 52 54 56 57 59 61 62 63 64 66 67 67 67 67 68 69 69 69 69 69
25 26 27 29 31 31 28 27 28 31 35 36 37 36 34 34 35 36 37 37 39 40 41 43 45 46 48 50 52 53 55 57 58 60 62 63 64 66 67 68 68 68 68 69 70 70 70 70 70
26 27 29 30 33 35 33 30 31 34 36 37 39 38 36 35 36 37 38 39 40 42 43 44 46 48 49 51 53 55 56 58 59 61 62 63 64 65 67 68 68 69 69 70 71 71 71 71 71
25 27 29 32 33 37 38 34 33 35 36 38 38 38 37 38 39 40 41 42 43 43 45 46 48 49 51 52 54 55 56 58 59 61 62 63 65 66 67 68 70 71 71 71 71 71 71 71 71
28 28 30 33 35 36 39 38 34 37 39 39 40 41 41 42 42 43 44 44 45 46 48 49 50 51 53 54 55 57 58 59 60 61 63 64 65 66 68 69 70 70 70 69 69 68 69 69 68

GEFSSGP_500_meanwind_096.txt.gz
Wind_Speed
1 1 1 1 1 1 1 2 2 2 2 0 0 1 2 3 3 4 6 6 6 6 7 7 8 8 8 9 9 10 10 11 12 12 12 13 13 13 13 13 14 14 14 15 15 16 16 16 17
2 2 2 1 1 1 1 2 2 1 0 1 2 3 4 5 5 6 7 8 8 8 9 9 9 9 9 9 10 10 11 11 11 11 12 12 12 12 13 13 14 14 15 15 16 16 17 17 17
2 2 2 1 1 1 0 1 1 0 1 2 3 5 6 7 7 7 9 10 10 10 10 10 10 10 10 10 10 10 10 10 11 11 11 12 12 13 13 13 14 14 15 15 16 16 17 17 18
2 1 1 1 2 2 2 2 1 2 3 4 5 6 9 9 9 9 10 11 11 11 10 10 10 10 10 10 10 10 10 11 11 11 12 12 12 13 13 13 14 14 15 15 16 17 17 18 18
1 1 2 3 4 5 4 4 4 4 5 6 7 7 10 11 10 9 10 11 12 12 11 11 10 10 10 10 10 11 11 11 11 12 12 12 12 13 13 13 14 14 15 16 16 17 18 18 19
1 2 3 4 5 6 5 5 6 6 7 8 8 9 11 13 12 10 10 11 12 13 12 11 11 11 11 11 11 11 11 12 12 12 12 12 12 13 13 14 14 15 16 17 17 18 18 19 19
3 4 4 5 6 7 7 8 8 9 9 10 10 10 12 13 12 11 11 12 13 13 13 12 12 12 12 12 12 12 12 12 12 12 12 13 13 13 14 14 15 15 16 16 17 18 18 19 20
5 6 6 6 7 8 9 10 11 11 11 11 11 11 12 13 13 13 12 12 13 14 14 13 13 13 13 13 13 13 13 13 13 13 13 14 14 14 15 15 15 16 16 17 18 18 19 20 21
7 8 9 9 9 10 11 12 13 13 13 13 12 12 12 13 14 14 14 13 14 15 15 15 15 15 14 14 14 14 14 14 14 15 15 15 16 16 16 17 17 17 18 19 19 20 21 21 22
9 10 11 12 12 12 13 14 14 14 15 14 13 13 13 15 15 15 15 14 15 15 16 16 16 16 16 16 17 17 17 17 17 17 18 18 18 19 19 19 20 20 21 21 22 23 23 24 25
12 13 13 14 14 14 14 15 16 16 16 15 15 15 15 16 17 17 16 16 16 17 18 19 19 19 19 19 19 19 20 20 20 20 21 21 21 22 22 23 23 24 24 25 26 26 27 28 28
14 15 15 16 16 16 16 17 18 18 17 16 16 16 16 17 18 18 18 18 18 19 20 21 21 21 22 22 22 23 23 23 23 24 24 25 25 26 26 27 27 28 28 29 29 30 31 31 32
16 17 17 17 17 17 17 19 19 19 17 17 17 17 17 17 18 19 19 20 21 21 22 22 22 23 24 24 25 26 26 27 27 27 28 28 29 29 30 30 31 31 32 33 33 34 35 35 36
16 17 18 18 18 17 18 20 20 18 18 18 18 18 18 18 19 20 21 22 22 23 23 24 24 25 26 27 28 29 29 30 30 31 31 32 32 33 33 34 35 35 36 36 37 38 38 39 40
16 16 18 19 18 18 18 21 21 19 18 18 19 19 18 19 20 20 21 22 23 24 24 25 26 27 27 29 30 31 32 32 33 34 35 35 36 36 37 37 38 39 40 40 41 42 42 43 44
16 16 17 19 18 17 18 19 22 20 19 18 19 19 19 19 20 21 22 23 23 24 25 25 26 27 28 30 31 32 34 35 36 37 37 38 39 40 40 41 42 43 43 44 45 46 46 47 48
15 16 17 18 18 17 17 17 20 20 19 19 18 18 18 19 19 20 22 23 24 24 25 26 27 28 30 31 32 34 35 36 38 39 40 41 42 43 44 44 45 46 47 47 49 50 50 51 52
14 15 17 18 18 18 18 18 18 18 18 19 18 18 18 18 19 20 21 22 23 24 24 26 27 29 31 32 33 35 36 37 38 40 41 42 44 45 47 47 48 50 50 51 52 53 54 54 56
14 14 15 17 17 17 18 18 17 17 17 18 18 19 18 18 18 19 20 22 23 24 25 26 27 29 31 33 34 36 37 38 39 40 42 44 46 48 49 50 51 52 53 54 55 56 57 58 60
14 14 14 16 18 18 18 18 16 16 16 17 18 19 19 19 19 20 21 22 24 25 26 28 29 30 32 34 36 36 38 38 40 42 44 46 48 50 51 52 53 55 56 57 58 59 60 61 63
14 14 14 14 16 18 18 17 16 15 15 16 17 18 19 20 21 22 23 24 25 26 27 29 30 32 33 35 36 38 39 40 42 44 46 47 49 51 53 54 56 57 58 59 60 62 63 64 64
14 15 15 14 15 16 18 18 17 16 16 17 17 19 20 21 23 24 24 25 26 27 28 30 31 32 34 35 37 38 40 41 43 46 47 49 51 52 54 55 57 59 60 61 63 64 65 66 66
15 16 15 15 15 16 17 18 19 18 18 18 19 20 21 22 23 25 26 27 27 28 29 31 32 33 34 36 38 39 41 42 44 46 48 50 51 53 55 56 58 60 61 62 64 65 66 67 67
16 17 17 16 16 16 17 18 20 20 20 20 20 21 22 24 25 26 27 28 29 30 31 32 33 34 36 37 39 40 42 44 45 47 49 51 53 54 56 58 59 61 62 63 65 66 67 68 68
17 18 19 18 17 17 18 19 20 22 22 22 23 23 24 25 26 27 27 28 30 31 32 33 35 36 38 40 41 43 44 46 48 49 51 53 54 56 58 60 61 62 64 65 66 67 67 68 69
18 19 20 21 20 18 19 19 21 23 24 24 24 24 24 25 26 27 29 31 32 33 35 37 38 40 41 43 45 47 48 50 51 53 55 56 57 59 60 62 63 64 65 66 67 67 68 69 69
20 20 22 23 23 21 19 19 21 24 25 25 25 25 26 27 29 30 32 34 35 37 39 40 42 43 45 47 48 50 52 54 56 57 59 60 61 62 63 64 65 65 66 67 68 68 69 69 70
21 22 23 24 26 26 22 20 23 25 25 27 28 29 29 30 32 34 35 37 39 41 43 45 47 48 50 52 53 55 57 59 60 62 63 64 65 65 66 66 67 67 68 69 70 70 69 70 69
22 23 25 26 27 28 27 22 24 25 27 29 31 32 33 35 36 38 40 42 44 46 48 50 51 53 55 57 59 60 62 63 65 66 67 67 68 68 68 68 69 69 69 69 69 69 69 69 69
23 24 26 27 27 28 28 24 25 28 30 32 34 35 37 40 41 43 45 47 49 51 53 55 57 59 61 63 65 66 67 69 69 70 70 70 70 70 70 70 70 70 69 69 69 68 68 69 68

GEFSSGP_500_meanwind_102.txt.gz
Wind_Speed
3 3 3 2 2 1 1 2 2 3 4 4 5 5 6 6 6 6 7 8 9 9 9 10 10 11 11 11 12 12 12 12 13 13 13 13 13 13 13 12 12 12 12 12 13 13 14 14 15
3 4 3 3 3 2 2 2 2 3 4 5 5 6 6 7 7 7 8 9 10 10 11 11 12 12 12 12 13 13 13 13 13 13 13 12 12 12 12 12 12 12 12 12 13 13 14 14 15
3 3 3 3 2 2 2 3 3 4 5 5 6 7 7 8 8 9 9 10 11 11 12 12 13 13 13 13 14 14 14 14 13 13 13 13 13 13 13 13 12 12 13 13 13 13 14 14 15
2 3 3 3 3 3 4 4 4 5 6 7 7 8 9 9 9 10 10 11 12 12 13 13 14 14 14 14 14 14 14 14 13 13 13 13 13 13 13 13 13 13 13 14 14 14 15 15 15
2 2 2 3 3 4 4 5 6 7 8 8 9 10 11 11 10 11 11 12 12 13 13 14 14 14 15 15 15 15 15 14 14 14 14 14 14 14 14 14 14 14 14 14 14 15 15 16 16
3 3 3 4 5 5 5 6 7 8 9 10 10 11 12 13 12 13 13 14 14 14 14 14 15 15 15 16 16 16 16 15 15 15 15 15 15 15 15 15 15 15 15 15 15 16 16 16 17
5 5 5 6 6 7 8 8 9 10 11 11 11 12 13 13 13 14 15 15 15 15 15 15 16 16 16 17 17 17 17 17 17 16 16 16 16 16 16 16 16 16 16 16 16 17 17 17 17
7 8 8 8 9 10 10 11 11 12 12 12 12 12 13 14 14 15 16 16 16 16 16 16 16 17 18 18 19 19 18 18 18 18 18 18 18 18 18 18 18 18 18 18 19 19 19 19 19
10 10 11 10 10 12 13 13 14 13 13 13 13 13 14 15 15 16 17 17 17 17 17 17 18 18 19 19 20 20 20 20 20 20 20 20 20 20 20 21 21 21 21 21 21 22 22 22 22
12 13 13 13 12 13 15 15 16 15 15 15 15 15 15 16 17 17 18 18 18 18 18 19 19 20 20 21 21 22 22 22 23 23 23 23 23 23 24 24 24 24 25 25 25 25 26 26 26
14 15 15 15 15 14 16 17 17 17 16 16 16 16 17 17 18 18 18 19 19 19 20 21 21 21 22 23 23 24 24 25 25 26 26 26 27 27 27 28 28 28 29 29 29 29 30 30 30
16 17 17 18 17 17 17 18 18 18 16 16 16 17 18 18 19 19 19 19 19 21 22 22 22 23 24 24 25 26 27 28 28 29 29 30 30 31 31 32 32 32 33 33 34 34 34 34 34
17 18 18 18 18 18 19 20 19 18 18 18 18 18 19 19 19 19 20 20 20 21 22 23 24 24 25 26 27 29 30 30 31 31 32 33 33 34 35 35 36 36 37 37 38 38 38 38 39
17 18 18 18 18 18 19 20 19 18 18 19 19 19 20 20 21 21 20 20 21 22 23 24 24 25 26 27 28 30 31 32 33 34 34 35 36 37 37 38 39 40 41 41 41 42 42 42 43
16 17 18 18 18 18 19 20 19 19 19 19 20 20 21 21 21 22 21 21 21 22 23 24 25 26 27 28 29 30 32 33 34 35 36 37 38 39 40 41 42 43 44 44 44 45 46 46 47
17 17 18 19 18 18 19 20 21 20 20 20 20 20 21 21 21 22 22 22 22 22 23 24 24 26 27 28 29 31 32 33 34 36 37 38 40 41 42 43 44 45 46 46 47 48 48 49 50
17 17 18 19 18 18 18 19 21 20 20 20 20 21 21 21 21 21 22 22 22 22 23 23 24 25 26 27 29 30 32 33 35 36 38 39 40 42 43 44 45 47 48 48 49 50 51 52 52
16 17 18 19 18 17 17 17 19 19 19 20 20 21 21 21 21 22 22 22 22 23 23 24 24 25 27 28 29 30 32 34 36 37 39 40 42 43 44 45 46 48 49 50 51 52 53 54 55
16 16 17 18 16 16 16 16 17 18 18 19 20 20 21 21 21 22 22 23 23 23 24 25 26 27 28 29 30 32 33 35 36 38 40 42 43 45 46 47 48 50 51 52 53 54 55 56 57
16 16 16 17 17 16 16 16 17 18 18 19 20 20 21 21 22 23 23 23 24 24 25 26 26 28 29 30 32 33 34 36 38 39 41 43 44 46 47 49 50 51 53 54 55 57 58 58 60
16 15 16 17 18 17 16 16 17 18 19 20 20 21 22 22 23 23 24 24 25 26 26 27 28 29 30 31 32 33 35 36 38 40 42 44 46 47 49 51 52 54 55 56 57 59 60 61 62
16 16 16 17 17 17 17 17 17 18 19 20 21 22 23 23 24 24 25 25 26 27 28 29 29 30 31 32 34 35 36 37 39 41 43 45 47 49 51 52 54 56 57 58 60 61 63 64 65
17 18 18 18 18 18 18 18 18 19 20 21 22 23 24 24 24 25 26 26 27 28 28 29 30 32 33 35 36 38 39 41 42 44 46 48 50 52 54 55 57 59 60 61 63 64 66 67 68
19 19 19 19 19 19 19 20 20 20 21 22 23 24 25 25 25 26 27 28 29 30 31 32 33 35 37 38 40 41 43 45 46 48 50 52 54 56 58 60 61 63 64 65 67 68 69 70 71
20 20 21 20 20 20 20 21 22 21 22 23 24 25 25 26 26 27 29 30 31 32 33 35 36 38 40 41 43 45 47 48 50 52 54 55 57 59 62 64 66 68 69 71 72 73 74 75 75
21 21 22 23 23 21 22 22 23 24 25 25 26 26 27 27 28 29 31 32 33 34 36 38 39 40 42 44 46 48 51 52 54 57 59 61 63 65 68 70 71 73 74 75 76 77 77 78 78
22 23 24 25 25 24 22 22 24 26 27 27 27 28 28 29 30 31 33 34 36 38 40 41 43 44 46 49 51 53 56 58 60 63 65 68 70 72 74 75 76 77 78 79 79 80 80 81 81
24 25 25 26 28 27 25 23 25 27 28 28 28 29 30 31 32 34 36 38 39 42 44 46 48 50 52 54 56 58 61 63 66 69 71 73 75 77 78 79 80 81 81 82 82 82 82 83 83
26 26 27 28 29 31 29 26 27 28 29 30 30 31 32 34 36 38 39 42 44 46 49 51 53 55 58 60 62 64 67 69 72 74 76 78 79 81 81 82 83 83 83 84 84 84 83 83 83
27 27 29 30 31 32 32 29 29 30 31 32 33 34 35 37 39 41 44 46 48 51 53 56 58 60 63 65 67 69 72 75 77 79 81 82 83 84 84 85 85 85 85 84 84 83 82 81 81

GEFSSGP_500_meanwind_108.txt.gz
Wind_Speed
4 3 3 3 3 2 1 1 1 2 2 3 4 5 7 8 9 9 10 10 11 11 11 12 12 12 13 13 13 13 14 14 14 15 15 15 16 16 17 17 17 17 18 18 18 18 18 18 18
4 4 3 3 3 2 2 1 1 1 2 3 4 5 6 8 9 9 10 10 11 11 11 11 12 13 13 13 14 14 15 15 15 16 16 16 17 17 17 17 17 17 17 17 17 17 18 18 18
3 3 3 3 2 2 2 1 1 2 2 3 5 6 7 8 9 10 10 11 12 12 12 12 13 13 14 15 15 15 15 16 16 16 16 16 17 17 17 17 17 17 17 17 17 18 18 18 18
2 2 2 2 1 1 2 2 2 3 3 4 5 7 8 9 10 11 11 12 13 13 13 14 14 14 15 15 16 16 16 17 17 16 16 16 17 17 17 18 18 18 18 18 18 18 18 18 18
1 1 1 1 2 3 3 3 3 4 4 5 6 8 10 10 10 11 12 13 14 14 14 15 15 15 15 16 16 16 17 17 17 17 17 18 18 18 18 18 18 18 18 18 18 18 18 19 19
3 2 2 3 3 4 4 4 5 5 6 7 8 9 11 11 11 12 13 14 15 15 15 16 16 16 16 16 17 17 17 18 18 19 19 19 20 20 19 19 19 19 19 19 19 19 19 19 19
5 4 4 4 5 5 5 6 6 7 8 9 9 10 12 12 13 13 13 14 15 16 16 16 17 17 17 17 18 18 19 19 20 20 20 21 21 21 21 21 20 20 21 21 21 21 20 20 20
7 6 6 6 7 7 7 8 8 9 10 10 11 12 13 14 14 14 14 15 15 16 16 16 17 18 18 19 19 20 20 20 21 22 22 22 22 22 22 22 22 22 22 23 23 23 23 23 23
9 8 8 8 8 9 10 10 10 10 11 12 12 13 14 15 15 16 16 16 16 16 16 17 18 18 19 20 20 21 21 21 22 23 23 24 24 24 24 25 25 25 25 25 25 26 26 26 26
10 11 10 10 10 11 12 12 12 12 13 13 14 15 15 16 16 16 16 17 17 17 17 18 18 19 20 21 21 22 22 22 23 24 25 25 26 27 27 27 27 28 28 28 29 29 29 29 30
12 12 12 12 12 13 14 14 14 14 14 15 16 17 17 17 17 17 17 17 17 17 18 18 19 20 20 21 22 23 24 24 25 26 26 27 28 29 29 30 30 31 31 32 32 33 33 33 34
12 13 13 13 13 14 15 16 16 16 16 16 17 18 18 18 18 18 19 18 18 18 18 19 20 20 21 22 23 24 25 26 27 27 28 29 30 31 32 32 33 34 34 35 35 36 36 37 37
12 13 13 14 14 15 16 16 17 17 17 17 18 18 18 19 19 19 19 19 19 19 19 19 20 21 22 23 24 25 26 27 28 28 29 30 31 32 33 34 35 36 37 37 38 38 39 40 40
12 13 13 13 14 15 16 16 17 17 18 18 18 18 18 18 18 18 18 18 19 19 19 20 20 21 22 23 24 25 26 27 28 29 30 31 32 33 34 35 36 37 38 39 40 40 41 42 43
12 13 13 14 14 16 16 17 17 17 18 18 18 18 17 17 17 17 18 18 19 19 20 20 21 22 23 24 25 26 26 27 28 29 30 31 32 33 35 36 37 38 39 40 41 42 43 44 45
12 13 14 14 15 16 17 18 17 17 18 18 18 18 17 17 17 18 18 19 19 20 20 21 22 22 23 24 25 25 26 27 28 29 30 32 33 34 35 36 37 39 40 41 42 43 44 45 46
12 13 14 14 15 16 17 18 17 17 18 18 18 18 18 18 18 19 19 19 20 20 20 21 22 22 23 24 24 25 27 28 29 30 32 33 34 35 36 37 38 40 41 42 43 44 46 47 48
12 13 14 15 15 16 17 18 18 18 18 19 19 18 18 18 19 19 19 20 20 20 21 21 22 23 24 24 25 26 27 29 30 31 33 34 35 36 37 38 40 41 43 44 45 47 48 49 50
13 14 15 15 15 16 17 18 18 18 18 19 19 19 19 19 19 20 20 21 21 21 21 22 23 24 24 25 26 27 28 29 30 32 33 35 36 38 39 40 42 43 44 46 48 49 50 52 53
14 14 15 15 15 16 17 18 18 18 19 19 19 19 20 20 20 21 22 22 22 22 23 23 24 24 25 26 27 28 29 30 32 33 35 37 38 40 41 43 44 46 47 48 50 52 53 54 56
15 15 15 15 15 16 17 18 18 19 19 19 20 20 21 21 22 22 23 23 24 24 24 24 25 25 26 27 28 30 31 33 35 37 38 40 41 43 44 46 47 49 50 52 54 56 57 58 60
15 15 15 16 16 16 17 18 19 19 19 20 21 21 22 22 22 23 24 24 25 25 26 26 27 28 29 30 31 32 34 35 37 38 40 42 44 45 47 49 51 53 54 56 58 60 61 63 64
16 16 16 16 17 17 18 19 19 20 21 21 22 22 22 23 23 24 25 26 26 27 28 28 29 30 31 32 33 35 36 38 39 41 43 45 47 49 51 53 55 57 59 60 62 64 67 68 70
17 17 17 17 17 18 18 20 20 20 21 22 22 23 24 24 25 26 27 27 28 29 30 31 31 32 33 34 36 37 39 41 43 45 46 49 51 53 56 58 60 62 64 66 68 70 72 74 76
17 17 18 18 18 18 19 21 21 21 22 23 24 24 25 26 27 28 28 29 30 31 32 33 33 34 35 37 39 41 43 44 47 49 51 53 55 58 60 62 64 67 69 71 73 75 77 79 81
18 18 19 20 20 20 21 22 22 22 23 24 25 26 27 28 29 29 30 31 33 34 34 35 36 37 39 41 43 45 47 49 51 54 56 58 60 62 64 67 69 71 74 76 78 80 82 83 84
18 19 19 21 22 22 22 22 23 24 25 26 27 28 29 30 31 31 33 34 36 36 37 38 39 41 43 45 47 49 51 54 56 59 61 63 65 67 69 71 74 76 79 81 82 82 82 83 83
20 20 21 22 24 24 24 23 25 26 27 27 28 29 30 31 32 34 36 37 38 39 40 42 44 45 47 49 51 54 56 59 61 63 66 68 70 72 74 76 78 80 81 82 82 82 82 83 83
21 22 23 25 26 27 27 25 27 28 29 29 30 31 32 33 34 36 38 39 40 42 43 45 47 49 51 53 56 58 61 63 66 68 70 72 73 75 77 79 80 81 81 81 81 81 81 81 81
23 23 25 26 27 28 29 28 28 30 31 32 33 34 34 36 37 39 40 42 43 44 46 48 50 53 55 57 60 62 65 67 69 71 73 75 77 78 80 81 81 80 79 79 79 79 79 79 79

GEFSSGP_500_meanwind_114.txt.gz
Wind_Speed
5 4 3 3 2 1 3 3 3 3 3 3 4 5 6 7 8 8 9 9 10 11 12 12 13 13 14 14 15 15 15 16 16 16 16 17 17 17 17 17 17 18 18 18 18 19 19 20 20
4 4 3 3 1 2 3 3 3 4 4 4 5 6 7 7 7 8 9 10 10 11 12 12 13 13 14 14 15 15 15 16 16 16 16 17 17 17 17 17 17 18 18 18 19 19 19 20 20
3 3 2 2 2 3 3 3 3 3 4 4 6 7 7 8 8 9 10 11 11 12 12 13 14 14 15 15 15 16 16 16 17 17 17 17 18 18 18 18 18 18 18 19 19 19 19 20 20
2 2 1 1 2 3 3 3 3 4 4 5 7 8 8 8 9 10 11 12 12 13 13 14 14 15 16 16 16 17 17 17 18 18 18 18 18 18 18 18 18 18 19 19 19 19 19 20 20
3 2 2 2 2 3 3 4 4 5 6 7 8 9 9 8 10 11 12 13 14 14 15 16 16 16 17 17 17 18 18 18 18 19 19 19 19 18 18 19 19 19 19 19 20 20 20 20 20
5 5 4 2 2 3 4 4 6 7 8 8 9 10 10 10 11 11 12 14 15 15 16 17 17 17 18 18 18 19 19 19 19 19 19 19 19 20 20 20 20 20 20 20 20 20 20 21 21
7 7 6 4 4 5 5 6 7 9 10 10 11 12 12 11 13 13 14 15 15 16 16 17 18 18 18 19 19 19 19 20 20 20 20 20 21 21 21 21 21 21 21 21 22 22 22 22 22
9 9 8 7 7 7 7 8 9 10 11 12 13 14 15 14 14 15 15 16 16 17 17 17 18 18 19 19 20 20 20 20 21 21 21 22 22 22 22 23 23 23 23 23 23 23 24 24 24
10 10 10 10 9 9 9 10 11 12 13 13 14 15 16 16 16 16 16 17 17 17 18 18 18 19 20 20 20 20 21 21 21 22 22 22 23 23 24 24 24 25 25 25 25 25 26 26 26
11 11 12 11 11 11 11 12 13 13 14 15 15 16 16 16 17 17 17 17 18 18 18 18 19 20 20 20 21 21 22 22 22 23 23 24 24 24 25 26 26 27 27 27 28 28 29 29 29
12 13 13 13 13 13 13 13 14 15 16 16 16 17 17 17 18 18 18 18 18 19 19 19 19 20 20 21 21 22 22 23 23 24 25 25 25 26 26 27 27 28 29 29 30 31 31 32 32
13 13 13 13 13 14 14 14 15 16 16 16 17 17 18 18 18 18 18 18 18 19 19 20 20 20 21 21 22 23 23 24 25 25 26 27 27 28 28 28 29 29 30 31 32 32 33 34 35
13 13 13 13 14 14 14 15 15 16 16 17 17 18 18 18 18 18 18 18 18 18 19 20 20 20 21 22 22 23 24 25 25 26 27 27 28 29 29 30 30 31 32 32 33 34 34 35 36
14 14 13 13 14 14 14 14 15 16 16 17 17 18 18 18 18 18 18 18 19 19 19 20 21 21 22 22 23 24 24 25 25 26 27 27 28 29 29 30 31 32 32 33 34 35 36 37 38
14 14 14 14 14 14 15 15 15 16 16 16 17 17 18 18 18 18 18 18 19 19 20 21 21 22 22 23 23 24 24 25 25 26 26 27 27 28 29 30 31 32 33 34 34 35 36 37 38
15 15 15 14 15 15 16 15 15 16 16 17 17 17 18 18 18 18 18 19 19 19 20 21 21 22 22 23 23 23 24 24 25 26 26 27 28 29 30 31 32 33 33 34 36 37 38 39 40
16 16 16 14 15 16 16 16 16 16 17 17 17 18 18 18 18 18 18 19 19 20 20 21 22 22 22 22 23 23 24 25 26 26 27 28 29 30 31 31 33 34 35 36 37 38 39 40 41
16 16 16 16 15 16 17 16 16 16 17 17 18 18 18 18 18 18 19 20 20 21 22 22 23 23 23 23 24 25 25 26 26 27 28 29 30 31 32 33 34 36 37 38 40 41 42 43 45
17 16 16 17 16 17 17 17 17 17 18 18 18 18 18 19 19 19 20 21 22 22 23 23 23 24 24 25 25 26 26 27 28 29 30 31 33 34 35 36 37 39 40 41 43 44 45 46 48
17 17 18 18 17 18 18 18 17 17 17 18 18 18 19 20 20 21 22 22 23 23 24 24 25 25 26 27 27 28 28 29 31 32 33 34 35 36 38 39 40 41 43 44 45 47 48 49 51
18 18 18 18 18 19 19 18 17 18 18 19 19 20 20 21 21 22 23 23 24 25 25 26 27 28 28 29 29 30 31 32 33 34 35 37 38 39 41 42 43 45 46 47 49 51 52 53 55
19 18 19 19 19 19 20 20 17 18 19 20 21 21 21 22 22 23 24 25 26 26 27 28 29 29 30 31 32 33 34 35 36 37 38 39 41 42 44 45 47 48 50 52 53 55 57 58 59
19 19 19 19 20 20 20 22 19 17 19 21 22 22 22 23 24 25 26 26 28 29 29 30 31 31 32 33 34 35 36 37 38 39 41 42 44 45 47 49 51 52 54 56 57 59 60 62 64
20 20 20 20 21 20 19 22 22 18 20 22 22 23 24 25 26 26 27 28 29 30 31 32 33 33 34 36 37 38 38 40 41 42 44 45 47 49 51 53 54 56 58 60 62 63 65 67 68
21 20 21 21 21 21 19 21 22 21 22 23 23 24 25 26 27 28 29 30 31 32 34 34 35 36 37 38 39 40 41 42 44 45 47 49 51 53 54 56 58 60 62 64 66 67 69 70 72
21 21 21 21 21 22 20 21 21 22 24 25 25 26 27 28 29 30 31 32 34 34 36 36 38 39 39 40 41 42 44 45 47 49 51 53 54 56 58 60 62 64 66 68 69 71 72 73 75
21 21 21 22 22 23 23 24 21 22 25 26 27 28 29 30 31 32 33 35 36 37 38 39 40 41 42 43 44 45 47 49 50 52 54 56 57 59 61 63 65 67 68 70 71 72 74 75 76
22 21 22 23 24 25 24 25 25 22 25 27 29 30 31 32 33 34 35 37 38 39 40 41 42 43 44 46 47 48 50 52 54 55 57 59 61 63 65 66 67 68 70 71 73 74 75 75 75
23 23 23 24 25 26 26 26 27 26 27 29 31 31 32 33 35 36 38 39 40 40 41 43 44 45 46 48 50 51 53 55 57 58 60 62 64 65 67 68 69 70 72 74 75 76 76 76 76
24 23 24 25 26 27 28 28 26 28 30 32 32 33 34 35 37 38 39 40 41 42 44 45 47 48 49 51 52 54 56 58 60 61 63 64 66 67 68 70 71 73 74 76 76 76 76 76 76

GEFSSGP_500_meanwind_120.txt.gz
Wind_Speed
5 4 4 4 4 4 3 3 3 3 3 2 1 1 1 2 3 4 6 6 6 7 8 8 9 9 10 10 11 12 13 14 14 15 15 16 16 17 17 18 18 18 18 18 18 18 18 18 18
5 5 4 4 5 4 3 3 3 4 3 3 3 2 2 3 3 4 6 7 7 7 8 8 9 10 10 11 11 12 13 14 14 15 16 16 17 18 18 18 18 19 19 19 19 19 19 19 19
4 4 4 4 4 3 2 2 3 4 4 4 4 3 3 3 4 5 6 7 8 8 9 9 10 10 11 12 12 13 13 14 15 15 16 17 18 18 19 19 19 20 20 20 20 20 20 20 20
4 4 4 4 3 3 3 3 3 4 4 5 5 4 4 4 5 5 6 8 9 9 10 10 11 12 13 13 14 14 15 15 16 16 17 18 19 19 19 20 20 20 20 20 21 21 21 21 21
5 5 5 4 4 4 4 4 4 4 4 5 5 5 6 6 6 6 7 8 10 10 11 11 12 13 14 15 16 16 16 17 17 18 18 19 19 20 20 20 21 21 21 21 22 22 22 22 22
6 6 5 5 5 5 5 4 4 4 5 5 6 6 8 8 8 8 8 9 11 12 12 12 13 13 14 15 16 17 17 18 18 19 19 19 20 20 21 21 22 22 22 23 23 23 23 24 24
8 7 7 7 7 7 6 6 6 6 6 7 7 8 9 9 10 10 9 10 12 13 13 13 14 14 15 15 16 17 18 18 19 19 19 20 20 21 22 22 23 23 24 24 25 25 25 25 25
9 9 9 8 8 8 8 8 7 8 8 9 9 10 10 11 11 11 11 11 13 14 14 15 15 16 16 17 17 17 18 19 19 20 20 21 22 23 23 24 24 25 25 26 26 26 27 27 27
11 11 10 9 9 9 9 9 9 10 10 11 11 12 12 12 13 13 13 13 13 14 15 16 16 17 17 17 18 19 19 20 20 21 21 22 23 24 24 25 25 26 26 27 27 28 28 28 29
12 12 12 11 11 11 11 11 11 11 11 12 12 13 13 13 14 14 15 14 15 15 16 17 17 18 18 18 19 20 21 21 22 22 23 23 24 25 26 26 27 27 28 28 29 29 30 30 31
13 14 13 13 13 12 12 12 12 12 13 13 13 14 15 15 15 16 16 16 16 16 17 17 18 18 19 19 20 20 21 22 23 23 24 24 25 26 27 27 28 29 29 29 30 30 31 32 32
15 15 15 14 14 14 13 13 13 13 13 14 14 14 15 16 16 17 17 17 16 16 17 18 18 19 19 20 20 21 21 22 23 24 24 25 26 26 27 28 29 29 30 30 31 32 32 33 34
16 16 16 15 15 15 14 14 13 13 14 14 14 14 15 16 16 16 17 17 17 17 17 18 18 19 20 20 21 21 22 22 23 24 25 26 26 27 28 28 29 30 30 31 32 33 33 34 35
17 17 17 17 16 16 15 15 14 15 14 14 15 15 16 16 16 17 17 18 18 18 18 18 19 19 20 20 21 22 22 23 24 24 25 26 27 27 28 29 30 31 31 32 33 34 34 35 36
18 18 18 18 17 16 16 16 15 15 15 15 16 16 16 17 17 17 18 18 18 18 19 19 19 20 20 21 22 22 23 24 24 25 26 26 27 27 28 29 30 31 31 32 33 34 35 35 36
19 19 19 18 18 17 17 17 16 16 16 16 17 17 17 17 17 18 18 18 18 19 19 20 20 21 21 22 22 23 24 24 25 26 26 27 27 28 29 29 31 31 32 34 35 36 36 37 38
19 19 19 19 18 18 18 17 17 17 17 17 17 17 18 18 18 18 18 19 19 19 20 20 21 21 22 23 23 23 24 25 26 27 28 28 29 30 30 32 33 34 35 36 37 38 38 39 40
20 20 20 20 20 19 18 18 18 18 17 17 17 17 18 18 18 18 18 19 20 20 20 21 22 22 23 23 24 24 25 26 27 28 29 30 31 32 33 34 35 36 37 38 39 40 41 42 43
21 21 21 21 21 20 19 18 18 18 17 17 17 17 18 18 19 19 19 19 20 20 21 22 22 23 24 24 25 26 27 28 29 30 30 31 32 34 35 36 37 38 39 40 42 43 44 45 47
22 22 22 23 23 21 20 18 18 18 17 17 17 18 18 18 19 19 19 20 21 21 22 22 23 24 25 26 27 28 29 30 31 32 33 34 35 36 38 39 40 41 42 43 45 46 47 48 49
23 23 24 24 23 23 21 18 19 19 18 17 18 18 18 19 19 19 20 21 21 22 23 24 24 25 26 28 29 30 31 32 33 34 35 37 38 39 40 41 42 44 45 46 47 49 50 51 52
24 25 26 25 24 23 22 20 18 20 19 18 18 19 19 19 20 20 21 22 22 23 24 25 26 27 28 30 31 32 33 34 35 36 38 39 40 42 43 44 45 46 48 49 51 52 53 55 55
25 26 27 26 25 24 23 23 17 20 19 19 19 19 19 20 20 21 22 23 24 25 26 27 28 29 30 32 33 34 35 36 37 39 40 41 43 44 45 46 48 50 51 53 54 55 57 58 59
26 27 28 28 27 25 24 24 18 19 20 20 20 20 21 21 21 22 23 24 25 26 27 28 30 31 32 34 35 36 37 38 39 41 42 44 45 46 48 49 51 52 54 55 56 58 60 61 62
26 27 28 29 28 26 25 25 20 20 21 21 21 21 22 22 22 23 24 25 27 28 29 31 32 33 34 35 36 38 39 40 42 43 44 46 47 48 50 52 53 55 56 57 59 60 62 64 65
27 27 28 29 28 26 26 25 22 21 22 22 22 23 23 23 24 24 26 27 28 30 31 33 34 35 36 37 38 40 41 43 44 46 47 48 49 50 52 54 55 57 58 60 61 63 64 66 67
27 28 29 30 29 28 27 25 23 22 23 24 24 24 24 24 25 26 28 29 30 31 33 34 36 37 38 39 40 42 44 45 46 47 49 50 52 53 55 56 58 59 61 62 64 65 66 68 68
29 29 29 30 30 30 27 25 25 24 25 25 25 25 25 26 27 28 30 31 32 33 35 36 37 38 40 41 43 45 46 47 48 50 51 52 54 56 57 59 60 62 64 65 66 67 69 69 70
29 29 29 30 31 31 30 26 25 26 27 27 27 27 27 28 29 30 32 33 34 35 36 38 39 40 42 43 45 47 48 49 51 52 54 55 57 59 60 61 63 65 66 67 68 69 70 71 72
30 29 29 30 30 32 32 27 25 28 29 29 29 29 29 30 31 32 33 34 36 37 38 39 41 42 44 46 47 49 50 52 53 55 56 58 60 61 63 64 66 67 68 69 70 71 72 74 75

GEFSSGP_500_meanwind_126.txt.gz
Wind_Speed
8 8 8 8 7 6 5 4 4 3 2 2 1 1 2 4 5 6 7 8 9 10 10 11 11 12 13 13 13 14 14 15 15 15 16 16 16 17 17 18 18 19 19 19 20 20 21 21 21
7 8 8 7 7 6 5 4 4 3 3 2 2 1 2 3 4 5 6 7 8 9 10 11 11 12 13 13 14 14 14 15 15 16 16 17 17 18 18 19 19 20 20 21 21 21 22 22 22
7 7 7 6 6 6 5 4 4 3 2 2 2 2 3 4 4 5 6 7 8 9 10 11 12 12 13 14 14 15 15 15 16 16 17 17 18 18 19 20 20 21 21 22 22 22 23 23 24
6 6 6 6 5 6 5 5 4 3 2 2 3 3 4 5 6 7 7 8 8 9 10 11 12 13 14 15 16 16 16 17 17 17 18 18 19 19 20 21 21 22 22 22 23 23 24 24 25
6 6 6 5 5 5 5 5 5 4 3 3 4 4 5 6 7 8 8 9 9 10 11 12 13 14 15 15 16 17 17 18 18 18 19 20 20 21 21 22 22 22 23 23 23 24 24 25 25
7 7 6 6 6 6 6 6 6 5 5 5 5 6 7 7 8 9 10 10 10 11 12 13 14 15 15 16 16 17 18 18 19 19 20 21 21 22 22 22 22 23 23 24 25 25 25 26 26
8 8 7 7 7 7 7 7 7 7 6 7 7 8 8 9 10 11 11 12 12 12 13 13 14 15 16 16 17 17 18 18 19 20 20 21 22 22 23 23 24 24 25 25 26 26 27 27 28
9 9 8 8 9 9 9 9 9 9 9 9 9 9 9 10 11 12 13 13 13 13 14 14 15 16 16 17 17 18 18 19 19 20 21 22 23 23 24 24 25 26 26 27 27 28 28 29 29
11 11 10 10 10 10 10 11 11 11 11 11 11 11 11 11 12 13 14 14 14 14 15 15 16 16 17 18 18 18 19 19 20 21 22 23 23 24 25 25 26 27 27 28 28 29 29 30 30
12 12 12 11 12 12 12 12 12 12 12 12 12 12 13 13 13 14 15 15 15 16 16 16 17 17 17 18 18 19 19 20 20 21 22 23 24 24 25 26 27 27 28 29 29 30 30 31 31
14 14 14 13 13 14 14 14 14 14 13 13 14 14 14 14 14 15 16 16 17 17 17 17 18 18 18 18 19 19 20 20 21 21 22 23 23 24 25 26 27 28 29 30 30 31 31 32 32
16 16 16 15 15 15 16 16 16 15 15 16 15 15 16 16 16 16 17 17 17 18 18 18 18 18 19 19 20 20 21 21 22 22 23 24 25 25 26 27 28 28 29 30 31 32 32 33 33
18 18 17 17 17 16 17 17 17 17 17 17 17 17 18 18 17 18 18 18 18 19 19 19 19 19 19 20 20 20 21 22 22 23 24 25 26 26 27 28 28 29 29 30 31 32 32 33 34
19 19 19 18 18 18 18 18 18 18 19 18 18 18 19 19 19 19 19 19 19 19 19 20 20 20 20 20 20 21 22 23 23 24 25 25 26 27 28 29 29 30 30 31 32 32 33 34 35
20 20 20 20 19 19 20 19 19 19 19 19 20 20 21 21 20 20 20 20 20 20 20 20 20 21 21 21 22 22 23 24 24 25 25 26 27 28 29 29 30 31 32 33 33 34 35 36 36
21 21 20 21 21 21 20 20 20 20 20 21 21 22 22 22 22 21 21 21 21 21 21 21 21 21 22 22 23 23 24 24 25 26 26 27 28 29 30 31 31 32 33 34 35 36 37 38 38
22 21 21 22 22 21 21 20 22 22 21 22 23 23 23 23 23 22 22 22 22 22 22 22 22 22 22 23 24 24 25 26 26 27 27 28 29 30 31 32 33 34 35 36 37 38 38 39 40
23 22 22 22 23 22 22 21 23 23 23 23 24 23 23 23 23 23 23 23 23 23 23 23 23 23 24 24 25 25 26 27 28 28 29 30 31 32 32 33 34 35 36 38 39 40 41 42 42
24 23 23 24 24 24 23 22 23 24 23 24 24 24 24 24 24 24 24 24 24 24 24 24 24 25 25 26 26 27 27 28 29 30 31 32 33 33 34 35 37 38 39 40 42 42 43 44 45
25 25 25 26 26 25 24 22 24 25 24 25 25 25 25 25 24 24 25 25 25 26 26 26 26 26 27 27 27 28 29 30 31 32 33 34 34 35 36 38 39 40 42 43 44 45 46 47 48
26 26 26 27 27 27 26 22 24 26 26 25 26 26 25 25 25 25 26 26 27 27 27 27 27 28 28 29 29 30 30 32 33 34 35 36 37 38 39 40 42 43 44 45 46 47 48 49 50
27 28 28 28 28 27 28 25 21 25 26 26 26 26 25 25 26 26 27 27 28 28 28 28 29 29 29 30 31 32 32 33 34 36 36 37 38 40 41 42 44 45 46 47 48 50 51 51 52
29 29 30 30 30 29 27 29 20 24 26 26 26 26 26 26 26 27 28 28 28 29 29 29 30 30 31 32 33 34 35 35 36 37 38 39 40 42 43 44 46 47 48 49 50 51 52 54 55
30 31 31 31 31 30 27 29 24 24 25 26 26 26 26 26 27 28 28 29 29 30 30 31 31 32 33 34 35 36 37 37 38 39 40 41 42 44 45 46 48 49 50 51 52 53 55 56 57
30 31 32 32 31 30 28 28 25 25 25 26 26 26 27 27 28 28 29 30 30 31 31 32 33 34 35 36 37 38 39 40 40 41 42 43 45 46 47 48 49 50 52 53 54 55 57 58 59
30 31 32 34 33 31 29 28 25 25 26 26 27 27 28 28 29 29 30 31 32 32 33 34 35 36 37 38 39 40 41 42 42 43 45 46 47 48 49 50 51 52 54 55 56 57 59 60 61
30 30 31 34 35 34 31 28 24 25 27 27 28 28 29 29 30 30 31 32 33 34 35 36 37 38 39 40 41 42 43 44 45 46 47 48 49 50 51 52 53 55 56 57 58 59 61 62 64
31 31 31 33 36 35 32 28 26 25 27 28 29 29 30 30 31 31 32 33 34 35 37 38 39 39 40 41 42 43 44 45 46 47 48 50 51 52 53 54 55 56 58 59 61 62 64 65 66
31 32 33 35 36 37 35 29 26 26 27 28 30 30 30 31 31 32 33 35 36 37 38 39 40 41 42 43 44 45 46 47 48 49 50 52 53 54 55 56 58 59 61 62 63 65 66 67 68
32 32 33 35 36 37 37 31 26 27 29 31 32 32 31 32 32 33 35 36 37 38 39 40 41 42 43 44 45 46 48 49 50 51 52 54 55 56 57 59 60 62 63 65 66 67 68 69 70

GEFSSGP_500_meanwind_132.txt.gz
Wind_Speed
6 6 6 7 6 6 5 4 3 3 2 1 1 2 3 4 5 6 7 8 9 10 11 12 12 13 14 14 15 15 16 17 17 18 18 19 19 20 20 20 20 20 20 20 21 21 21 22 22
5 5 5 6 6 5 4 4 3 3 2 1 1 1 2 3 4 5 6 7 8 9 10 11 12 13 14 15 15 16 17 17 18 19 19 19 20 20 20 20 21 21 21 21 22 22 22 22 23
3 4 4 4 4 4 3 3 3 2 2 2 2 2 3 4 5 5 6 7 8 9 10 11 12 13 13 14 15 16 16 17 18 19 19 20 20 20 20 20 21 21 21 22 22 22 22 23 23
2 2 2 3 3 2 2 2 2 2 3 3 4 4 4 5 6 6 7 8 9 10 11 12 12 13 14 15 15 16 17 17 18 19 20 20 20 21 21 21 21 21 21 22 22 22 23 23 23
2 2 2 2 2 1 1 2 2 3 4 4 5 5 6 7 7 8 8 9 10 10 11 12 13 14 14 15 16 17 17 18 19 19 19 20 20 20 21 21 21 21 21 22 22 22 22 23 23
3 3 3 3 3 3 3 3 3 4 4 5 6 6 7 7 8 8 9 10 10 11 12 12 13 14 15 16 17 17 18 19 19 19 20 20 20 21 21 21 21 22 22 22 22 22 23 23 24
6 5 5 5 5 5 5 5 5 5 6 7 7 8 8 8 9 9 10 10 11 12 13 14 14 15 15 16 17 18 18 19 20 20 20 20 20 21 21 22 22 22 23 23 23 24 24 25 25
8 7 7 7 7 7 7 7 7 8 8 9 9 9 10 10 10 10 11 12 12 13 14 14 15 16 16 17 17 18 19 19 20 20 20 20 21 21 22 22 22 23 23 24 24 25 26 26 27
10 9 9 9 9 9 9 9 9 9 10 10 11 11 11 12 12 12 12 13 13 14 15 15 16 16 17 18 18 19 19 20 20 20 21 21 22 22 22 23 23 24 24 24 25 26 26 27 28
12 12 11 11 11 11 11 11 11 11 12 12 12 12 13 13 13 14 14 14 15 15 16 16 17 17 18 18 19 19 20 20 21 21 21 22 22 23 23 23 24 24 25 25 26 26 27 27 28
15 14 14 13 13 13 13 13 13 13 13 13 13 14 14 14 15 15 15 16 16 16 17 17 18 18 19 19 20 20 21 21 22 22 22 23 23 23 23 24 24 25 25 26 26 27 27 27 28
17 16 16 16 15 15 15 15 15 15 15 15 15 16 16 16 16 16 16 17 17 17 18 18 19 19 20 20 21 21 22 22 22 23 23 23 23 24 25 25 25 25 26 26 27 27 27 28 29
19 19 19 18 18 17 17 16 16 16 17 17 17 17 17 17 17 17 18 18 18 19 19 19 20 20 21 21 21 22 22 22 23 23 23 24 24 25 25 26 26 26 27 27 27 28 29 29 30
21 21 21 20 20 19 19 18 18 18 18 18 18 18 18 18 18 19 19 19 19 20 20 20 21 21 21 22 22 23 23 23 24 24 24 24 25 26 26 26 27 27 28 28 29 29 30 31 31
23 23 22 22 21 20 20 20 19 19 20 20 20 20 19 19 20 20 20 21 21 21 21 21 22 22 22 22 23 23 24 24 24 25 25 25 26 27 27 27 28 29 29 30 30 31 31 32 33
24 24 23 23 23 22 21 21 21 21 21 21 21 21 21 21 21 21 21 22 22 22 22 22 22 22 23 23 24 24 25 25 25 25 26 27 27 28 28 29 29 30 30 31 32 32 33 34 35
25 24 24 25 24 23 22 21 23 22 22 22 23 22 22 22 22 23 23 23 23 23 23 23 23 23 24 25 25 25 25 26 26 26 27 28 28 29 29 30 31 31 32 33 33 34 35 36 37
25 25 25 26 25 24 23 22 24 24 23 24 24 24 24 23 24 24 24 24 23 23 23 24 24 24 25 25 26 26 26 27 27 28 28 29 30 31 31 32 33 33 34 35 36 37 38 39 40
26 26 25 26 26 25 24 22 25 26 25 25 25 26 25 25 25 24 25 24 24 24 24 24 25 25 25 26 27 27 27 28 29 29 30 31 31 32 33 34 34 35 36 37 38 39 40 41 42
27 27 26 27 27 27 25 23 25 27 27 26 26 26 26 26 26 25 25 25 25 25 25 25 25 26 27 27 28 28 28 29 29 30 31 32 33 34 34 35 36 37 38 39 40 41 42 43 44
28 28 27 27 28 28 26 23 25 27 27 27 27 27 27 27 26 26 26 26 26 26 26 26 26 27 28 28 29 29 30 30 31 32 33 34 35 35 36 37 38 39 40 41 42 43 44 45 46
29 29 29 29 29 28 28 25 23 26 27 28 28 27 27 27 27 26 26 27 27 27 27 27 28 28 29 29 30 31 31 32 33 34 35 35 36 37 38 39 40 41 42 43 44 45 46 47 48
30 30 30 30 30 29 29 29 24 26 27 28 29 28 28 28 27 27 27 28 28 28 28 28 29 29 30 30 31 32 33 33 34 35 36 37 38 39 40 41 42 43 44 44 45 47 48 49 50
30 31 31 31 31 30 28 29 27 26 27 28 29 29 29 28 28 28 28 28 28 29 29 29 30 30 31 31 32 33 34 35 36 37 38 38 39 40 41 43 43 44 45 46 47 49 50 51 52
30 31 32 32 31 31 29 29 27 26 27 27 28 29 28 28 28 28 28 29 30 30 30 30 31 32 32 33 34 35 36 36 37 38 39 40 41 42 43 44 45 45 47 48 49 50 51 53 54
30 31 32 33 33 31 29 28 26 26 26 27 28 28 28 28 28 28 29 29 30 30 31 32 32 33 33 34 35 36 37 38 39 40 41 42 43 44 44 45 46 47 49 50 51 52 53 54 56
31 31 31 33 34 33 31 28 25 25 27 28 29 29 29 28 29 29 29 30 31 31 32 33 33 34 34 35 36 37 38 39 40 41 42 43 44 45 46 47 48 50 51 52 53 54 55 56 58
32 31 31 33 35 35 33 29 26 25 27 29 30 30 30 29 29 30 30 31 32 32 33 33 34 35 36 37 37 38 39 40 41 43 44 44 45 46 48 49 50 52 53 54 55 56 57 59 60
32 32 32 34 35 35 35 31 27 26 28 29 30 31 31 31 30 31 32 32 33 33 34 34 35 35 36 37 38 39 41 42 43 44 45 46 47 48 50 51 52 54 55 56 57 59 60 62 63
33 32 33 34 35 36 36 33 29 29 30 31 32 32 32 32 32 33 33 33 33 34 34 35 36 37 38 39 40 41 43 44 44 45 46 48 49 50 52 53 54 56 57 58 60 61 63 64 65

GEFSSGP_500_meanwind_138.txt.gz
Wind_Speed
4 4 4 4 3 3 4 4 3 3 3 3 3 4 5 6 7 7 7 8 8 9 10 11 12 12 13 13 14 14 15 16 16 17 17 18 18 18 18 19 19 19 20 20 20 21 21 21 22
3 3 3 2 2 3 3 3 3 3 3 3 3 5 5 5 6 7 7 8 8 9 10 11 12 12 13 13 14 15 15 16 16 17 17 18 18 19 19 20 20 20 21 21 21 22 22 22 23
3 2 3 3 3 3 3 3 3 3 3 3 4 5 6 6 7 7 8 8 9 9 10 11 12 12 13 14 15 15 15 16 16 17 17 18 18 19 19 20 20 20 21 21 22 22 22 23 23
3 4 3 3 3 3 3 3 3 4 4 4 5 5 6 7 7 8 9 9 10 10 11 12 13 13 14 15 15 16 16 17 17 17 18 18 19 19 20 20 21 21 22 22 22 22 22 23 23
5 5 5 4 4 4 5 5 5 5 5 6 7 6 7 8 8 9 10 10 11 11 12 13 13 14 15 15 16 16 17 17 18 19 19 19 19 20 20 21 21 22 22 22 22 23 23 24 24
7 7 7 6 5 6 6 7 7 8 8 8 8 8 8 9 9 10 11 11 12 12 13 13 14 14 15 16 16 17 17 17 18 19 19 20 20 21 21 21 22 22 23 23 23 24 24 25 25
9 9 9 8 8 8 8 9 9 10 10 10 10 10 9 10 10 11 12 12 13 13 14 14 15 15 16 17 17 17 18 18 19 19 20 20 21 21 21 22 22 23 23 24 24 25 25 25 26
11 11 11 11 10 10 10 11 11 12 12 12 12 12 10 11 12 12 13 13 14 14 15 15 16 16 17 17 18 18 18 19 19 20 20 21 21 22 22 23 23 24 24 25 25 25 26 27 27
14 13 13 12 12 12 12 12 13 14 14 14 14 14 13 13 14 14 14 15 15 15 16 16 16 17 18 18 19 19 19 20 20 21 21 21 21 22 23 24 24 24 25 25 26 26 27 27 28
16 16 15 15 15 14 14 14 15 15 16 16 16 15 15 15 16 16 16 16 17 17 17 17 18 18 18 19 19 20 20 21 21 22 22 22 23 23 23 24 25 25 25 26 26 27 27 28 28
19 18 17 17 17 17 17 16 17 17 17 17 17 17 18 17 17 18 17 17 18 18 19 19 19 19 19 19 20 20 21 21 22 22 22 23 23 24 24 25 25 26 26 26 27 27 28 28 28
21 20 20 19 19 19 19 18 18 18 19 19 19 19 19 19 19 19 19 19 19 20 20 20 20 20 21 21 21 21 21 22 22 23 23 24 24 25 25 25 26 26 27 27 28 28 29 29 29
23 22 22 21 21 21 21 20 20 20 20 20 20 21 21 21 21 21 21 21 21 21 21 21 21 21 22 22 22 22 22 23 23 24 24 25 25 26 26 26 27 27 27 28 28 29 29 30 30
24 24 24 23 23 22 22 22 22 22 22 21 22 22 22 22 22 22 22 23 22 22 22 23 23 23 23 23 23 23 23 24 24 25 25 25 26 26 26 27 27 28 28 29 29 30 30 30 31
26 26 26 25 24 24 24 24 24 23 23 23 23 23 23 23 23 23 24 24 24 23 23 24 24 24 24 24 24 24 24 25 25 25 26 26 26 27 27 27 28 29 29 30 30 31 31 31 32
28 28 28 26 26 26 25 24 26 24 24 24 24 24 24 24 24 24 25 25 25 25 25 25 25 26 26 25 26 26 26 25 26 26 27 27 28 28 28 28 29 30 30 31 31 32 32 33 33
29 28 28 27 27 27 26 25 27 26 25 25 25 25 25 25 25 25 25 26 26 26 26 26 26 27 27 27 26 26 27 27 27 27 28 28 29 29 30 30 30 31 31 32 32 33 34 34 35
28 28 28 28 28 27 27 26 27 27 27 26 27 27 26 26 26 26 26 27 27 27 27 27 27 27 27 28 27 28 28 28 28 29 29 29 30 30 31 31 31 32 33 33 34 34 35 36 36
29 29 28 28 28 28 28 27 28 28 28 28 28 28 27 27 27 27 27 27 28 28 28 28 28 28 28 28 28 29 29 29 30 30 30 30 31 31 32 33 33 34 34 35 36 36 37 38 38
29 29 28 28 29 29 29 28 28 29 29 29 29 29 28 29 29 28 29 29 29 29 29 29 29 29 29 29 30 30 30 30 31 31 32 32 32 33 33 34 35 35 36 37 37 38 39 40 41
30 29 29 29 29 30 30 28 28 28 29 29 30 30 30 30 30 30 30 30 30 30 30 30 30 30 30 31 31 31 32 32 32 32 33 33 34 34 35 35 36 37 38 39 39 40 41 42 42
30 29 29 30 30 29 31 30 26 28 28 29 30 30 30 31 31 31 30 31 30 30 31 31 31 31 31 32 32 33 33 33 33 34 34 35 35 35 36 36 37 39 40 40 41 42 43 43 44
30 30 30 31 31 31 30 32 27 28 28 29 30 30 31 31 31 31 31 31 31 31 31 31 32 32 32 33 33 33 34 34 35 35 36 36 36 37 37 38 39 40 41 42 43 44 45 45 46
31 31 32 32 33 33 30 32 30 29 28 29 30 30 30 31 31 31 31 31 31 31 31 32 32 32 33 33 34 34 35 35 36 36 37 37 37 38 39 39 40 41 43 44 45 46 46 47 48
32 32 32 33 33 34 32 32 31 29 28 29 30 30 30 30 31 31 31 31 31 31 32 32 33 33 34 34 34 35 36 36 37 37 38 38 39 39 40 41 42 44 45 46 47 47 48 49 50
33 33 33 34 34 34 33 32 31 30 28 29 30 30 30 30 31 31 32 32 32 32 33 33 34 34 35 35 36 36 37 37 38 38 39 40 40 41 42 43 44 46 47 48 49 49 49 50 51
33 32 33 35 35 35 34 33 32 31 29 29 30 30 30 31 31 32 32 32 32 33 33 34 35 35 36 36 37 37 38 39 39 40 40 41 41 43 44 45 46 47 49 50 50 51 51 52 54
34 33 33 34 35 36 35 33 33 32 31 30 30 31 31 32 32 32 33 33 33 34 35 35 36 36 37 37 38 38 39 39 40 41 41 42 43 44 46 47 48 49 50 51 51 52 53 55 56
34 34 34 35 36 36 36 34 33 33 33 32 32 32 33 33 33 33 34 34 34 35 36 36 37 37 37 38 38 39 39 40 40 41 42 44 45 46 47 48 49 50 51 52 53 54 56 57 58
35 33 34 35 35 35 36 35 33 33 33 34 34 35 35 35 35 35 35 35 35 36 37 37 37 37 38 39 39 39 40 40 41 42 43 44 46 47 48 49 50 52 53 54 55 57 58 59 60

GEFSSGP_500_meanwind_144.txt.gz
Wind_Speed
2 2 3 3 4 4 4 4 4 4 4 4 4 4 4 4 3 1 2 2 3 4 5 5 6 7 8 9 10 11 12 13 14 15 16 16 17 17 18 19 19 19 20 20 20 21 21 22 22
2 2 2 3 4 3 4 4 4 5 4 4 4 4 4 4 3 3 3 3 4 4 5 6 6 7 8 9 10 11 13 14 14 15 16 16 17 17 18 19 19 20 20 20 21 21 22 22 22
2 2 3 3 3 3 3 3 3 4 4 4 4 4 4 4 3 3 4 4 5 5 6 7 8 8 9 10 11 12 13 14 15 16 16 17 17 18 18 19 20 20 21 21 22 22 22 22 22
4 3 3 3 3 3 2 2 3 3 4 4 4 4 4 4 4 5 5 6 6 7 8 8 9 10 11 12 12 13 14 15 16 16 17 18 19 19 20 20 20 20 21 21 22 22 22 23 23
6 5 4 4 4 4 3 3 3 4 4 4 5 5 5 5 5 5 7 7 8 8 9 9 10 11 12 13 14 14 15 16 17 17 18 19 19 20 20 20 21 21 22 22 22 23 23 23 23
8 7 6 6 6 5 5 4 4 4 4 5 5 6 6 6 6 6 8 9 9 9 10 10 11 12 12 13 14 15 15 16 17 17 18 19 20 20 20 21 21 22 22 22 23 23 23 24 24
10 9 7 7 8 7 7 6 5 5 6 6 6 7 7 7 7 8 9 10 10 10 11 12 12 13 13 14 15 15 16 17 17 18 19 19 20 20 21 21 21 22 22 23 23 24 24 25 25
12 11 10 9 9 9 9 8 7 7 7 7 7 8 9 9 9 9 10 11 11 12 12 13 13 14 14 15 16 16 17 18 18 19 20 20 20 21 21 21 22 22 23 23 24 24 25 25 25
15 14 12 11 11 10 10 10 9 9 9 9 9 10 11 11 11 11 11 12 13 13 13 14 14 15 15 16 17 17 18 18 19 19 20 21 21 21 21 22 22 23 23 24 24 25 25 25 25
17 16 15 14 13 13 12 12 12 12 11 11 12 12 12 13 13 13 13 13 14 14 15 16 16 16 16 17 18 18 19 19 19 20 21 21 22 22 22 23 23 23 24 24 25 25 25 26 26
20 18 17 17 16 15 15 14 14 14 14 14 14 14 14 14 15 15 15 15 15 16 16 17 17 18 18 18 19 20 20 20 21 21 21 22 22 23 23 23 24 24 25 25 25 26 26 26 27
22 21 20 19 18 18 17 17 16 16 16 16 16 16 16 16 16 16 17 17 16 17 18 18 18 19 20 20 20 21 21 22 22 22 22 22 23 23 24 24 24 25 25 25 26 26 26 27 27
24 23 22 21 21 20 20 19 19 18 18 19 19 18 18 17 17 18 18 18 18 18 18 19 19 20 20 21 22 22 22 23 23 23 24 24 24 24 25 25 25 25 26 26 26 27 27 28 28
25 24 23 23 23 22 22 21 21 20 20 20 20 19 19 19 19 19 19 19 20 20 20 20 20 21 21 22 22 23 24 24 24 25 25 25 25 25 25 26 26 27 27 27 27 28 28 28 29
27 26 25 25 24 24 24 24 22 22 22 21 21 21 20 20 20 20 21 21 21 21 21 21 22 22 22 23 23 24 25 25 26 26 26 26 26 26 27 27 28 28 28 28 28 29 29 29 30
29 28 27 26 25 25 25 25 24 23 23 22 22 22 22 22 21 21 21 21 22 22 23 23 23 23 24 24 24 25 25 26 27 27 27 27 27 28 28 28 29 29 29 29 29 30 30 31 31
30 30 28 27 26 26 26 26 25 25 24 23 23 23 23 22 22 22 23 22 23 23 24 24 25 25 25 25 26 26 26 27 28 28 28 28 29 29 30 30 30 30 30 31 31 31 32 32 33
30 30 29 28 27 27 27 26 26 26 24 24 24 24 23 23 23 23 24 24 24 24 25 25 26 26 26 27 27 27 28 28 29 29 29 30 30 30 31 31 31 32 32 32 32 33 33 33 34
31 30 30 29 28 28 27 26 26 26 25 25 25 25 25 24 24 24 25 25 25 26 26 27 27 27 28 28 28 29 29 29 30 30 31 31 31 32 32 32 32 33 33 34 34 34 34 35 35
32 31 30 30 29 29 28 27 27 27 26 26 26 26 25 25 25 25 25 26 26 27 27 27 27 28 29 29 29 30 30 30 31 31 32 32 32 33 33 33 34 34 35 35 36 36 36 36 37
32 31 30 30 30 30 29 27 27 27 26 26 26 26 26 25 25 25 26 26 27 27 27 27 27 28 29 29 30 30 30 31 32 32 33 33 33 34 34 35 35 36 37 37 37 37 38 39 39
32 31 30 30 30 29 29 28 26 25 25 25 25 26 25 25 25 25 25 26 26 27 27 27 27 28 29 30 30 30 31 31 32 33 34 34 34 35 36 37 37 38 38 38 39 39 40 41 41
31 30 30 30 30 30 29 30 25 24 24 24 24 25 25 25 25 25 25 25 26 27 27 27 28 28 29 30 30 31 32 32 33 34 34 35 36 36 37 38 39 39 39 40 40 41 42 42 43
31 31 31 31 31 30 29 30 27 25 24 24 24 24 25 25 25 25 25 25 26 27 27 28 28 29 30 31 31 32 33 33 34 34 35 36 37 38 39 39 40 40 41 41 42 42 43 44 45
32 32 32 33 32 31 30 30 28 26 25 25 24 24 25 25 25 25 26 26 27 28 28 29 29 30 31 31 32 33 34 34 35 36 36 37 38 39 40 40 41 41 42 42 43 44 45 46 46
34 34 33 34 33 32 31 30 28 27 27 26 25 25 25 25 26 26 26 27 28 28 29 30 30 31 32 32 33 34 34 35 36 37 37 38 39 39 40 41 41 42 42 43 44 45 46 47 48
35 35 33 34 34 33 32 30 28 27 27 27 26 26 26 26 26 26 27 27 28 29 30 31 31 32 33 34 34 35 36 36 37 38 38 39 39 40 41 42 42 43 44 45 46 47 48 48 49
35 34 34 34 35 34 33 30 28 27 27 27 26 26 26 26 26 27 28 28 29 30 31 31 32 33 34 34 35 36 36 37 38 38 38 39 40 41 42 42 44 45 46 46 47 48 49 50 51
35 35 34 35 35 35 34 30 27 27 27 27 26 26 26 26 26 27 28 29 30 30 31 32 33 33 34 35 35 36 37 37 38 38 39 40 41 42 43 44 45 45 46 47 48 50 51 52 53
36 35 35 36 35 35 35 30 27 28 28 28 28 27 26 27 27 28 29 30 30 31 32 32 33 34 34 35 36 36 37 38 38 39 40 41 42 43 44 45 46 46 47 49 50 51 52 54 55

GEFSSGP_500_meanwind_150.txt.gz
Wind_Speed
2 2 2 2 3 3 3 2 2 1 2 2 2 1 0 1 1 2 2 3 3 4 5 5 6 7 8 9 9 10 10 11 12 12 13 13 14 15 15 16 17 17 18 18 19 19 19 20 20
1 1 2 2 2 3 3 2 2 2 2 2 1 1 1 1 1 2 2 3 4 4 5 6 7 8 8 9 10 11 11 12 13 13 14 14 15 16 16 17 17 18 18 19 19 19 20 21 22
1 1 1 1 1 2 1 1 2 1 1 1 1 1 1 1 2 2 3 4 4 5 6 7 8 8 9 10 10 11 12 12 13 14 15 16 16 17 18 19 19 20 20 20 21 21 22 22 23
3 3 2 2 1 0 0 1 0 0 0 1 1 2 2 3 3 3 4 4 5 6 7 8 8 9 10 11 11 12 13 14 14 15 16 17 18 19 19 20 20 21 21 21 22 22 22 22 23
5 5 4 3 2 2 2 2 2 1 1 2 2 2 3 4 4 4 5 6 7 7 8 9 9 10 10 11 12 13 14 14 15 16 16 17 18 18 19 19 20 20 21 21 22 23 23 23 23
8 7 6 5 4 4 4 4 3 3 3 3 3 3 4 5 5 6 6 7 8 8 9 10 10 11 11 12 13 14 14 15 16 16 17 17 18 18 19 19 20 20 21 22 22 23 23 24 24
11 10 9 8 7 6 6 6 5 4 4 4 5 5 5 6 7 7 8 8 9 9 10 10 11 12 12 12 13 14 15 15 16 17 17 18 18 19 20 20 21 21 22 22 23 23 24 25 25
14 13 11 10 9 8 7 8 7 6 6 6 6 7 7 8 8 8 9 9 10 11 11 11 12 13 13 14 14 15 15 16 17 17 18 18 19 19 20 21 21 22 22 23 23 24 24 25 26
17 16 14 13 12 10 10 10 9 9 8 8 8 8 9 9 10 10 11 11 12 12 13 13 14 14 15 15 15 16 17 17 18 18 19 19 20 20 21 22 22 23 23 23 24 25 25 26 26
19 18 16 15 14 13 12 12 12 11 10 10 10 10 10 11 12 12 13 13 14 14 15 15 16 16 16 16 17 17 18 18 19 20 20 21 21 22 22 23 23 23 24 24 25 26 26 26 27
21 20 19 18 17 16 14 14 14 13 13 12 12 12 12 13 14 14 15 15 16 16 17 17 17 18 18 18 18 19 19 20 21 21 22 22 23 23 24 24 24 25 25 25 26 26 27 27 28
24 22 21 20 19 18 17 16 16 16 15 15 14 14 14 14 15 16 16 17 18 18 18 19 19 19 19 20 20 20 21 21 22 22 23 23 24 25 25 25 26 26 26 27 27 27 28 28 29
26 25 24 23 22 20 19 18 18 18 18 17 16 16 16 16 16 17 18 18 19 20 20 20 20 21 21 21 21 21 22 23 23 23 24 25 26 26 27 27 27 28 28 28 28 29 29 30 30
28 28 27 25 24 23 22 20 20 20 20 19 19 18 18 18 18 18 19 19 20 21 21 21 22 22 22 22 23 23 23 24 24 25 25 26 27 27 28 28 29 29 29 29 30 30 30 31 31
31 30 29 28 26 25 24 23 22 22 22 22 21 21 21 20 20 20 20 21 21 22 22 23 23 23 23 23 24 25 25 25 26 26 27 27 28 29 29 29 30 30 31 31 31 32 32 32 32
34 33 31 30 28 27 27 25 24 24 24 24 24 23 23 22 21 22 22 22 22 23 23 23 24 24 25 25 26 26 27 27 27 28 28 29 29 30 31 31 31 31 32 32 33 33 33 33 33
36 34 33 31 30 29 29 27 27 26 26 26 26 25 24 24 23 23 24 24 24 24 24 24 25 25 26 27 27 28 28 29 29 29 30 30 31 31 32 32 32 33 33 33 34 34 34 34 35
37 36 34 33 32 31 30 29 29 29 27 27 27 27 26 25 25 25 25 25 25 25 26 26 26 27 27 28 29 29 30 30 30 31 31 32 32 33 33 33 34 34 34 35 35 35 35 36 36
38 37 36 35 34 33 32 31 31 30 29 28 28 27 27 26 26 26 26 26 27 27 27 27 27 27 28 29 30 30 30 31 31 32 32 33 33 34 34 34 35 35 35 36 36 36 37 37 38
39 38 37 37 36 35 34 33 32 31 30 29 29 28 27 27 27 27 27 27 28 28 28 28 28 29 29 30 30 30 31 31 32 32 32 33 34 34 35 35 35 36 36 37 37 37 38 38 39
39 38 37 38 37 37 36 34 33 31 30 29 29 29 29 28 28 28 28 29 29 28 29 29 29 30 30 30 31 31 32 32 33 33 33 34 35 35 35 36 36 37 37 38 38 39 39 40 41
40 38 38 38 38 37 37 36 33 32 31 30 29 29 28 28 29 29 29 30 30 29 30 30 30 30 30 31 31 32 32 32 33 34 34 35 35 35 36 37 38 38 39 39 40 40 41 42 42
40 39 39 39 39 38 37 38 33 33 32 31 30 29 29 29 30 30 30 30 30 30 30 30 30 31 31 31 31 32 32 33 34 34 35 36 36 37 38 39 39 40 40 41 41 42 42 43 44
41 40 39 39 39 39 36 38 35 33 32 31 30 30 30 30 30 30 30 30 30 30 30 30 30 31 31 31 32 32 33 34 35 36 36 37 37 38 39 39 40 41 41 42 42 43 43 44 45
41 40 40 40 40 40 36 38 36 32 31 31 30 30 30 30 30 30 29 29 29 29 30 30 31 31 32 32 33 33 34 35 36 37 37 37 38 39 39 40 41 42 42 43 43 44 44 45 46
41 41 41 41 40 39 38 38 34 31 30 30 30 30 30 30 30 29 29 30 30 30 30 31 32 32 33 33 33 34 35 36 36 37 38 38 39 40 41 41 42 42 43 44 44 45 46 47 48
42 42 41 42 42 41 39 36 32 30 30 30 30 30 31 31 30 30 30 31 31 31 31 31 32 32 33 33 34 35 36 36 37 37 38 38 39 40 41 42 42 42 44 45 46 46 47 48 49
42 42 41 42 42 42 40 36 31 29 30 31 31 31 31 31 30 30 30 30 31 31 31 32 32 33 33 34 35 35 36 36 37 38 38 39 40 41 42 42 42 43 44 45 46 47 48 49 50
43 42 42 42 43 42 40 35 30 30 30 30 31 31 31 31 30 30 30 31 31 31 32 32 33 33 34 35 35 36 36 37 38 38 39 40 41 41 42 43 43 44 44 45 47 47 49 50 51
44 43 43 43 43 41 40 35 31 31 31 31 31 30 30 30 30 30 31 31 31 31 32 33 34 34 35 35 36 36 37 38 38 39 40 41 41 42 43 43 44 44 45 46 47 48 50 51 51

GEFSSGP_500_meanwind_156.txt.gz
Wind_Speed
5 5 6 6 6 5 5 5 5 5 5 5 4 4 4 3 3 4 3 3 4 4 4 5 5 6 6 7 7 8 9 10 10 11 12 13 13 14 14 15 15 16 17 17 18 18 19 19 20
6 6 6 7 6 6 5 5 5 5 5 4 4 4 4 4 3 3 3 3 3 4 4 5 5 5 6 7 8 8 9 10 11 12 13 13 14 15 15 16 16 17 17 18 18 19 20 20 21
7 7 7 7 7 6 6 5 5 5 4 4 4 4 4 4 4 3 3 3 3 4 4 5 5 6 7 8 8 9 10 11 12 13 14 14 15 15 16 17 18 18 19 19 20 20 21 21 22
9 8 8 8 7 7 6 6 5 4 4 4 4 4 4 4 4 4 4 3 4 4 4 5 6 7 8 8 9 10 11 12 13 13 14 15 16 16 17 18 18 18 19 19 20 20 21 22 22
10 10 9 9 8 8 7 7 6 5 5 5 5 5 5 5 5 5 5 4 4 4 5 6 6 7 8 9 10 11 12 13 13 14 14 15 16 16 17 17 18 18 19 19 20 20 21 22 23
12 11 11 10 10 9 8 8 7 6 6 5 5 5 5 5 5 5 5 5 5 5 5 6 7 8 9 10 11 12 13 13 14 14 15 16 16 17 17 18 18 19 19 20 20 21 22 22 23
14 13 13 12 11 11 10 9 9 8 7 7 6 6 5 6 6 6 6 6 7 7 7 8 9 10 10 11 12 13 14 14 15 15 16 17 17 18 18 19 20 20 20 21 22 22 23 23 24
16 16 15 14 13 12 11 11 11 10 10 9 8 7 7 7 7 7 7 8 8 9 9 10 10 11 11 12 13 14 15 15 16 16 17 18 18 19 19 20 21 21 22 22 23 23 24 24 24
20 19 17 15 14 14 13 13 12 12 11 11 10 9 9 9 8 9 9 9 9 10 11 11 12 12 13 13 14 15 16 16 17 17 18 19 19 20 21 21 22 22 23 23 24 24 25 25 25
22 21 18 17 16 16 15 15 14 14 13 13 12 11 11 11 10 10 10 10 11 11 12 13 13 14 15 15 16 17 17 18 18 19 19 20 21 21 22 22 23 24 24 25 25 25 26 26 27
25 23 21 20 19 18 18 17 16 16 15 15 14 13 13 12 12 12 12 12 12 13 13 14 14 15 16 17 18 19 19 19 20 20 21 21 22 22 23 24 24 25 25 26 26 27 27 27 28
27 25 24 23 22 21 20 19 19 18 17 16 16 15 15 14 14 13 13 14 14 14 15 15 15 16 17 18 19 19 20 20 21 21 22 23 23 24 24 25 25 26 26 27 28 28 28 28 29
30 28 27 26 24 23 22 22 21 20 19 18 18 17 17 16 16 15 15 16 16 16 16 16 17 18 18 19 19 20 21 21 22 22 23 24 24 25 25 26 27 27 28 29 29 30 30 30 30
32 30 29 28 27 26 25 24 23 22 21 20 20 19 19 19 18 18 18 18 18 18 18 18 19 19 19 20 20 21 22 22 23 24 24 25 25 26 27 27 28 29 29 30 31 31 31 31 31
34 33 32 30 30 28 28 26 25 24 23 23 22 21 21 21 21 20 20 20 20 19 19 20 20 21 21 21 22 22 22 23 24 25 26 26 27 27 28 28 29 30 30 31 31 32 32 32 32
37 36 34 32 31 30 30 28 27 26 26 25 24 23 23 23 23 22 22 21 21 21 21 21 22 22 22 23 23 23 24 25 26 26 27 27 28 28 29 29 30 30 31 32 32 32 32 32 33
38 37 36 35 34 33 32 30 30 28 28 26 26 26 25 25 24 24 23 23 23 23 23 23 23 23 24 24 24 24 25 26 27 27 28 28 29 29 30 30 31 31 32 32 32 32 33 33 34
39 39 38 37 36 35 34 32 31 31 30 28 28 28 27 27 26 25 25 24 24 24 24 24 25 25 25 25 25 26 26 27 28 28 29 29 29 30 30 31 32 32 32 32 33 33 34 34 35
41 41 40 39 38 38 37 34 33 33 32 30 30 29 29 28 27 27 26 26 25 25 25 25 26 26 26 26 26 27 27 28 29 29 29 30 30 30 31 32 32 32 33 33 34 34 35 35 35
42 41 40 40 40 40 39 37 35 35 34 32 31 31 30 29 29 28 27 27 27 26 26 27 27 27 27 27 27 28 29 29 29 30 30 30 30 30 31 32 33 33 34 34 35 35 36 36 36
43 41 40 40 41 41 41 39 37 36 36 34 33 32 31 30 30 29 29 28 28 28 28 28 28 28 28 28 28 29 29 30 30 30 31 31 31 31 32 33 34 34 34 35 35 36 37 37 38
43 41 41 41 42 42 42 42 38 37 37 36 34 33 33 31 31 30 30 29 29 29 29 28 28 28 28 29 29 30 30 31 31 31 31 31 32 33 33 34 34 35 35 36 36 37 38 39 39
42 41 42 42 43 44 43 44 39 38 38 37 36 35 34 33 32 31 31 30 30 30 30 29 29 29 29 30 30 30 30 31 31 31 32 32 33 33 34 35 35 35 36 37 38 38 39 40 40
43 42 42 43 43 45 43 44 42 38 38 37 36 36 35 34 33 32 32 31 31 31 30 30 30 30 30 30 30 31 31 31 31 32 32 33 33 34 35 35 36 36 37 38 38 39 40 41 41
44 42 43 44 45 46 43 44 43 38 37 37 36 36 35 34 33 33 32 32 32 31 31 31 31 31 30 30 31 30 30 31 31 32 33 33 34 34 35 36 36 37 38 38 39 40 41 41 42
44 44 44 44 45 45 43 44 41 38 36 36 35 35 35 35 34 34 34 33 33 32 31 31 31 31 31 31 31 30 31 31 32 32 33 34 34 35 36 36 37 38 39 39 40 41 42 43 43
46 46 43 44 45 45 45 42 40 38 36 35 35 35 35 35 35 35 35 34 33 33 32 32 31 31 31 31 31 31 31 32 32 33 34 35 36 36 37 37 38 39 39 40 41 42 43 44 44
46 45 45 45 45 45 45 42 39 37 36 36 36 36 36 36 36 36 36 35 34 34 33 33 32 31 31 31 31 31 32 32 33 34 35 36 37 37 38 38 39 39 40 41 42 43 44 44 44
45 46 46 46 46 45 45 43 38 36 36 36 36 36 36 36 36 36 36 35 34 34 34 33 33 32 32 32 32 32 33 33 34 35 36 36 37 38 38 39 39 40 41 42 43 43 44 45 46
47 46 46 46 46 46 45 43 38 36 36 36 36 36 36 36 36 36 35 34 34 34 34 34 33 33 33 33 33 33 34 34 35 36 37 37 38 39 39 40 40 41 42 43 44 44 45 46 47

GEFSSGP_500_meanwind_162.txt.gz
Wind_Speed
11 11 11 11 11 10 9 9 9 8 8 8 8 8 8 8 8 7 6 6 6 6 6 6 7 7 7 8 8 8 9 9 9 10 11 11 12 13 14 15 16 16 17 18 18 19 20 21 21
12 12 12 12 12 10 9 10 10 9 9 8 8 8 8 8 7 6 6 6 6 6 6 6 7 7 7 8 8 8 8 9 10 10 11 12 13 14 15 16 16 17 18 18 19 20 21 21 22
13 13 13 13 12 10 10 10 10 10 9 9 9 9 8 8 7 7 6 6 6 7 7 7 6 7 7 8 8 8 9 9 10 11 11 12 13 14 15 16 16 17 18 19 20 21 21 22 22
14 14 14 14 12 11 11 10 10 10 10 10 9 9 9 8 8 8 7 7 7 7 7 7 7 7 7 8 8 9 9 10 11 11 12 13 14 14 15 16 17 17 18 19 20 20 21 21 22
15 16 15 14 12 12 12 11 11 10 10 10 10 9 9 9 8 8 8 7 7 7 7 7 7 7 8 9 9 9 10 11 12 13 13 14 15 15 15 16 17 18 19 19 20 20 20 21 22
17 17 16 15 14 13 13 13 12 12 11 11 11 10 9 9 8 8 8 8 7 7 7 7 8 8 8 9 10 10 11 12 13 13 14 15 15 16 16 17 18 19 20 20 21 21 21 22 23
19 19 18 16 15 15 14 14 14 13 13 12 12 11 10 9 9 9 8 8 8 7 8 8 8 9 9 10 10 11 12 13 14 14 15 15 16 16 17 18 19 20 20 21 21 22 22 23 24
21 21 20 19 17 16 16 16 16 15 14 14 13 12 11 11 10 10 10 10 9 9 9 9 9 10 10 11 11 12 13 13 14 15 15 16 17 18 19 19 19 20 21 21 22 22 23 24 25
25 24 22 20 19 18 18 18 17 16 16 15 15 14 13 13 11 11 11 11 10 10 10 10 10 10 11 11 12 13 13 14 15 15 16 17 18 18 19 19 20 20 21 22 22 23 24 25 25
27 26 24 23 22 21 20 19 19 18 17 17 16 15 14 14 13 13 13 13 12 12 12 12 11 12 12 13 13 13 13 14 15 16 16 17 17 18 19 20 20 21 22 23 24 24 25 26 26
30 28 26 25 24 23 22 22 21 20 19 18 18 17 16 16 15 15 14 14 14 14 14 14 14 14 14 14 13 14 15 15 16 16 17 17 18 19 20 20 21 22 23 24 25 25 26 26 27
32 31 29 28 27 26 25 24 23 22 21 21 20 19 18 17 17 16 16 16 16 15 16 16 15 15 15 15 15 16 16 17 17 18 18 18 19 20 21 21 22 23 24 24 25 26 27 27 28
35 33 32 30 30 29 28 27 25 24 24 23 22 21 20 19 19 18 18 18 17 17 17 17 17 16 16 17 17 17 18 18 19 19 19 20 21 21 22 23 23 24 24 25 26 26 27 28 28
37 36 35 34 32 31 30 29 28 26 27 25 24 23 22 21 20 20 20 20 19 19 19 19 18 18 18 18 19 19 19 19 20 20 21 21 22 23 23 24 24 25 25 26 26 27 28 28 29
39 39 38 36 35 34 33 32 30 29 29 28 26 25 25 24 23 22 22 22 22 21 21 20 20 20 20 20 20 21 21 21 21 22 22 23 23 24 24 24 25 25 26 26 27 28 28 29 30
40 40 40 38 37 36 36 34 32 31 31 30 29 28 27 26 25 24 24 24 23 22 22 22 22 22 22 22 22 22 22 22 22 23 24 24 25 25 25 25 25 26 27 27 28 28 29 30 30
41 41 40 40 39 39 38 36 35 34 33 32 31 30 29 28 28 27 26 25 25 24 24 24 24 24 23 23 24 24 24 24 24 24 25 25 25 25 26 26 26 27 28 28 28 29 30 30 31
41 41 41 42 41 41 41 38 37 36 35 34 33 32 31 30 30 29 28 27 27 26 26 26 26 26 25 25 25 25 25 25 26 26 26 27 26 26 26 26 27 28 28 29 29 30 30 31 31
42 43 43 43 43 42 42 40 39 38 37 35 34 34 33 32 31 31 30 29 29 28 28 28 27 27 27 26 27 27 27 27 27 27 27 27 27 27 27 27 28 28 29 29 30 31 31 32 33
43 43 43 43 43 43 43 41 40 39 38 37 36 35 35 34 33 33 32 31 30 30 29 29 29 28 28 28 28 28 28 28 28 28 28 28 28 28 28 28 28 29 29 30 31 31 32 33 34
43 43 42 43 42 44 45 44 41 40 39 39 38 37 36 35 35 34 34 33 32 31 31 31 30 29 29 29 30 30 30 29 29 30 29 29 29 29 29 29 29 30 30 30 31 32 33 34 35
44 42 43 43 44 44 46 47 42 41 40 39 39 38 37 37 36 36 35 35 34 33 32 32 32 31 30 31 31 30 30 30 31 30 30 30 30 30 30 30 31 31 31 31 32 33 34 35 35
44 43 44 44 46 47 46 49 44 41 41 39 38 39 38 38 37 37 36 36 35 34 34 33 33 32 32 32 32 31 32 32 32 31 31 31 31 31 31 31 32 32 32 32 33 34 35 36 36
45 45 45 46 47 49 46 48 48 42 40 39 38 38 38 38 38 37 37 36 36 35 35 34 34 34 33 33 33 32 33 33 32 32 32 32 32 31 32 32 32 33 33 34 34 35 36 37 38
46 46 47 48 49 49 46 49 48 42 40 39 39 39 39 39 39 38 38 37 37 36 36 36 35 35 34 34 33 33 34 34 33 33 33 33 32 32 32 33 33 34 34 35 36 37 37 38 39
46 46 47 47 49 48 48 50 47 43 41 39 39 39 40 40 40 39 39 39 38 37 37 37 36 35 35 34 34 34 34 34 34 33 33 33 33 33 33 34 34 35 35 36 37 37 38 39 40
45 46 46 47 49 49 50 49 47 44 42 40 40 40 39 39 39 39 39 39 39 38 38 37 37 37 36 35 35 35 35 35 34 34 34 34 34 34 35 35 35 36 37 37 38 38 39 40 41
46 45 45 47 48 50 51 49 47 44 41 39 39 39 39 39 39 39 39 39 39 39 39 39 38 38 38 37 36 36 36 36 36 35 35 35 36 36 36 36 37 37 38 38 39 40 41 41 42
46 46 46 48 49 49 50 49 45 44 42 40 39 38 38 39 39 39 39 39 40 40 39 39 39 39 38 38 38 37 37 37 36 36 36 36 37 37 37 38 38 39 39 39 40 41 42 42 43
46 46 46 48 50 50 50 49 44 44 42 41 40 39 39 40 40 40 40 40 40 40 40 40 40 40 39 39 39 38 37 37 37 37 37 38 38 38 39 39 40 40 40 40 41 42 43 44 44

GEFSSGP_500_meanwind_168.txt.gz
Wind_Speed
16 16 16 15 15 15 14 13 13 12 11 10 10 10 9 8 7 8 7 6 6 6 5 5 5 5 5 5 6 6 6 7 7 7 8 8 9 9 10 11 12 13 13 14 15 16 17 18 19
17 17 17 16 16 15 13 13 13 13 12 11 11 11 9 8 8 8 7 6 6 6 5 5 5 5 5 5 5 6 7 7 7 8 8 9 9 10 11 12 12 13 14 15 15 16 17 18 18
18 18 18 17 16 15 14 14 14 13 13 12 12 11 10 9 8 8 7 6 6 6 5 5 5 5 5 5 6 6 7 7 8 8 9 9 10 10 11 12 12 13 15 16 16 17 17 18 18
19 19 19 18 17 16 16 16 15 14 13 13 13 12 11 10 9 8 8 7 6 6 6 5 5 5 6 6 6 7 7 8 8 9 9 10 10 11 12 12 13 14 15 16 17 17 18 18 19
21 21 20 19 18 17 16 16 16 15 14 14 14 13 12 12 10 9 9 8 7 7 6 6 6 6 6 7 7 8 8 9 9 9 10 10 11 12 13 14 14 15 16 17 17 18 18 18 19
22 22 22 21 19 18 17 17 17 16 15 15 15 14 14 13 12 11 10 10 9 8 7 7 7 7 7 8 8 8 9 9 9 10 10 11 12 13 14 15 15 16 16 17 17 18 18 19 19
24 23 23 22 20 20 19 18 17 16 16 15 15 15 15 14 13 12 11 11 10 9 8 8 8 8 8 8 9 9 9 9 9 10 11 12 13 14 14 15 15 16 16 17 18 18 18 19 19
26 25 24 23 22 21 20 19 18 18 17 16 16 15 15 14 13 12 12 11 11 10 10 9 9 9 9 9 9 10 10 10 10 11 12 13 13 14 15 15 15 16 17 18 18 18 19 19 19
28 28 26 24 23 22 22 21 20 19 18 18 17 16 15 15 14 13 13 12 12 11 11 10 10 10 10 10 10 10 11 11 11 12 12 13 13 14 15 16 16 17 18 18 18 19 19 20 20
30 29 26 26 25 24 24 23 22 22 21 20 18 17 17 16 16 15 14 13 13 13 13 12 12 12 11 11 11 11 11 12 12 13 13 13 14 15 15 16 17 18 18 19 19 19 20 20 21
32 30 29 29 28 27 26 25 24 24 23 21 19 19 18 18 18 17 16 15 14 14 14 14 13 13 13 12 12 12 12 13 13 14 14 15 15 16 16 17 18 18 19 19 20 20 20 21 21
34 32 32 31 30 29 28 27 27 26 25 24 22 21 20 20 19 19 17 16 16 16 16 15 15 14 14 14 14 14 14 14 14 15 15 16 17 17 17 18 18 19 19 20 21 21 21 22 22
37 35 34 33 32 31 31 30 29 28 27 26 24 23 22 21 20 20 19 18 17 17 17 16 16 16 15 15 15 15 15 16 16 16 17 17 18 18 18 19 19 20 20 21 21 22 22 22 23
38 38 37 36 35 33 33 33 31 29 29 28 26 24 23 23 22 21 21 19 18 18 18 18 18 17 17 17 17 17 17 17 17 18 18 18 19 19 19 20 20 21 21 22 22 22 22 23 24
40 40 40 38 37 35 36 35 32 31 32 30 28 27 26 25 24 23 22 21 20 20 20 20 20 19 19 19 18 19 19 19 19 19 20 20 20 21 21 22 22 22 23 23 23 23 24 24 24
42 42 42 40 39 38 39 36 34 34 34 32 31 29 28 27 26 25 24 23 22 22 22 22 22 21 21 21 20 20 20 21 21 21 22 22 22 22 23 23 23 23 24 24 24 24 25 25 25
43 43 42 41 41 41 42 38 36 37 36 34 33 31 30 29 28 27 26 25 24 24 24 23 23 23 23 22 22 22 22 22 23 23 24 24 24 24 24 25 25 25 25 25 26 26 26 26 26
43 42 41 42 42 43 44 41 38 39 38 37 35 33 32 31 30 30 29 28 27 26 26 25 25 25 25 25 24 24 24 24 24 24 25 25 25 25 26 26 26 26 26 27 27 27 27 27 28
42 42 42 42 43 45 45 43 41 41 41 39 38 36 35 33 33 32 31 30 29 29 28 28 27 27 27 27 27 26 26 25 25 25 26 26 26 26 27 27 27 27 27 28 28 28 28 29 29
42 43 42 42 44 46 47 45 42 43 43 42 41 40 37 36 35 34 34 33 32 31 30 30 29 29 29 29 28 28 27 27 27 27 27 27 27 28 28 28 28 28 29 29 29 30 30 30 30
44 43 43 43 43 46 48 47 44 43 44 43 42 41 40 38 37 36 36 35 34 33 32 32 32 31 30 30 30 29 29 29 28 28 28 28 29 29 29 29 29 29 30 30 30 30 31 31 31
45 43 44 45 45 46 48 50 46 44 45 44 42 42 41 40 39 38 38 37 36 36 35 34 33 33 32 31 31 30 30 30 30 30 30 30 30 30 30 30 30 30 31 31 31 32 32 32 32
46 44 45 46 47 48 47 51 49 45 45 44 42 42 42 41 41 40 39 38 38 37 37 36 35 35 34 33 32 32 32 31 31 31 31 31 31 32 32 32 32 32 32 32 33 33 33 34 34
45 45 45 47 49 52 48 51 51 46 44 43 42 42 42 42 42 41 40 39 38 38 37 37 37 36 36 35 34 34 33 33 33 32 32 32 33 33 33 33 33 33 33 33 34 34 35 35 35
45 45 45 47 50 53 49 51 52 45 43 43 42 42 41 42 42 41 41 40 39 38 38 38 38 37 37 36 36 35 34 34 33 34 33 33 34 34 34 34 34 34 35 35 35 36 36 36 37
45 45 46 48 49 50 50 51 49 45 43 42 42 42 42 42 42 41 41 40 40 39 39 38 38 38 38 37 37 36 36 35 35 35 35 34 34 35 35 35 36 36 36 36 36 36 37 37 38
45 46 45 46 48 49 51 50 48 45 43 42 42 42 42 41 41 41 42 41 40 40 39 39 39 39 39 38 37 37 37 36 36 36 36 36 36 36 36 37 37 37 37 37 37 37 38 38 39
44 43 43 45 47 48 49 49 47 43 42 41 41 41 41 41 41 41 42 42 41 40 40 39 39 39 39 39 38 38 38 37 38 38 37 37 37 38 38 38 38 38 38 38 38 38 39 39 40
43 44 45 46 49 50 51 49 45 43 41 40 41 42 41 41 41 41 41 42 41 40 40 40 40 40 40 40 40 39 39 39 39 39 38 38 39 39 39 39 39 39 39 39 39 39 40 40 41
42 43 45 46 47 49 51 50 43 41 41 41 41 41 40 40 40 41 41 41 41 41 41 40 41 41 41 41 41 41 41 41 40 40 40 40 39 40 40 41 40 39 40 40 40 40 41 41 42

GEFSSGP_500_meanwind_174.txt.gz
Wind_Speed
18 19 19 20 20 19 17 16 16 17 17 16 16 15 15 14 14 13 11 11 10 10 9 8 7 6 5 5 5 5 5 4 4 4 4 5 5 6 7 8 9 9 10 11 12 12 13 14 15
19 19 20 20 20 19 17 16 17 18 18 17 17 16 15 15 14 13 12 11 11 10 9 8 8 7 6 6 5 6 5 5 5 5 5 6 6 7 8 9 10 10 11 11 12 13 14 15 16
20 20 21 21 20 18 17 17 18 18 18 18 18 17 16 15 14 13 12 12 11 11 10 9 9 8 7 6 6 6 6 6 6 6 6 7 7 8 9 10 10 11 12 12 13 14 15 16 17
22 22 22 22 20 18 18 18 19 19 19 19 18 18 16 15 15 14 13 13 12 12 11 10 9 9 8 7 7 7 7 7 7 7 8 8 8 9 9 10 11 12 13 14 15 15 16 17 18
24 24 24 22 20 20 19 19 20 20 20 19 19 18 17 16 16 15 15 14 14 13 12 11 10 10 9 8 8 8 8 8 8 8 9 9 9 9 10 10 11 12 13 14 15 15 16 17 18
26 25 25 22 21 20 20 20 21 21 21 21 20 19 18 17 17 16 16 15 15 14 13 13 12 11 10 9 9 9 8 8 9 9 9 10 10 10 10 11 12 13 14 14 15 16 17 17 18
28 27 26 24 23 22 21 22 21 21 22 21 21 21 20 19 18 18 17 16 16 15 15 14 13 12 12 11 10 10 9 10 10 10 10 11 11 11 11 12 13 14 14 15 16 17 17 18 18
30 29 28 26 24 23 23 23 23 23 23 22 22 21 21 20 20 19 18 18 17 17 16 15 15 14 13 12 11 11 11 11 11 11 11 11 11 12 12 13 14 14 15 16 17 17 18 18 18
32 32 29 27 26 25 25 24 24 24 24 23 23 22 22 22 22 21 20 19 19 18 18 17 16 15 14 13 12 12 12 12 12 12 12 12 12 13 14 14 15 15 16 16 17 18 18 18 18
34 33 30 28 28 28 27 26 26 25 25 25 24 23 23 23 23 22 21 21 20 20 19 18 18 16 15 15 14 14 13 13 13 13 13 13 14 14 15 15 16 16 17 17 18 18 19 19 19
36 34 31 31 31 31 29 28 27 27 27 27 26 25 25 25 24 23 22 22 21 21 20 20 19 18 17 16 16 16 15 15 15 15 15 15 15 15 16 16 17 17 18 18 19 19 20 20 20
37 35 34 34 34 33 32 30 30 29 29 29 28 27 27 26 26 25 24 23 23 22 22 21 20 19 18 18 18 17 17 16 16 16 16 16 17 17 17 18 18 19 19 20 20 21 21 21 21
39 37 37 36 37 36 35 33 32 30 31 30 29 28 28 28 28 27 26 25 24 24 23 23 22 21 20 20 19 19 18 18 18 17 18 18 18 18 19 19 20 20 20 21 21 22 22 22 23
39 38 39 39 39 38 37 36 34 31 32 32 32 31 30 30 30 29 27 27 26 25 25 24 23 23 22 21 21 20 20 19 19 19 20 20 20 20 20 21 21 21 22 22 22 23 23 24 24
40 40 41 41 40 40 40 39 36 33 34 34 33 33 32 31 31 30 29 29 28 27 26 25 25 24 24 23 22 22 21 21 21 21 22 22 22 22 22 22 22 23 23 23 24 24 25 26 26
42 42 41 41 41 41 42 40 36 37 37 35 35 35 34 33 33 32 32 31 30 29 28 27 26 26 25 25 24 23 23 23 23 23 23 24 23 24 24 24 24 24 24 24 25 26 26 27 28
42 42 41 39 41 42 43 41 37 39 39 37 37 37 36 35 34 34 34 33 32 31 30 29 28 28 27 26 26 25 25 25 25 25 25 25 25 25 25 25 25 25 26 26 27 28 28 29 29
42 43 42 40 40 42 44 44 40 41 41 39 39 39 38 37 36 36 36 35 34 33 32 31 30 30 29 28 28 27 27 27 27 27 27 27 27 27 27 27 27 27 28 28 29 29 30 30 30
43 43 44 41 41 43 45 46 43 43 43 41 40 40 40 38 38 38 37 37 36 35 33 32 32 31 31 30 29 29 29 29 29 29 29 29 29 29 28 28 28 29 29 30 30 30 31 31 32
45 45 44 42 42 44 46 46 44 43 44 43 43 42 42 41 40 39 39 38 37 36 35 34 33 33 32 32 31 31 31 31 30 30 30 30 30 30 30 30 30 31 31 31 32 32 32 33 33
47 46 45 44 43 46 48 47 44 44 45 45 44 43 43 42 42 41 41 41 40 38 37 36 35 35 35 34 34 33 33 32 32 32 32 32 32 32 32 32 32 32 32 33 33 34 34 34 34
47 46 46 47 47 47 48 50 45 44 45 46 44 44 43 43 43 43 43 43 42 41 40 39 38 38 37 37 36 35 34 34 34 34 34 34 33 33 33 34 34 34 34 34 34 35 35 35 35
46 46 47 48 50 50 49 52 47 44 44 44 44 44 44 45 45 44 44 44 44 43 43 41 40 40 40 39 38 37 36 36 36 36 36 36 35 35 35 35 35 35 35 36 36 36 36 36 37
44 44 46 47 49 52 49 51 49 43 41 41 42 43 44 45 46 46 46 45 45 45 45 44 42 41 41 41 40 40 39 38 38 38 38 37 37 36 36 37 37 37 37 37 37 37 37 38 39
42 43 45 47 48 51 49 51 50 43 41 41 41 42 42 44 46 46 47 47 47 46 46 46 44 43 43 43 42 42 41 41 40 40 40 39 38 38 38 38 38 39 39 39 39 39 39 40 40
42 43 43 44 46 48 49 51 49 45 42 40 41 42 43 44 46 46 47 47 48 48 47 47 46 45 45 44 44 43 42 42 41 41 41 41 40 40 40 40 40 40 40 40 41 41 41 41 41
43 44 44 44 45 47 48 48 48 45 43 41 41 42 43 44 46 46 47 47 48 49 49 48 48 47 46 46 45 45 44 43 42 42 42 42 42 42 42 42 42 41 41 41 42 42 42 43 43
40 41 43 44 44 46 48 47 46 44 43 42 42 43 44 45 46 46 47 48 49 50 49 49 49 48 48 47 46 45 45 44 45 44 43 43 43 44 44 43 43 42 42 42 43 43 43 44 44
40 41 43 45 46 47 47 46 43 43 43 42 42 42 44 45 46 47 47 49 49 50 50 50 49 48 48 47 47 46 46 46 45 45 44 44 45 45 45 44 44 44 44 43 44 44 44 44 45
40 41 42 44 47 49 49 46 40 40 41 42 43 43 43 44 45 46 46 48 48 49 49 50 49 49 48 48 48 47 47 47 46 46 45 45 45 45 45 45 44 44 44 44 44 44 45 45 46

GEFSSGP_500_meanwind_180.txt.gz
Wind_Speed
20 21 21 22 23 23 21 20 19 18 18 19 19 18 17 17 17 16 15 14 14 13 12 11 11 10 9 9 8 7 7 7 7 7 6 6 6 6 6 6 6 6 7 7 8 8 9 10 10
22 22 22 23 23 22 20 19 19 19 19 20 19 19 18 18 17 17 16 15 15 14 13 12 12 11 10 10 9 8 8 7 7 7 7 7 7 6 7 7 7 7 8 8 8 9 10 10 11
23 23 24 24 23 21 20 20 20 20 20 20 20 20 19 18 18 17 17 16 16 15 14 13 13 12 11 11 11 10 9 9 9 8 8 8 7 7 7 7 7 8 8 8 9 10 10 10 11
24 25 25 25 23 21 21 21 21 21 21 21 21 21 20 19 18 18 18 17 17 16 15 15 14 13 12 12 12 11 11 10 10 9 9 9 8 8 8 8 8 8 8 9 9 10 11 11 12
26 27 27 25 23 22 22 22 22 22 22 23 22 22 21 20 19 19 19 18 18 17 17 16 16 15 14 14 13 13 12 11 11 11 10 10 9 9 9 9 9 9 9 9 10 11 11 12 12
28 28 28 26 23 23 24 24 23 23 23 24 23 23 22 22 21 21 20 20 19 19 18 18 18 17 16 15 15 14 13 13 12 12 12 11 11 11 10 10 10 10 10 10 11 12 12 12 13
30 30 29 27 26 25 25 25 24 24 24 24 24 24 23 23 23 22 22 21 21 20 20 19 19 18 17 17 16 16 15 14 14 13 13 13 13 12 12 12 11 11 12 12 12 12 13 13 13
33 32 31 29 27 27 27 27 26 25 25 25 25 25 25 24 24 23 23 22 22 21 21 21 20 20 19 18 18 17 16 16 15 15 14 14 14 14 14 13 13 13 13 13 14 14 14 14 14
35 34 32 29 29 28 29 28 28 27 26 26 26 26 26 25 25 25 24 24 24 23 22 22 22 21 20 20 19 18 18 18 17 17 16 16 15 15 15 15 15 15 15 15 15 15 16 16 16
36 36 32 31 30 30 30 30 30 29 28 27 27 27 27 27 27 26 26 25 25 24 24 23 23 22 22 21 20 20 20 19 19 18 17 17 17 17 17 17 17 17 16 16 17 16 17 17 17
37 36 33 33 32 32 32 32 31 31 29 28 28 28 28 28 28 28 28 27 27 26 25 25 24 24 23 23 22 21 21 21 20 19 19 18 18 18 18 18 19 18 18 18 18 18 18 18 18
37 36 35 34 34 34 34 34 33 33 31 30 30 30 29 29 30 30 30 29 28 28 27 27 26 26 25 24 24 23 23 22 22 21 21 20 20 20 20 20 20 20 20 20 20 19 19 20 20
36 36 36 35 36 35 35 35 35 34 33 33 32 31 31 31 31 32 32 31 30 30 29 28 28 27 27 26 25 25 24 24 24 23 23 22 22 22 22 22 22 22 22 22 21 21 21 21 21
35 36 36 36 37 37 36 36 37 35 35 35 34 34 33 33 33 33 33 33 32 31 31 30 30 29 28 28 27 27 26 25 25 25 25 25 24 24 24 24 24 24 24 23 23 23 23 23 23
35 37 37 37 37 38 38 38 36 35 37 37 36 36 36 35 35 35 35 35 34 34 33 32 31 31 30 29 29 28 28 27 26 27 27 26 26 26 26 26 25 25 25 25 25 25 25 24 25
35 37 39 38 38 38 40 39 36 37 39 39 39 38 38 37 37 37 37 36 36 36 35 34 33 32 32 31 31 30 29 29 28 28 28 28 28 28 28 27 27 27 27 27 27 26 26 26 27
36 37 38 39 39 40 41 40 38 40 41 41 41 41 40 39 39 38 39 39 38 37 37 36 35 34 34 33 32 31 31 31 31 30 30 30 30 30 29 29 29 29 29 28 28 28 28 28 28
37 38 38 39 40 41 42 41 40 41 43 43 43 43 42 41 40 40 40 40 40 39 39 38 37 36 36 35 34 33 33 33 33 32 32 32 32 31 31 30 30 30 30 30 30 29 29 29 30
39 39 39 39 40 43 44 43 41 41 43 43 44 44 44 43 42 42 42 42 42 42 41 40 39 39 38 37 36 35 35 35 35 34 34 34 33 33 32 32 32 32 32 31 31 31 31 31 31
38 40 41 41 42 44 45 45 43 42 42 43 44 44 44 43 43 43 44 44 43 43 43 42 42 41 40 39 38 37 37 37 36 35 35 35 35 34 33 33 33 33 33 33 33 33 33 32 33
37 39 41 42 42 43 45 46 44 43 43 43 44 44 44 44 44 44 44 45 45 45 45 44 43 43 42 42 41 40 39 38 37 37 37 37 37 36 36 35 35 34 34 34 34 34 34 34 34
36 37 39 41 43 44 44 46 43 43 43 43 42 42 43 43 44 44 45 46 46 46 46 46 45 44 44 43 43 42 41 40 39 39 39 39 39 38 38 37 37 36 36 35 35 35 36 36 36
36 36 38 40 42 43 42 45 43 43 42 42 42 41 41 42 43 44 45 46 46 46 47 47 46 46 45 45 44 43 42 42 42 42 41 41 40 40 40 39 39 38 38 38 38 37 38 38 38
36 36 38 39 41 43 40 43 42 41 41 41 42 42 41 42 43 43 45 45 46 46 47 47 47 47 47 46 46 45 44 44 44 44 43 43 42 42 42 41 41 40 40 40 40 39 39 39 39
35 36 38 40 41 43 40 41 40 37 39 40 41 42 43 43 43 43 44 45 45 46 46 47 48 48 48 47 47 46 46 46 46 46 45 45 44 44 43 43 43 42 42 42 42 41 41 41 41
35 35 37 40 42 42 41 42 39 38 38 38 40 41 42 43 44 45 45 45 45 47 47 48 49 49 49 48 48 47 47 47 47 48 48 47 46 45 45 45 45 44 43 43 43 43 42 43 42
36 36 36 38 41 42 42 42 39 38 38 38 38 40 41 43 44 45 45 45 45 46 47 48 49 49 50 49 49 49 48 49 48 48 48 48 48 47 47 47 46 45 45 44 44 44 43 43 43
35 36 37 39 41 43 42 40 38 37 37 37 37 38 39 41 42 44 45 46 46 47 48 48 49 49 50 50 50 50 50 50 50 49 48 49 49 49 49 49 48 47 47 46 46 45 44 45 45
35 37 38 39 41 43 43 40 37 36 37 36 37 38 39 40 41 43 44 45 46 47 48 50 50 50 51 51 51 51 52 51 51 51 50 50 51 51 51 51 50 50 49 48 47 47 47 47 46
35 36 37 39 40 42 45 43 38 37 37 37 37 38 40 41 41 42 43 45 46 47 48 49 50 50 51 51 51 51 51 53 52 52 52 52 52 52 52 52 51 51 50 50 49 48 48 48 48

GEFSSGP_500_meanwind_186.txt.gz
Wind_Speed
24 24 25 25 25 26 23 20 19 19 20 20 20 20 20 20 20 20 18 16 16 15 15 15 14 14 14 13 12 12 12 11 11 10 10 10 9 9 8 8 8 7 7 7 8 8 9 9 9
26 26 26 26 27 25 22 20 20 21 21 22 22 21 21 22 21 21 19 18 17 17 16 16 15 15 15 14 14 13 13 12 12 11 11 11 10 9 9 9 8 8 8 8 9 9 10 10 10
27 28 27 27 27 25 22 21 22 23 23 23 23 23 23 23 22 22 20 19 18 18 17 17 16 16 16 16 15 15 14 14 13 12 12 12 11 11 10 10 9 9 9 10 10 10 10 11 11
29 29 29 29 28 25 23 22 24 24 24 24 24 24 24 24 23 23 21 20 20 19 18 18 17 17 17 17 17 16 15 15 14 14 13 13 12 12 11 11 11 10 10 11 11 11 11 11 12
30 31 31 31 28 26 25 24 25 26 25 25 25 25 25 25 24 24 23 22 21 20 20 19 19 18 18 18 18 18 17 16 16 15 15 14 14 13 13 13 12 12 12 12 12 12 12 12 13
32 32 33 31 29 27 27 26 27 27 27 26 26 26 26 26 25 25 25 24 23 22 21 21 21 20 20 20 20 20 19 18 17 17 16 16 15 15 14 14 14 14 14 13 13 13 14 14 14
33 33 34 33 31 29 28 28 28 29 28 27 27 28 27 27 27 27 26 26 25 24 23 22 22 22 21 22 22 21 21 20 19 18 18 17 17 16 16 16 16 16 16 15 15 15 15 15 15
33 35 34 34 33 31 30 30 30 30 29 29 29 30 29 29 28 28 27 27 27 26 25 24 24 23 23 23 23 23 22 21 21 20 19 19 18 18 18 17 17 17 17 17 17 17 17 17 16
32 35 35 34 34 33 33 32 31 31 31 30 31 31 30 29 29 30 29 28 28 28 27 26 26 25 25 25 25 24 23 22 22 21 21 20 20 19 19 19 19 19 19 19 18 18 18 18 18
32 34 33 33 34 34 34 34 33 32 32 32 32 32 31 31 30 31 30 30 29 29 29 29 28 27 27 27 27 26 25 24 24 23 22 22 22 21 21 21 21 21 21 20 20 20 20 20 19
32 32 31 33 34 35 35 35 35 35 34 33 33 33 33 32 32 32 32 32 31 31 31 31 30 29 29 29 29 28 27 26 26 25 24 24 24 24 23 23 23 23 22 22 22 22 21 21 21
32 32 31 31 34 36 36 36 37 37 36 35 35 35 35 34 34 34 34 34 34 34 33 33 32 32 31 31 31 29 28 27 27 27 26 26 26 25 25 24 24 24 24 23 23 23 23 23 23
32 32 32 32 34 36 38 38 38 38 37 37 37 38 37 37 36 36 37 37 36 36 35 35 34 34 33 33 32 31 30 29 29 28 28 28 27 27 26 26 26 25 25 25 25 25 25 25 25
32 33 33 33 34 36 39 39 39 38 39 39 39 39 39 38 38 38 38 38 38 38 37 37 37 36 35 35 34 32 31 31 30 30 30 30 29 29 28 28 28 27 27 27 27 27 27 27 27
32 34 34 32 35 36 39 40 40 39 40 40 40 41 41 39 40 40 39 39 39 39 39 39 38 38 37 36 36 34 34 33 32 32 32 32 31 31 30 30 30 29 29 29 29 30 29 29 28
31 34 34 33 34 35 38 39 39 40 41 40 41 41 42 41 40 40 40 40 40 40 41 40 40 39 39 38 37 36 36 36 35 34 34 33 33 33 32 32 31 31 31 31 31 31 31 31 30
31 32 33 34 36 36 38 39 38 39 41 41 41 42 42 42 41 41 41 41 41 41 41 41 41 41 40 40 40 38 38 37 37 36 35 35 35 35 34 33 33 33 33 33 33 33 33 33 32
30 32 34 34 36 38 39 39 38 39 40 40 41 41 42 42 42 42 42 42 42 42 42 42 42 42 42 42 41 41 40 39 38 38 38 37 37 37 36 35 35 35 35 35 35 35 35 34 34
31 33 34 34 34 37 39 39 38 38 39 40 40 41 42 43 43 43 43 44 44 43 43 43 43 43 44 44 43 43 42 41 41 40 39 38 38 38 38 37 37 37 37 37 37 37 36 35 35
31 33 33 34 34 36 39 38 36 36 38 39 39 40 41 42 43 43 43 44 45 45 44 45 45 44 44 44 45 45 45 44 43 43 42 40 40 40 40 40 40 39 39 39 38 38 38 37 37
31 32 34 35 34 35 37 37 35 35 37 39 40 40 40 41 42 43 44 44 45 45 45 45 45 45 45 45 46 47 46 45 44 43 42 42 42 42 42 42 42 41 41 40 40 39 39 39 39
33 33 35 36 36 35 35 37 34 34 36 38 38 39 40 40 40 41 42 44 44 45 45 45 46 46 47 47 47 47 47 46 45 44 44 44 44 44 44 44 43 42 42 42 41 41 40 40 40
34 34 35 36 38 38 35 38 33 33 35 35 35 36 38 39 40 40 40 42 43 44 45 45 45 46 47 47 47 47 47 47 46 46 45 45 45 45 45 45 45 44 43 43 43 42 41 41 41
34 34 35 36 38 38 35 37 33 32 33 34 35 36 37 38 39 39 40 41 42 43 44 44 45 46 46 47 47 47 47 48 48 47 46 46 46 47 46 46 46 45 45 44 44 44 43 43 43
33 34 36 38 38 38 35 37 34 33 34 35 36 37 37 38 38 39 40 41 41 42 43 44 46 47 47 48 48 48 48 49 49 49 48 47 47 47 47 47 48 47 46 46 45 45 44 44 44
32 34 36 38 40 40 38 38 35 35 35 37 38 38 38 38 39 40 41 41 42 42 43 45 46 47 48 48 48 48 49 50 50 50 49 49 48 48 48 48 48 48 48 47 47 46 46 46 46
34 34 35 39 41 43 41 40 38 37 37 37 38 39 39 40 41 41 41 42 42 43 43 45 46 47 49 49 49 49 49 50 50 51 50 50 50 50 50 50 50 50 51 50 49 48 48 48 47
35 35 36 38 41 43 43 41 40 37 37 38 38 39 40 41 41 42 42 43 43 43 44 45 47 48 49 49 50 50 50 51 51 51 50 50 51 52 51 51 51 52 52 51 51 51 49 49 49
35 36 37 38 40 42 43 41 39 39 39 39 39 40 41 41 42 42 42 42 43 43 43 45 47 49 50 50 50 50 50 51 51 51 51 52 52 52 52 52 53 53 53 53 53 52 51 50 50
36 36 37 38 39 41 44 43 37 39 40 41 42 41 42 43 43 44 44 44 43 43 43 44 46 48 49 50 51 51 51 52 52 51 52 52 53 53 53 54 54 54 54 54 54 53 52 51 50

GEFSSGP_500_meanwind_192.txt.gz
Wind_Speed
23 24 24 25 25 25 23 20 20 20 20 20 19 19 19 19 19 19 18 17 16 16 15 15 15 15 14 13 13 13 12 12 12 11 11 11 11 11 11 10 10 10 10 10 10 10 10 10 10
24 25 26 26 27 26 23 21 22 22 21 21 21 21 20 20 20 20 19 18 18 17 17 17 16 16 15 15 14 14 14 13 13 13 13 12 12 12 12 12 11 11 11 11 11 11 11 11 11
26 27 28 28 28 26 23 23 23 23 23 23 23 23 22 21 21 21 21 20 19 19 18 18 18 17 17 16 15 15 15 15 14 14 14 14 13 13 13 13 13 13 13 13 13 12 12 12 12
27 28 29 30 29 26 25 25 25 25 25 25 25 25 24 23 22 23 22 22 21 20 19 19 19 18 18 17 17 16 16 16 16 15 15 15 15 15 15 15 14 14 14 14 14 14 14 14 13
28 29 30 30 28 27 26 27 27 27 27 26 27 26 26 25 24 24 24 23 22 21 21 21 20 19 19 19 18 18 18 18 17 17 17 17 17 17 17 16 16 16 16 15 16 15 15 15 15
28 29 30 30 29 27 27 29 30 29 28 28 28 28 27 26 26 25 25 25 24 23 22 22 22 21 21 20 20 20 20 19 19 19 19 19 18 18 18 18 17 17 17 17 17 17 17 17 17
28 29 29 30 29 28 28 30 31 30 30 29 29 29 28 28 27 26 26 26 25 24 24 24 24 23 22 22 22 22 22 22 21 21 20 20 20 20 19 19 19 19 19 19 19 19 19 18 18
27 29 29 30 30 29 28 30 31 32 31 30 31 31 30 28 28 27 27 27 26 26 25 26 25 25 24 24 24 24 24 24 23 23 22 22 22 21 21 21 21 21 21 21 21 21 20 20 20
27 29 29 29 29 29 28 29 31 32 32 31 31 32 31 30 29 29 28 28 28 27 27 27 27 27 26 26 26 26 26 26 25 25 25 24 24 24 23 22 22 22 22 22 22 22 22 22 22
27 28 28 29 29 29 28 30 31 32 32 32 32 32 32 31 31 30 30 30 30 29 29 29 29 29 29 28 28 28 28 28 28 27 27 27 26 26 25 25 24 24 24 24 24 24 24 24 24
27 27 28 28 29 29 29 30 31 32 31 32 33 32 32 32 32 32 31 31 31 31 31 30 31 31 31 30 30 30 30 30 30 30 30 29 29 28 28 27 27 26 26 26 26 26 25 25 25
26 26 28 28 29 30 29 29 31 32 32 32 33 33 33 32 34 34 33 33 33 33 32 32 32 33 33 32 32 32 32 33 33 33 32 32 31 30 30 30 29 28 28 28 28 28 27 27 26
25 25 27 28 28 30 30 30 31 32 33 33 34 34 34 34 35 35 35 34 34 35 35 34 34 34 34 34 34 35 35 35 35 35 34 34 33 33 32 32 31 31 30 30 30 30 29 28 28
26 26 26 28 29 30 31 30 31 32 33 34 35 35 36 35 35 37 36 35 35 35 36 36 37 36 36 36 37 37 37 37 37 37 37 36 36 35 34 34 33 33 33 32 32 32 31 30 30
25 26 26 28 29 30 31 31 32 33 34 35 36 36 37 37 36 37 37 37 37 37 37 38 39 39 39 39 39 39 39 38 39 39 38 38 38 37 36 36 35 35 35 35 35 33 33 32 32
26 26 26 28 29 30 32 31 31 34 34 35 36 36 37 38 37 38 38 38 38 39 39 39 40 41 41 41 40 40 39 39 40 40 40 40 39 39 38 37 37 37 37 37 37 36 35 35 34
25 27 26 27 29 31 31 31 31 34 34 34 36 37 36 37 38 38 39 40 40 40 40 40 41 42 43 43 42 41 41 40 41 41 41 41 41 41 40 39 39 39 39 39 38 38 38 37 37
26 26 26 27 29 31 31 30 30 33 33 34 35 37 37 37 38 38 39 40 40 40 41 41 41 43 44 44 43 43 43 42 42 42 42 42 43 42 42 41 41 41 41 40 40 39 40 39 39
27 27 27 27 29 31 32 31 30 32 33 34 35 37 37 37 38 39 39 40 41 41 41 42 42 43 45 45 44 44 44 44 43 42 43 43 43 43 43 43 43 42 42 42 41 41 40 40 41
29 28 27 28 30 33 32 32 31 32 34 34 35 36 37 37 38 38 40 40 41 41 42 42 43 44 45 45 45 45 45 45 44 44 44 44 45 45 45 45 44 44 44 43 42 42 41 41 42
29 29 28 29 30 32 33 32 30 31 33 34 34 35 37 37 38 38 39 40 40 40 41 41 41 43 44 44 45 46 46 47 46 45 45 45 46 46 46 46 45 45 45 45 44 44 43 42 43
30 30 31 31 32 32 33 34 30 31 32 33 33 34 35 36 37 38 39 40 40 40 40 40 41 42 42 44 45 45 46 47 47 46 46 47 47 47 47 47 46 46 46 46 46 45 45 44 44
31 31 32 32 34 35 32 35 31 30 31 33 34 34 35 36 37 38 40 40 41 41 41 41 41 41 41 42 44 45 46 47 48 48 48 48 48 48 48 48 47 47 47 47 47 46 46 46 46
31 32 33 33 35 36 33 34 31 29 30 32 35 35 36 37 37 38 39 40 40 41 42 42 41 41 42 43 43 44 45 47 48 49 50 49 49 49 50 49 49 48 48 48 49 48 48 47 47
30 31 33 34 35 35 33 34 31 29 31 32 33 35 35 36 37 38 39 40 40 41 42 42 42 42 42 43 44 44 46 48 48 49 50 51 50 51 51 51 50 49 49 49 50 50 49 49 49
30 31 32 34 35 35 33 34 31 30 31 32 33 34 35 36 37 38 39 40 41 41 42 43 44 43 44 45 45 46 46 47 48 49 49 50 50 50 50 51 52 51 51 51 51 51 51 51 50
31 31 32 34 36 36 35 33 31 30 30 31 33 34 36 37 38 38 39 40 41 42 42 42 44 45 45 46 46 46 46 47 48 49 49 50 50 51 51 52 52 52 52 52 52 52 52 51 51
31 32 32 33 36 37 36 34 31 30 30 32 33 34 35 37 38 39 39 39 41 41 41 42 44 44 45 45 46 47 48 49 49 50 49 50 51 51 52 52 53 54 54 54 54 53 52 52 52
31 31 33 34 35 36 37 34 32 32 32 33 34 35 36 38 39 40 40 41 41 41 42 43 43 43 44 45 46 47 48 50 51 51 51 51 52 53 52 53 53 54 55 55 55 55 54 54 53
32 32 33 35 36 37 38 35 31 33 33 35 37 37 38 39 39 40 41 41 41 42 42 42 43 43 43 45 46 47 48 49 50 51 51 52 53 53 53 54 54 54 55 55 56 55 55 55 54

GEFSSGP_500_meanwind_198.txt.gz
Wind_Speed
20 21 21 22 23 22 20 18 18 19 20 21 22 22 22 22 21 20 20 19 19 18 18 18 17 17 16 16 15 14 13 12 12 11 10 10 10 9 9 9 9 9 9 9 9 10 10 10 10
21 22 23 23 23 22 20 19 19 21 22 23 23 23 24 23 23 22 21 21 20 19 19 19 19 18 18 17 16 15 15 14 14 13 13 12 12 11 11 10 10 10 10 11 11 11 12 12 12
22 23 24 24 23 22 21 21 22 23 24 24 24 25 25 24 24 24 23 22 21 20 20 20 20 19 19 18 17 17 16 16 16 15 15 14 14 13 13 12 12 12 12 12 13 13 13 13 13
24 24 25 25 24 23 23 23 24 25 26 26 26 26 26 26 26 26 25 24 23 22 21 21 21 20 20 19 19 19 18 18 17 17 16 16 16 15 15 14 14 14 14 14 14 15 15 15 15
24 25 26 26 25 25 25 26 26 27 27 27 28 27 26 27 27 27 27 26 25 24 22 22 22 22 22 21 21 20 20 20 19 18 18 18 18 17 17 16 16 16 16 16 16 16 17 17 16
24 25 26 26 26 26 27 27 27 28 29 29 29 29 28 27 28 28 28 27 26 26 25 24 24 24 23 23 23 22 22 21 21 20 20 20 20 19 19 19 18 18 18 18 18 18 18 18 18
25 26 26 26 27 28 28 28 28 29 29 30 31 31 29 28 29 29 29 28 28 27 26 25 26 26 25 25 25 24 24 24 23 23 22 22 22 22 21 21 21 21 21 21 20 20 20 20 20
25 26 27 28 28 28 28 29 29 30 30 31 32 32 30 29 30 30 30 30 29 29 28 27 27 27 27 27 27 26 26 26 26 26 25 25 24 24 24 24 24 24 23 23 23 23 23 23 23
25 26 27 28 29 29 29 30 30 31 31 31 32 32 31 30 31 31 31 31 31 31 31 30 29 29 29 29 29 28 28 28 28 28 28 27 27 26 26 26 26 26 26 25 25 25 25 25 25
25 26 27 28 29 30 30 31 31 32 32 32 32 32 31 31 31 31 32 32 33 33 32 32 31 31 31 31 31 30 30 30 30 29 30 29 29 29 28 28 28 28 28 28 27 27 27 27 27
25 25 26 27 29 30 30 30 31 32 32 32 32 32 32 32 32 32 32 33 34 34 34 33 33 32 33 33 33 32 32 32 32 32 32 32 31 31 31 31 30 30 30 30 30 30 29 29 29
25 25 27 27 28 29 30 30 31 31 32 32 32 33 32 32 32 33 33 34 34 34 35 34 34 34 33 34 35 34 34 34 34 34 34 34 34 34 33 33 33 32 32 32 32 32 32 31 31
25 25 27 27 28 28 29 30 30 30 31 31 33 33 32 32 32 33 34 34 35 35 35 35 35 35 35 35 36 36 36 36 37 37 37 36 36 35 35 35 35 35 35 34 34 34 33 33 33
26 26 27 27 28 28 29 29 31 30 31 32 34 35 34 33 33 34 34 35 35 35 36 36 36 36 36 37 38 39 39 38 38 39 39 39 38 38 38 38 38 37 37 37 37 36 36 35 35
28 27 27 27 28 29 29 28 29 31 32 33 35 36 36 34 34 34 35 36 36 36 37 37 37 38 38 39 39 40 40 40 40 40 41 41 41 41 40 40 40 40 40 40 39 39 39 38 37
28 28 27 27 28 28 30 28 28 30 32 33 35 36 36 35 34 34 35 37 37 38 38 38 39 40 40 40 41 41 41 42 42 43 43 43 43 43 43 42 42 42 42 42 42 41 40 40 39
28 28 28 28 29 30 31 28 28 30 32 33 33 35 35 35 34 35 36 37 38 39 39 39 40 41 41 42 43 43 43 44 44 44 44 45 45 45 44 44 44 44 44 44 44 43 42 42 41
29 30 29 29 29 31 31 29 28 30 32 32 33 34 35 35 34 35 36 38 39 40 40 40 40 41 43 43 44 44 45 45 45 46 46 46 46 46 45 45 45 45 46 46 45 45 44 44 43
31 31 30 31 31 32 31 30 29 30 32 33 34 35 36 36 35 36 37 38 39 40 40 40 40 42 43 44 44 45 45 46 47 47 47 47 47 47 47 46 46 46 47 47 47 46 46 45 45
32 32 32 32 32 33 32 30 29 30 32 33 34 35 36 36 36 37 38 39 40 41 42 42 42 42 43 44 45 46 47 47 48 48 48 48 48 48 47 48 47 47 47 48 48 48 47 47 47
32 32 32 32 32 32 33 31 29 30 32 33 34 35 36 36 37 38 39 40 40 41 42 42 42 43 43 44 45 46 47 48 48 48 49 49 49 49 49 49 49 49 49 49 49 49 49 49 49
32 33 33 32 32 32 33 33 29 31 32 33 34 35 35 37 38 39 40 41 41 41 43 43 43 43 44 45 45 45 47 47 48 49 50 50 51 51 50 50 50 51 51 51 50 50 51 52 51
33 33 33 33 34 34 33 35 30 31 32 33 33 34 35 37 37 38 40 41 41 41 42 42 42 42 43 44 45 45 45 47 47 48 49 50 51 52 52 52 52 53 53 52 52 53 53 54 53
34 34 34 35 36 36 34 35 33 32 32 33 34 34 35 36 36 37 38 40 41 41 41 42 42 42 43 44 45 45 45 47 47 47 48 48 49 51 52 52 52 53 53 53 54 54 54 55 55
35 35 36 37 37 37 35 35 34 32 33 34 34 34 34 35 36 37 38 39 41 42 42 43 43 43 44 45 46 46 46 47 47 46 47 47 48 49 50 51 52 53 54 54 55 56 55 56 56
36 36 36 38 39 38 36 36 34 33 33 33 33 34 34 35 36 37 38 40 41 42 43 44 45 45 45 46 47 47 47 47 47 46 47 48 49 49 50 52 52 53 54 56 56 57 56 56 57
36 36 37 39 41 40 38 36 34 34 33 32 33 34 34 35 36 38 39 41 42 42 43 44 45 46 46 46 47 47 47 47 48 48 48 49 49 50 51 52 52 53 54 56 57 57 57 57 58
37 37 37 38 41 42 40 37 35 33 33 33 34 35 36 36 38 39 41 41 42 43 43 44 45 46 46 46 47 47 47 48 49 50 50 51 51 51 52 52 52 53 54 55 57 58 58 59 58
38 38 38 40 42 43 43 39 36 34 34 34 34 35 37 37 38 39 41 41 42 42 43 43 44 45 46 46 47 48 48 49 49 50 51 51 52 52 53 53 52 52 53 54 56 57 58 58 58
39 39 39 40 42 43 45 42 37 36 35 36 36 37 37 38 39 40 41 42 42 42 43 44 44 46 46 47 48 48 48 49 50 50 51 52 52 52 53 54 54 54 53 54 55 56 57 58 57

GEFSSGP_500_meanwind_204.txt.gz
Wind_Speed
19 19 18 18 18 17 16 15 16 18 19 20 20 20 19 19 19 19 18 17 17 17 17 17 18 17 17 17 17 16 15 15 14 14 13 13 12 12 12 11 11 11 11 10 10 10 10 10 10
20 20 20 19 19 17 17 17 18 19 20 21 21 21 21 21 21 20 19 19 18 18 18 18 19 19 19 18 18 18 17 17 16 16 15 15 14 14 14 13 13 13 13 12 12 12 12 12 11
21 21 21 20 19 19 19 19 20 21 22 22 22 23 22 22 22 21 21 21 20 20 20 20 20 20 20 20 19 19 19 19 18 17 17 17 16 16 15 15 15 15 15 15 14 14 14 14 13
22 22 22 21 20 20 21 21 22 22 22 23 23 24 24 23 23 23 23 22 22 22 21 21 21 22 22 21 21 21 20 20 20 20 19 19 18 18 17 17 17 17 17 17 17 16 16 16 16
23 22 22 22 22 22 22 22 22 23 23 23 24 24 24 24 24 24 24 24 24 24 23 23 23 23 23 23 23 23 23 23 22 22 21 21 20 20 20 19 19 19 19 19 19 19 19 18 18
23 23 23 23 22 23 24 24 24 23 24 25 25 26 25 26 26 26 25 25 25 25 25 24 24 25 25 25 26 26 25 25 24 24 24 23 23 22 22 22 22 21 21 21 21 21 21 21 21
23 23 23 23 23 24 24 24 25 25 25 26 27 27 27 27 27 27 27 27 27 27 27 27 26 26 26 27 28 28 28 28 27 27 26 26 25 25 25 25 24 24 23 24 24 24 23 23 23
23 24 24 24 24 25 25 25 26 26 25 26 27 27 26 27 29 29 29 29 28 28 28 28 28 28 28 28 28 29 29 29 29 29 29 28 28 27 27 27 26 26 26 26 26 26 26 25 25
24 25 24 24 25 25 26 26 26 27 27 27 27 27 27 28 29 30 30 30 30 29 29 29 29 30 29 29 29 30 30 30 30 30 30 30 30 30 29 29 29 29 28 28 28 28 28 28 27
25 25 25 25 26 26 27 27 27 28 28 29 29 29 29 30 31 31 31 31 31 31 30 30 30 31 31 31 31 30 31 31 31 31 31 31 31 31 31 31 31 31 31 30 30 30 30 29 29
26 26 26 27 27 27 28 28 28 29 29 29 30 30 31 31 31 32 32 32 32 32 32 32 31 31 31 31 31 32 32 32 32 32 32 32 32 32 32 33 33 33 33 33 33 33 32 32 31
26 26 26 27 27 28 28 29 29 30 31 31 31 32 32 32 32 32 33 33 33 34 33 33 33 33 33 33 32 33 34 34 34 33 33 34 34 34 34 34 35 35 35 35 35 35 34 34 34
25 25 26 26 27 27 28 29 30 30 31 31 32 32 33 33 33 34 34 34 34 35 35 35 35 34 34 34 34 34 35 36 36 36 36 36 36 36 37 37 37 36 36 36 37 37 37 36 36
25 26 26 27 28 28 29 29 30 30 31 32 32 32 34 35 35 35 35 35 35 36 36 36 36 36 36 36 36 36 37 38 38 38 38 38 38 38 38 39 39 39 38 38 38 39 39 39 39
26 27 27 27 28 29 30 29 30 30 31 32 32 33 34 35 36 36 36 36 36 37 38 38 37 36 37 38 38 38 38 39 39 40 40 40 41 41 40 40 40 40 40 40 40 41 41 42 42
26 27 27 28 29 29 30 29 30 31 31 32 32 33 34 35 36 36 36 36 37 38 39 39 39 38 38 39 39 40 40 40 41 41 42 42 42 43 43 42 42 42 42 42 42 42 43 43 43
27 27 28 29 30 30 30 30 31 32 32 32 32 33 34 35 35 36 36 37 37 38 39 39 39 39 40 40 40 41 42 42 42 43 43 44 45 45 44 44 45 45 44 44 44 44 44 45 45
28 29 29 30 31 31 31 30 30 31 32 32 32 32 33 34 35 35 36 37 38 39 39 39 39 40 41 41 42 42 43 44 44 44 45 46 46 46 46 47 47 47 47 47 46 46 46 47 48
30 30 30 31 32 32 31 31 31 31 32 32 32 32 33 33 34 35 36 37 38 39 40 40 40 41 42 42 43 43 44 45 46 46 46 47 47 47 48 48 48 49 49 49 49 49 49 49 49
31 31 31 32 33 33 32 31 31 31 31 32 32 32 33 33 34 34 35 36 38 39 40 40 41 42 43 44 44 45 45 46 47 48 48 48 48 48 49 49 50 50 51 51 50 50 50 50 50
32 32 32 33 34 34 34 33 31 31 32 32 32 32 32 32 33 34 35 36 37 38 39 41 43 43 44 45 46 47 47 47 47 47 48 49 49 49 50 50 50 51 51 51 52 52 51 51 51
33 33 34 34 35 34 34 35 32 32 32 32 32 32 32 33 33 34 35 36 37 38 40 42 44 44 45 45 46 46 47 47 48 48 49 49 50 50 50 51 51 51 52 52 53 52 52 52 52
34 34 35 35 36 36 34 36 33 32 32 32 32 32 33 33 34 35 36 37 38 39 41 42 44 44 45 45 45 45 46 46 47 48 49 49 49 50 50 51 52 52 52 52 52 53 53 52 53
34 35 36 36 36 37 35 36 34 32 31 31 32 33 34 34 35 35 37 37 38 39 41 42 43 43 44 44 45 45 46 46 46 47 48 48 48 49 50 51 52 52 52 53 53 53 54 54 54
34 35 36 37 37 37 36 36 35 33 33 33 33 33 34 35 36 36 37 37 38 39 40 41 42 42 43 43 44 44 45 46 46 47 47 47 47 48 49 50 51 52 52 53 53 54 54 55 55
35 35 35 37 38 39 38 37 36 35 35 35 35 35 36 36 37 37 38 38 39 40 40 41 41 42 43 43 44 45 46 46 46 47 47 47 46 47 48 49 50 51 52 52 53 53 54 55 55
36 36 36 38 40 41 40 39 36 36 36 36 37 37 37 37 38 38 38 39 40 40 41 41 42 42 43 44 44 45 46 47 46 47 48 47 47 47 48 49 51 51 51 52 52 53 54 54 55
38 37 37 39 41 42 42 39 36 35 35 36 37 38 38 39 38 38 39 39 40 41 41 42 43 43 43 44 44 45 45 46 47 48 48 48 48 49 49 49 50 51 51 51 53 53 54 54 54
38 38 38 40 42 42 43 40 36 36 36 37 37 38 38 38 38 38 38 40 40 40 41 41 42 43 44 45 45 45 45 45 47 47 48 48 48 49 50 50 50 51 51 51 52 52 52 53 54
39 38 39 40 41 42 43 42 37 36 37 37 38 38 38 39 39 38 38 39 40 40 40 41 41 43 44 45 46 46 46 46 46 47 47 48 49 49 50 50 50 50 51 51 52 52 52 52 53

GEFSSGP_500_meanwind_210.txt.gz
Wind_Speed
21 21 21 20 19 18 16 17 17 17 18 17 18 18 19 19 19 20 19 18 17 17 17 17 17 17 17 17 17 17 17 16 15 15 14 14 14 14 14 14 14 13 13 13 13 13 12 12 12
22 22 22 22 20 19 18 19 18 18 18 18 19 19 20 20 21 21 20 19 19 19 18 19 19 19 19 19 19 19 18 18 18 17 17 16 16 16 15 15 15 15 15 15 15 15 14 14 14
23 23 23 22 22 21 20 19 19 19 19 19 19 20 20 21 21 21 21 21 21 20 20 20 21 21 21 21 21 20 20 20 20 20 19 19 18 18 17 17 16 17 17 16 16 16 16 16 16
24 24 24 23 22 21 21 21 20 20 20 20 20 21 21 21 22 22 22 22 22 22 22 22 22 22 23 23 23 22 22 22 22 22 21 21 20 20 20 19 18 18 18 18 18 18 18 19 19
24 24 24 24 23 22 22 22 21 21 21 21 21 21 22 22 22 22 22 22 23 23 23 23 23 23 24 24 24 24 24 24 24 23 23 23 22 22 22 22 21 20 20 20 21 21 21 20 21
25 25 25 24 24 23 23 23 23 23 23 23 23 23 22 22 22 22 23 23 23 24 24 24 24 24 25 25 26 26 25 25 25 25 25 24 24 24 24 24 23 23 23 23 23 23 23 23 23
25 25 25 25 25 25 25 24 24 25 25 25 25 25 24 24 23 23 24 24 24 24 25 25 25 25 25 25 26 27 27 27 26 26 27 27 26 26 26 26 25 25 25 25 25 25 25 25 25
25 26 26 26 26 26 26 26 25 26 26 26 26 26 25 25 25 25 25 25 26 26 25 26 26 26 26 26 27 27 27 28 28 28 28 28 28 28 28 27 27 27 27 27 27 27 27 27 27
26 26 26 26 27 27 27 27 27 27 28 28 28 28 27 27 27 27 27 27 27 27 27 27 27 27 28 28 28 28 29 29 29 29 29 29 29 29 29 29 29 29 28 28 28 28 29 29 29
27 27 26 27 28 28 29 29 28 29 29 29 29 29 29 29 29 29 29 29 28 28 29 29 29 29 29 29 30 30 30 31 31 31 30 30 30 30 30 29 29 29 30 30 30 30 30 30 30
28 28 27 28 29 30 29 29 30 30 30 30 31 31 30 30 30 30 30 30 30 30 30 31 31 31 31 31 32 32 32 32 32 32 32 32 32 32 32 31 31 31 31 31 31 31 31 31 31
29 28 29 30 30 31 30 31 31 31 30 32 32 32 32 32 32 32 32 32 32 32 32 33 33 33 33 33 34 34 34 33 34 34 34 34 34 34 34 34 33 33 33 33 33 33 33 33 33
29 29 30 31 31 31 31 31 31 30 31 32 33 33 33 33 33 33 33 34 34 34 35 35 35 36 36 36 36 36 36 35 35 36 36 36 36 36 37 36 36 36 36 36 36 36 35 35 35
29 30 30 30 30 31 31 31 32 31 32 33 33 34 35 35 35 35 35 36 36 36 37 37 37 37 37 38 38 38 38 37 37 37 38 37 38 38 39 39 39 39 38 38 38 38 38 38 37
29 30 30 30 30 31 32 31 31 32 33 34 34 35 36 36 36 36 36 37 37 37 38 38 39 39 39 39 39 39 39 39 38 38 39 39 40 40 40 41 41 41 41 41 41 41 40 40 40
31 31 30 30 31 32 33 30 30 32 33 34 35 35 36 36 37 37 37 37 37 37 38 38 39 40 40 40 40 40 40 40 40 39 40 40 41 41 41 42 43 44 44 44 43 43 43 43 43
32 32 32 32 32 34 34 31 31 32 33 34 35 36 37 37 37 37 37 37 37 38 38 38 39 39 40 40 40 41 41 41 41 41 41 42 42 43 43 44 45 45 46 46 46 45 45 45 45
33 33 32 33 34 35 35 33 32 33 34 34 35 36 36 37 37 37 37 38 38 38 38 38 38 38 39 40 41 41 42 42 42 42 42 43 44 44 46 46 47 47 47 48 48 47 47 47 47
33 33 33 34 35 36 36 35 34 34 35 35 35 35 36 37 37 37 38 38 38 38 38 38 38 39 39 40 41 42 43 43 43 43 44 44 45 45 47 47 48 49 49 49 49 49 49 49 49
34 35 35 36 37 37 38 37 35 35 36 35 35 35 36 36 36 38 38 38 38 38 38 38 39 39 39 40 42 43 44 44 45 45 45 46 46 47 48 49 50 50 51 50 51 51 51 51 51
35 35 35 37 38 38 39 39 36 36 36 36 35 35 36 37 37 38 38 38 38 37 38 39 39 40 40 41 43 44 44 46 46 46 46 47 48 49 49 50 50 51 52 52 51 52 52 51 51
36 36 37 38 39 39 39 40 37 36 36 36 36 36 36 36 37 38 38 38 38 38 39 40 40 41 41 42 44 45 46 47 47 48 48 48 48 49 50 50 51 52 52 53 52 52 53 54 53
37 37 38 38 39 41 40 42 38 37 37 37 37 37 37 37 38 38 39 39 39 39 39 40 41 42 43 44 45 46 47 47 48 48 49 49 49 50 51 51 52 52 52 53 53 54 54 54 54
38 38 38 39 41 43 40 42 41 38 37 37 37 37 38 38 38 39 39 40 40 40 40 41 42 43 43 44 45 46 47 47 48 48 49 50 50 50 52 52 52 52 52 53 53 54 54 54 54
38 37 39 41 42 43 41 42 41 38 38 38 37 38 38 38 38 39 39 40 40 41 42 42 43 43 43 45 46 46 47 48 49 49 50 51 52 51 51 51 51 51 51 52 53 53 54 54 54
39 38 39 41 42 42 42 42 41 39 39 38 38 39 39 39 39 39 40 40 41 41 43 43 44 44 45 46 47 48 48 49 49 50 50 51 51 51 50 51 51 51 51 51 52 53 54 54 54
39 39 39 41 42 43 43 42 41 39 38 38 38 38 38 39 39 40 41 41 42 42 43 44 45 45 46 47 47 48 48 48 49 49 50 50 50 50 50 51 51 51 51 51 51 52 53 54 54
39 38 39 41 42 43 43 42 41 39 39 38 38 39 38 39 40 40 40 41 42 43 44 45 45 46 46 46 47 47 47 48 48 49 49 50 50 50 49 50 50 50 51 52 52 51 51 52 52
39 39 40 41 42 43 43 42 40 40 39 38 38 39 39 41 41 41 41 42 43 44 44 45 45 46 46 46 46 47 48 48 48 49 49 49 49 49 49 49 50 51 52 52 52 51 51 51 51
41 40 40 41 42 42 43 44 41 40 39 39 39 39 40 41 41 41 41 42 43 44 44 45 45 45 45 46 46 47 47 47 48 48 48 48 49 49 49 50 50 51 51 52 52 52 51 52 52

GEFSSGP_500_meanwind_216.txt.gz
Wind_Speed
22 22 22 21 21 20 19 18 17 17 16 17 17 17 17 16 16 15 14 14 14 14 14 14 14 14 14 15 16 16 16 16 16 15 15 15 15 15 14 14 14 13 13 13 12 13 13 12 12
23 23 23 23 23 22 21 19 18 17 17 17 17 17 17 16 16 16 15 15 15 15 15 15 15 16 16 16 17 17 18 18 18 18 18 18 18 17 17 16 16 15 15 14 14 14 14 15 15
24 24 24 24 24 23 21 19 19 18 18 18 18 18 17 17 17 16 16 16 16 16 16 16 17 17 18 18 18 19 19 19 20 20 20 20 20 20 19 18 18 17 17 17 17 17 17 17 17
24 25 25 25 24 23 21 21 20 20 19 18 18 19 18 18 17 16 16 16 16 17 17 17 17 18 18 19 19 20 21 21 21 21 21 21 21 21 21 20 20 20 20 20 20 19 19 19 19
25 25 25 25 24 23 22 22 22 21 20 19 19 19 19 19 18 17 17 17 17 18 18 18 18 19 19 19 20 21 22 22 22 23 23 23 22 22 22 22 22 22 23 23 22 22 21 21 21
25 25 25 25 25 24 23 23 23 23 22 21 21 21 20 20 19 19 18 19 19 19 20 20 20 20 21 21 21 22 22 23 23 24 24 24 24 24 24 24 24 24 24 24 24 24 24 23 23
25 25 25 25 25 24 24 25 25 24 23 22 22 21 21 21 21 21 20 20 20 20 21 21 22 22 23 23 22 23 23 24 24 25 25 25 25 25 25 25 25 25 25 25 25 25 25 25 25
25 26 26 25 24 24 25 26 26 25 25 24 23 22 22 22 23 22 22 22 22 22 22 23 23 24 24 24 24 24 25 25 25 26 26 26 26 26 27 27 27 27 27 26 26 26 27 27 27
26 26 25 25 25 25 26 27 27 26 25 25 24 24 24 24 24 24 24 24 24 24 24 24 24 25 25 26 26 26 27 27 27 27 27 27 28 28 28 28 28 28 29 29 28 28 28 29 28
27 26 25 25 26 26 26 27 27 26 26 26 26 26 26 26 26 26 26 26 26 26 26 26 26 26 26 26 27 27 28 28 28 28 29 29 29 30 30 30 30 30 30 30 30 30 30 30 30
27 26 26 26 26 26 27 27 27 27 26 27 27 27 28 28 27 27 28 28 27 27 27 27 27 27 27 27 28 28 29 30 30 30 30 30 30 31 31 31 32 32 32 32 32 32 32 32 32
28 27 27 27 27 27 27 27 27 27 27 28 28 28 28 28 28 28 28 29 28 28 28 28 28 29 29 29 29 30 30 31 31 32 32 32 32 33 33 33 33 34 34 34 34 34 34 34 34
30 29 29 28 28 28 28 28 27 26 27 28 29 29 29 29 29 29 29 30 29 29 29 30 30 30 31 31 31 31 31 32 33 34 34 35 34 34 34 35 35 35 36 36 37 37 36 37 37
31 30 30 30 30 29 30 29 28 27 29 30 29 29 30 30 30 30 30 30 31 31 32 32 32 32 32 32 33 33 33 34 34 35 36 36 37 37 37 37 37 38 38 38 39 39 39 39 39
32 31 30 31 32 32 32 30 29 29 31 31 31 31 31 31 32 32 32 32 33 33 33 33 33 33 34 34 34 35 35 35 36 37 37 38 38 39 39 39 39 39 40 40 41 41 41 41 41
33 33 32 31 33 33 33 31 30 31 31 31 31 31 32 32 32 33 34 35 35 35 35 34 35 35 36 36 36 36 37 37 37 39 39 39 40 41 41 42 41 41 41 42 43 43 43 44 43
35 34 33 32 33 34 34 32 31 32 32 32 32 32 32 33 33 34 35 36 37 37 36 36 37 37 37 38 38 38 37 38 39 40 41 41 42 42 43 43 43 43 43 44 44 45 45 45 45
35 34 34 34 34 35 35 33 33 33 33 33 33 33 34 34 35 35 36 37 38 38 38 38 38 38 38 39 39 39 39 39 40 42 43 43 43 44 44 45 45 45 45 45 46 46 46 47 47
36 35 35 35 36 37 36 35 34 35 35 35 35 35 35 36 36 37 37 37 38 39 39 39 39 39 39 39 40 40 40 40 41 42 43 44 44 45 46 46 47 47 47 47 47 48 48 48 49
36 36 35 36 37 39 39 38 36 36 36 36 36 36 36 37 38 38 38 38 38 38 39 39 39 40 40 41 40 41 41 41 41 42 43 44 45 46 47 48 48 48 49 50 50 50 50 50 51
37 37 36 37 39 40 41 40 38 37 37 37 37 37 37 37 38 38 38 37 38 38 39 39 40 40 40 41 41 41 42 42 42 43 44 44 45 47 48 49 49 49 50 50 50 51 52 52 53
38 38 38 39 41 41 42 43 39 38 38 37 37 37 37 37 38 38 38 38 38 38 39 40 40 40 40 41 42 42 43 43 43 43 44 45 46 48 49 50 50 50 50 51 52 52 53 54 54
38 38 40 41 42 43 42 44 39 38 38 37 37 36 36 36 37 37 38 38 38 39 40 40 40 41 41 42 42 43 43 44 44 43 44 45 46 47 48 49 50 50 51 51 53 54 55 55 55
37 38 40 41 42 44 41 43 41 37 36 36 37 37 37 37 38 37 38 39 39 39 39 39 40 41 42 42 42 43 43 43 44 44 45 46 47 48 49 50 50 51 51 52 53 55 55 56 56
38 38 39 41 42 43 40 43 42 38 37 36 37 37 37 38 38 38 38 38 38 38 39 39 40 41 42 42 42 43 44 44 45 45 46 47 47 47 49 50 51 52 52 52 53 54 55 56 56
37 37 39 40 41 41 41 43 41 39 38 37 37 37 37 37 37 38 38 38 37 38 39 40 41 41 42 43 43 44 45 46 46 46 47 47 48 48 50 51 51 51 52 53 53 54 55 55 54
37 38 38 40 42 42 42 42 40 37 37 36 37 37 37 37 37 38 38 38 38 39 40 41 41 41 42 43 43 44 46 47 47 47 48 49 49 51 51 52 52 52 53 53 53 53 54 54 54
38 37 38 40 41 42 43 42 39 36 36 36 36 36 36 37 37 38 38 39 39 40 41 41 41 42 43 44 44 45 46 47 47 48 49 50 50 51 51 51 52 52 53 53 53 52 53 53 54
37 38 39 40 42 42 43 41 38 37 36 36 36 36 36 36 38 38 39 40 40 41 41 41 42 42 43 44 46 46 46 46 48 49 49 50 50 50 50 50 51 52 52 52 53 52 53 53 53
39 39 39 40 41 42 42 42 37 36 36 37 37 36 36 37 37 38 39 40 40 40 41 42 42 43 44 45 46 46 47 47 48 49 49 49 50 50 50 50 50 50 50 50 51 51 51 52 52

GEFSSGP_500_meanwind_222.txt.gz
Wind_Speed
22 23 23 24 24 23 22 20 20 19 19 19 19 19 18 18 17 17 16 15 14 14 14 14 14 14 13 13 13 13 13 13 13 13 13 12 12 13 13 13 13 12 12 12 12 12 13 13 13
22 23 24 24 24 23 21 21 20 20 20 20 20 19 18 18 18 17 16 16 15 15 15 14 14 14 14 14 14 14 14 14 14 15 15 15 14 15 15 15 15 15 15 15 15 15 15 15 15
23 24 24 24 24 23 22 21 22 22 21 21 20 19 19 18 18 17 17 17 16 16 16 15 15 15 15 15 15 15 15 15 15 16 16 16 17 17 17 17 17 17 17 17 17 17 17 16 16
24 25 25 25 24 23 23 23 23 22 22 22 21 20 19 19 19 18 18 17 17 17 16 16 16 16 16 16 16 16 16 17 17 17 18 18 18 19 19 18 19 19 19 19 19 19 19 18 18
25 25 26 25 24 24 24 24 24 23 23 23 22 21 21 20 20 19 19 18 18 18 18 18 17 17 17 17 17 18 18 18 18 18 19 19 20 20 20 20 20 20 20 20 20 20 20 20 20
25 25 25 25 24 24 24 24 24 24 24 24 24 23 22 22 21 21 20 20 19 19 19 19 19 19 19 19 19 20 20 20 20 20 21 21 21 21 21 21 21 21 21 21 21 21 22 22 22
25 25 25 24 24 24 24 25 25 25 25 25 25 24 24 23 23 22 21 21 21 21 21 20 20 20 20 20 21 21 22 22 22 22 22 23 22 22 22 22 22 22 22 23 23 23 23 23 23
26 26 24 24 24 24 25 26 26 26 26 26 26 25 25 24 24 24 23 22 22 22 22 22 22 22 22 22 22 23 23 24 24 24 24 25 24 24 24 24 24 24 24 25 25 25 25 25 25
27 26 25 24 25 25 26 27 27 27 27 27 27 26 26 25 25 25 24 24 24 24 24 24 24 24 24 24 24 24 24 25 25 25 25 25 25 26 25 25 25 26 26 27 27 27 27 28 28
28 27 25 26 26 27 27 27 27 27 27 28 28 28 27 27 27 26 25 25 25 25 26 25 25 25 25 25 25 25 25 26 26 26 26 26 26 26 27 27 28 28 28 29 29 29 29 29 30
29 28 27 28 28 28 28 27 27 27 27 28 29 29 28 28 28 27 27 27 27 27 27 27 27 26 26 26 26 26 26 26 27 27 27 28 28 27 28 29 29 30 30 30 31 31 31 31 31
31 30 29 30 30 30 30 28 27 27 28 29 29 29 29 28 28 28 28 28 28 28 28 28 28 28 28 27 27 26 26 26 27 28 28 29 29 29 29 30 30 31 31 31 32 32 32 32 33
32 31 32 32 32 31 31 30 29 27 29 30 30 29 29 29 29 29 29 29 29 30 30 30 30 29 29 29 29 28 28 28 28 28 29 30 30 31 31 31 32 32 33 33 34 34 34 34 34
32 33 33 33 33 33 32 31 30 28 31 31 30 30 29 29 29 29 29 29 30 30 30 31 30 30 30 30 30 30 30 30 30 30 31 32 32 33 34 34 34 35 36 36 37 37 37 38 37
34 34 34 34 34 34 34 33 31 31 32 32 31 31 30 30 30 30 30 30 31 31 32 32 32 32 33 33 33 33 33 33 32 33 34 35 35 35 36 37 37 38 39 39 40 40 40 40 40
37 37 36 34 35 35 36 33 32 33 33 32 32 31 31 31 31 32 32 32 32 33 33 34 34 34 35 35 35 35 35 35 35 35 36 37 37 38 38 39 40 40 41 42 42 42 42 42 42
39 38 37 35 37 37 37 34 33 34 34 33 33 33 33 33 33 33 34 34 34 35 35 35 35 36 36 37 37 38 37 37 38 38 38 38 39 40 40 41 42 43 43 44 44 44 44 44 44
39 38 37 36 37 38 39 37 35 35 35 35 35 35 35 34 34 35 35 36 36 36 36 37 37 37 38 39 39 40 40 40 39 40 40 40 41 41 42 43 44 45 45 46 46 47 47 47 47
39 39 38 37 38 39 40 38 37 37 36 36 35 36 36 36 36 36 36 37 37 37 38 38 38 39 39 40 40 41 41 41 41 41 42 42 42 43 43 44 45 46 47 48 47 48 49 49 50
40 40 38 38 39 40 40 39 37 37 37 36 36 36 37 37 37 37 37 38 38 39 39 39 39 40 40 41 41 42 42 43 43 42 43 43 43 44 44 45 46 47 48 49 49 49 50 51 51
40 40 38 39 40 41 42 40 37 37 38 38 37 37 37 37 37 38 38 39 39 39 40 40 40 41 41 42 42 43 43 44 44 44 44 44 45 45 45 46 47 47 48 49 50 50 51 51 52
40 40 40 40 41 41 42 42 37 38 38 38 38 38 38 38 38 39 39 40 40 41 41 41 42 42 43 43 43 44 44 44 44 45 45 46 46 46 46 46 48 49 49 49 50 51 52 52 53
41 40 41 41 42 43 42 44 40 39 38 38 37 38 39 39 39 40 41 41 41 41 41 42 42 42 43 44 44 44 44 45 45 46 46 46 47 47 47 47 48 49 50 51 51 51 52 53 54
41 41 41 42 43 45 43 44 43 40 38 37 38 39 40 40 41 41 41 41 41 41 41 42 42 42 42 43 44 45 45 46 46 47 47 48 48 48 48 49 49 49 50 51 52 52 53 54 55
41 41 42 43 45 46 43 45 43 40 38 38 39 39 40 41 42 42 42 42 41 41 42 42 42 42 43 43 44 45 46 46 46 47 48 49 49 49 49 49 49 50 50 51 52 52 53 54 55
41 41 42 44 46 46 44 45 42 39 37 38 39 39 40 41 41 41 41 42 42 42 42 42 42 42 43 43 43 44 46 47 47 48 49 49 50 50 50 49 50 50 51 52 52 53 54 54 54
43 42 41 44 45 46 46 44 41 38 38 38 39 39 39 40 40 41 41 41 41 41 42 42 41 42 42 43 44 45 46 47 47 48 49 50 50 50 49 50 50 51 52 53 53 54 54 54 54
44 42 42 43 45 46 46 44 41 38 37 38 38 38 39 40 40 40 40 40 41 42 42 42 42 42 43 44 45 46 46 47 48 49 49 49 49 50 50 51 51 51 52 52 53 54 54 53 54
44 44 44 45 45 46 46 44 41 38 37 38 38 38 38 39 39 40 39 40 41 41 41 41 42 42 43 44 45 46 47 48 48 49 50 50 49 50 50 51 51 52 53 53 54 53 53 53 54
44 43 43 44 45 45 45 43 40 38 37 37 37 37 38 38 39 40 40 40 41 41 42 42 42 43 44 45 46 47 47 48 48 49 49 49 50 51 51 52 52 53 53 53 53 53 53 53 54

GEFSSGP_500_meanwind_228.txt.gz
Wind_Speed
22 23 22 23 23 23 22 21 20 20 20 20 19 18 18 17 17 18 17 16 16 16 15 14 14 13 13 13 12 12 12 12 11 11 11 11 11 11 11 11 11 11 11 11 11 10 11 11 10
23 23 23 23 24 23 22 21 21 21 21 21 21 20 19 19 18 18 17 17 17 16 16 15 15 14 14 14 13 13 13 13 13 13 13 13 12 12 13 13 13 13 13 13 13 13 12 12 12
24 24 24 24 23 23 22 22 22 22 22 22 21 21 21 20 20 19 18 18 17 17 17 16 16 16 15 14 14 14 15 14 14 14 14 14 14 14 14 14 14 14 14 15 15 15 14 14 14
25 25 25 24 23 23 23 23 23 23 24 23 22 22 22 22 21 20 20 19 19 19 18 18 17 17 16 16 15 15 16 16 16 16 16 15 15 15 15 15 16 16 16 16 16 16 16 16 16
27 26 26 24 23 23 23 23 23 24 24 24 24 23 23 23 22 22 21 20 20 20 19 19 19 18 17 17 17 17 17 17 17 17 17 17 17 17 17 17 17 17 17 17 18 17 17 17 17
28 28 27 25 24 24 24 24 24 25 25 25 25 24 24 24 23 23 22 22 21 20 20 19 19 19 18 18 18 18 18 18 19 19 19 19 19 19 19 19 19 19 19 19 19 19 19 19 19
29 28 28 26 25 25 25 25 25 25 25 25 25 25 25 25 24 24 24 23 22 22 21 21 20 20 20 19 19 19 19 19 20 20 20 20 21 21 21 21 21 21 21 21 21 20 21 21 21
30 30 29 27 26 26 25 26 26 26 26 26 25 25 25 25 25 25 25 24 24 23 23 23 22 22 22 21 21 21 21 21 21 21 21 22 22 22 22 22 22 22 23 23 23 23 23 23 23
31 31 29 28 27 26 26 26 26 26 26 26 26 25 25 25 25 25 25 25 25 24 24 24 24 24 24 23 23 23 23 22 22 22 22 23 23 23 23 23 23 24 24 24 24 25 25 25 25
32 31 29 29 28 28 28 27 27 26 26 26 27 27 26 26 26 26 27 26 26 26 25 25 25 25 25 25 25 25 24 24 24 24 24 24 24 24 24 24 24 24 25 25 25 26 27 27 26
32 31 30 30 30 30 29 29 28 27 27 27 27 28 27 28 27 27 28 27 27 26 26 26 26 25 25 25 26 26 25 25 25 25 25 25 25 25 25 25 25 25 26 26 27 27 28 28 29
33 32 32 31 31 31 30 30 29 28 28 28 28 28 28 28 29 29 29 29 28 28 27 27 26 26 26 26 27 27 27 26 26 26 26 26 26 26 26 27 27 27 28 28 29 29 30 30 31
33 32 32 32 32 32 32 31 31 29 29 29 29 29 29 29 29 30 30 30 30 29 29 29 28 28 28 28 28 28 28 28 28 28 28 28 28 28 28 28 28 29 29 30 31 32 32 33 33
34 33 33 33 33 33 33 33 32 31 31 31 31 31 30 30 30 30 31 31 31 31 31 30 30 30 30 30 30 30 30 30 30 30 30 31 30 30 30 30 31 31 31 32 33 34 34 35 36
36 35 35 35 35 34 35 34 33 33 33 33 32 32 31 31 31 31 31 32 32 32 32 31 31 31 31 31 31 31 31 31 32 32 32 32 32 32 32 32 33 33 34 35 35 36 37 38 38
37 37 37 36 36 36 36 34 33 34 35 34 34 33 32 32 32 32 32 32 32 32 32 32 32 32 32 32 32 32 32 32 33 34 34 34 34 34 34 34 35 36 37 38 38 39 40 40 41
39 38 38 37 38 37 38 35 35 36 36 36 35 35 34 34 33 33 33 32 32 32 32 32 32 33 33 33 33 33 33 34 35 35 35 36 36 36 36 37 38 38 39 40 41 42 42 43 43
40 39 39 38 38 39 39 37 36 37 38 38 37 37 36 36 35 35 34 34 33 34 34 33 33 33 34 34 35 35 35 36 37 37 37 38 38 38 39 39 40 40 41 42 43 44 44 45 45
42 41 40 39 39 40 40 38 38 39 39 39 39 39 38 38 37 37 36 35 35 35 35 34 34 34 35 35 36 36 37 37 38 38 39 39 40 40 41 41 41 42 43 44 44 44 45 46 47
43 42 41 40 41 41 41 40 39 39 39 39 39 40 40 39 39 38 37 36 36 36 36 36 35 36 36 37 37 38 38 38 39 40 41 41 42 42 43 44 44 44 44 44 45 45 46 47 47
43 42 41 41 41 42 42 41 39 38 39 39 40 40 40 40 39 39 38 37 37 36 36 36 36 37 37 38 38 39 39 40 41 41 42 43 44 44 45 45 46 46 46 46 46 46 46 47 48
43 42 42 42 42 42 42 42 38 38 38 39 39 40 39 39 39 39 39 38 37 37 37 37 38 38 38 38 39 40 40 41 42 43 43 44 45 45 46 46 47 47 48 48 48 48 49 49 49
42 42 42 42 43 43 42 43 39 38 39 39 39 39 40 40 40 40 39 39 38 38 38 38 39 39 39 39 40 41 42 42 43 44 45 45 45 46 46 47 47 48 48 49 50 50 51 50 50
42 41 43 44 44 45 42 43 41 39 38 38 39 39 39 39 40 40 39 39 39 39 39 39 40 40 40 41 41 42 43 44 44 45 45 45 45 46 47 48 49 49 50 50 51 51 51 51 51
42 42 43 45 46 46 43 44 43 40 38 38 38 37 38 39 40 40 39 39 39 39 40 41 41 41 41 42 42 43 44 44 44 45 45 46 46 46 47 48 49 50 50 51 52 52 53 53 53
42 42 44 45 46 46 45 45 43 40 39 38 38 38 38 39 39 39 39 40 40 40 40 41 41 41 41 42 43 43 44 44 45 45 46 46 46 46 48 49 50 51 51 52 53 53 54 54 54
44 43 42 45 47 47 47 45 42 40 39 38 38 38 38 38 39 39 40 40 40 40 40 41 41 41 42 42 43 44 44 44 45 46 46 46 46 47 48 50 51 51 52 53 54 54 54 54 55
45 44 44 45 47 47 48 45 42 39 39 38 38 37 38 38 38 39 40 40 40 40 40 41 41 42 42 43 43 43 44 44 45 45 46 46 47 47 48 50 51 52 52 53 54 55 56 56 56
44 45 46 46 47 47 47 45 42 39 38 38 37 37 37 38 38 39 39 40 40 40 41 41 41 42 42 42 43 43 44 44 45 45 46 47 47 48 49 51 51 52 53 53 54 54 54 55 55
43 44 44 46 46 46 45 45 41 39 38 38 37 37 38 38 38 38 39 39 40 40 41 41 41 42 42 42 42 42 43 44 44 46 47 47 48 48 50 50 51 52 52 53 53 54 54 54 54

GEFSSGP_500_meanwind_234.txt.gz
Wind_Speed
27 27 26 26 25 24 22 21 22 21 21 20 20 20 20 20 20 19 17 16 17 17 16 16 15 14 14 13 13 12 12 12 11 11 10 10 10 10 10 10 10 10 11 11 11 11 10 10 10
28 28 28 27 27 24 23 23 23 22 21 21 21 21 21 22 20 19 18 18 18 18 18 17 17 16 15 14 14 13 13 13 12 12 11 11 11 11 11 11 11 12 12 12 12 12 12 11 11
29 29 29 28 27 25 24 25 24 23 22 22 22 23 23 22 21 21 20 19 19 19 18 18 18 17 17 16 15 15 14 14 14 14 13 13 13 13 13 13 12 13 13 13 13 13 13 13 12
30 30 30 29 27 25 25 26 24 24 23 24 24 24 24 23 22 22 22 21 20 20 19 19 19 19 18 18 17 17 16 16 16 15 15 15 15 15 15 15 14 14 14 14 14 14 14 14 14
31 31 31 30 28 26 26 26 24 25 25 25 25 25 24 24 23 23 23 23 22 21 20 21 20 20 19 19 19 18 18 18 17 17 17 17 16 16 16 16 16 16 16 16 16 16 16 16 16
32 32 31 30 29 28 28 26 25 26 26 26 26 26 25 25 25 24 24 24 23 23 22 22 21 21 21 20 20 20 19 19 18 18 18 18 17 17 17 18 18 17 17 17 17 18 18 18 18
33 33 32 31 31 30 29 28 27 27 26 27 27 27 26 26 25 25 25 25 25 24 24 23 23 22 22 22 21 20 20 19 19 19 19 18 18 19 19 19 19 19 19 19 19 19 19 20 20
34 34 33 32 32 31 30 29 28 28 27 27 28 28 28 27 26 26 26 26 26 26 25 25 24 24 24 23 22 21 21 21 20 20 20 20 20 20 20 21 21 21 21 21 21 21 21 21 21
36 36 34 33 33 32 31 30 29 29 29 28 29 29 29 28 27 27 27 27 27 27 27 27 26 25 24 23 23 23 22 22 22 21 21 22 22 22 22 22 22 22 22 22 22 22 22 23 23
37 36 35 34 34 33 32 31 30 30 30 29 29 29 29 29 29 28 28 28 28 28 28 27 26 26 25 25 25 24 24 24 24 23 23 23 23 23 23 23 23 24 24 24 24 24 23 24 24
38 37 35 35 35 34 34 32 32 32 31 30 30 29 29 29 29 29 28 29 29 29 29 28 27 26 26 26 26 26 26 26 26 25 25 25 25 24 24 24 24 25 25 25 25 24 24 25 25
39 37 37 36 36 35 34 33 33 33 32 32 31 30 30 29 29 29 29 29 28 28 28 28 28 28 27 27 27 27 27 27 26 26 26 26 25 25 25 25 25 25 26 26 26 27 26 27 27
39 38 38 38 37 36 35 34 34 33 33 33 32 31 30 30 30 30 30 29 28 28 28 28 29 28 28 28 28 28 28 27 27 26 27 26 27 27 27 27 27 28 28 28 28 28 28 29 29
40 39 39 38 38 37 36 35 34 33 33 33 32 32 32 32 31 31 30 30 30 29 29 29 29 29 29 29 29 29 28 28 28 28 28 28 28 28 28 29 30 30 30 30 30 30 30 30 31
41 41 40 39 38 38 38 37 35 34 34 33 32 32 33 33 32 32 31 31 30 30 30 30 30 30 30 30 30 30 30 30 30 30 30 29 29 29 30 30 31 31 32 32 32 32 32 33 34
42 42 41 40 39 38 39 38 36 36 35 34 34 33 33 33 33 33 32 32 32 31 31 31 31 31 31 32 32 31 31 31 32 32 31 31 31 31 32 32 32 33 33 34 34 35 35 35 36
43 43 41 40 41 40 40 39 37 37 37 36 35 35 35 34 34 33 33 33 33 33 32 32 32 32 33 33 33 33 33 33 33 34 33 33 33 33 34 34 34 34 35 35 36 37 38 38 38
43 43 42 41 41 41 41 40 39 39 38 37 37 36 36 35 35 34 35 35 34 34 34 33 33 33 34 34 34 34 34 34 34 34 35 35 35 35 36 36 36 36 37 38 38 39 39 40 41
43 43 43 42 42 42 42 41 40 40 39 39 38 38 37 36 36 36 36 36 35 35 35 35 34 34 35 35 35 34 34 34 35 35 36 36 37 37 37 37 38 38 39 40 40 41 41 42 43
45 44 43 43 44 43 43 43 41 42 41 40 39 39 38 38 38 37 37 37 37 37 37 37 36 36 36 36 35 36 36 36 36 37 37 37 38 38 39 39 39 40 41 41 42 42 43 44 44
46 45 44 44 44 45 45 45 43 43 42 41 41 40 40 40 39 38 38 38 38 38 38 38 38 38 37 37 37 37 38 38 38 38 38 38 39 40 40 41 41 42 42 43 43 44 44 45 46
46 45 44 44 45 45 46 46 44 43 43 42 42 42 41 41 41 40 39 39 39 39 39 39 39 39 39 39 39 39 39 39 39 39 40 40 41 41 42 42 43 43 43 43 44 45 45 46 47
45 44 44 44 45 47 46 48 45 44 43 42 42 42 42 41 41 41 40 40 40 40 40 40 40 40 41 41 40 40 40 40 40 41 41 42 42 42 43 43 43 43 44 44 45 46 46 47 48
44 44 44 45 46 48 46 47 46 44 43 42 42 42 42 42 42 42 41 41 41 41 41 41 41 42 42 42 42 41 41 42 42 42 43 42 42 42 43 43 44 45 46 46 46 47 47 48 49
44 44 44 45 47 48 45 47 46 43 43 42 42 42 42 43 42 42 42 42 42 42 42 42 42 43 43 43 43 43 42 43 43 43 44 44 43 43 44 44 45 46 47 47 47 47 48 50 51
44 44 44 45 47 47 45 46 44 42 42 43 43 42 42 43 43 43 43 43 43 43 43 43 43 43 43 43 43 43 43 44 44 44 45 45 44 44 45 46 47 47 48 48 48 49 50 51 51
43 43 43 44 46 46 47 46 45 42 41 42 43 42 41 41 42 42 43 43 42 42 43 43 43 43 44 43 44 44 44 44 45 45 46 46 46 46 47 48 48 48 48 49 50 50 51 52 52
44 43 43 45 46 46 47 46 45 43 42 42 43 42 40 40 40 41 42 42 42 42 43 43 43 43 44 44 44 44 44 45 46 46 47 47 47 48 49 49 48 49 49 50 51 51 52 53 53
43 44 45 45 46 46 46 46 44 43 42 41 41 41 40 40 41 41 41 41 41 42 43 43 43 44 44 44 44 44 44 45 46 47 47 48 48 49 49 49 49 50 50 51 52 52 53 53 53
42 43 44 45 45 45 46 45 43 42 42 41 42 41 40 41 41 41 41 41 41 42 43 43 43 44 44 44 44 44 45 46 46 47 47 48 49 49 49 50 50 50 50 51 52 52 52 53 53